[[{"header":{"parameterUnit":"m.s-1","parameterCategory":1,"la1":31.0,"la2":29.5877,"lo1":-88.7671,"lo2":-86.6584,"dy":0.0162,"dx":0.0185,"nx":115,"ny":88,"refTime":"2026-04-11T00:00:00:Z","depth":0,"parameterNumber":2,"parameterNumberName":"U-component_of_WINDS"},"data":[0.0,0.0,0.0,0.0,0.0,0.0,0.0,0.0,0.0,0.0,0.0,0.0,0.0,0.0,0.0,0.0,0.0,0.0,0.0,0.0,0.0,0.0,0.0,0.0,0.0,0.0,0.0,0.0,0.0,0.0,0.0,0.0,0.0,0.0,0.0,0.0,0.0,0.0,0.0,0.0,0.0,0.0,0.0,0.0,0.0,0.0,0.0,0.0,0.0,0.0,0.0,0.0,0.0,0.0,0.0,0.0,0.0,0.0,0.0,0.0,0.0,0.0,0.0,0.0,0.0,0.0,0.0,0.0,0.0,0.0,0.0,0.0,0.0,0.0,0.0,0.0,0.0,0.0,0.0,0.0,0.0,0.0,0.0,0.0,0.0,0.0,0.0,0.0,0.0,0.0,0.0,0.0,0.0,0.0,0.0,0.0,0.0,0.0,0.0,0.0,0.0,0.0,0.0,0.0,0.0,0.0,0.0,0.0,0.0,0.0,0.0,0.0,0.0,0.0,0.0,0.0,0.0,0.0,0.0,0.0,0.0,0.0,0.0,0.0,0.0,0.0,0.0,0.0,0.0,0.0,0.0,0.0,0.0,0.0,0.0,0.0,0.0,0.0,0.0,0.0,0.0,0.0,0.0,0.0,0.0,0.0,0.0,0.0,0.0,0.0,0.0,0.0,0.0,0.0,0.0,0.0,0.0,0.0,0.0,0.0,0.0,0.0,0.0,0.0,0.0,0.0,0.0,0.0,0.0,0.0,0.0,0.0,0.0,0.0,0.0,0.0,0.0,0.0,0.0,0.0,0.0,0.0,0.0,0.0,0.0,0.0,0.0,0.0,0.0,0.0,0.0,0.0,0.0,0.0,0.0,0.0,0.0,0.0,0.0,0.0,0.0,0.0,0.0,0.0,0.0,0.0,0.0,0.0,0.0,0.0,0.0,0.0,0.0,0.0,0.0,0.0,0.0,0.0,0.0,0.0,0.0,0.0,0.0,0.0,0.0,0.0,0.0,0.0,0.0,0.0,0.0,0.0,0.0,0.0,0.0,0.0,0.0,0.0,0.0,0.0,0.0,0.0,0.0,0.0,0.0,0.0,0.0,0.0,0.0,0.0,0.0,0.0,0.0,0.0,0.0,0.0,0.0,0.0,0.0,0.0,0.0,0.0,0.0,0.0,0.0,0.0,0.0,0.0,0.0,0.0,0.0,0.0,0.0,0.0,0.0,0.0,0.0,0.0,0.0,0.0,0.0,0.0,0.0,0.0,0.0,0.0,0.0,0.0,0.0,0.0,0.0,0.0,0.0,0.0,0.0,0.0,0.0,0.0,0.0,0.0,0.0,0.0,0.0,0.0,0.0,0.0,0.0,0.0,0.0,0.0,0.0,0.0,0.0,0.0,0.0,0.0,0.0,0.0,0.0,0.0,0.0,0.0,0.0,0.0,0.0,0.0,0.0,0.0,0.0,0.0,0.0,0.0,0.0,0.0,0.0,0.0,0.0,0.0,0.0,0.0,0.0,0.0,0.0,0.0,0.0,0.0,0.0,0.0,0.0,0.0,0.0,0.0,0.0,0.0,0.0,0.0,0.0,0.0,0.0,0.0,0.0,0.0,0.0,0.0,0.0,0.0,0.0,0.0,0.0,0.0,0.0,0.0,0.0,0.0,0.0,0.0,0.0,0.0,0.0,0.0,0.0,0.0,0.0,0.0,0.0,0.0,0.0,0.0,0.0,0.0,0.0,0.0,0.0,0.0,0.0,0.0,0.0,0.0,0.0,0.0,0.0,0.0,0.0,0.0,0.0,0.0,0.0,0.0,0.0,0.0,0.0,0.0,0.0,0.0,0.0,0.0,0.0,0.0,0.0,0.0,0.0,0.0,0.0,0.0,0.0,0.0,0.0,0.0,0.0,0.0,0.0,0.0,0.0,0.0,0.0,0.0,0.0,0.0,0.0,0.0,0.0,0.0,0.0,0.0,0.0,0.0,0.0,0.0,0.0,0.0,0.0,0.0,0.0,0.0,0.0,0.0,0.0,0.0,0.0,0.0,0.0,0.0,0.0,0.0,0.0,0.0,0.0,0.0,0.0,0.0,0.0,0.0,0.0,0.0,0.0,0.0,0.0,0.0,0.0,0.0,0.0,0.0,0.0,0.0,0.0,0.0,0.0,0.0,0.0,0.0,0.0,0.0,0.0,0.0,0.0,0.0,0.0,0.0,0.0,0.0,0.0,0.0,0.0,0.0,0.0,0.0,0.0,0.0,0.0,0.0,0.0,0.0,0.0,0.0,0.0,0.0,0.0,0.0,0.0,0.0,0.0,0.0,0.0,0.0,0.0,0.0,0.0,0.0,0.0,0.0,0.0,0.0,0.0,0.0,0.0,0.0,0.0,0.0,0.0,0.0,0.0,0.0,0.0,0.0,0.0,0.0,0.0,0.0,0.0,0.0,0.0,0.0,0.0,0.0,0.0,0.0,0.0,0.0,0.0,0.0,0.0,0.0,0.0,0.0,0.0,0.0,0.0,0.0,0.0,0.0,0.0,0.0,0.0,0.0,0.0,0.0,0.0,0.0,0.0,0.0,0.0,0.0,0.0,0.0,0.0,0.0,0.0,0.0,0.0,0.0,0.0,0.0,0.0,0.0,0.0,0.0,0.0,0.0,0.0,0.0,0.0,0.0,0.0,0.0,0.0,0.0,0.0,0.0,0.0,0.0,0.0,0.0,0.0,0.0,0.0,0.0,0.0,0.0,0.0,0.0,0.0,0.0,0.0,0.0,0.0,0.0,0.0,0.0,0.0,0.0,0.0,0.0,0.0,0.0,0.0,0.0,0.0,0.0,0.0,0.0,0.0,0.0,0.0,0.0,0.0,0.0,0.0,0.0,0.0,0.0,0.0,0.0,0.0,0.0,0.0,0.0,0.0,0.0,0.0,0.0,0.0,0.0,0.0,0.0,0.0,0.0,0.0,0.0,0.0,0.0,0.0,0.0,0.0,0.0,0.0,0.0,0.0,0.0,0.0,0.0,0.0,0.0,0.0,0.0,0.0,0.0,0.0,0.0,0.0,0.0,0.0,0.0,0.0,0.0,0.0,0.0,0.0,0.0,0.0,0.0,0.0,0.0,0.0,0.0,0.0,0.0,0.0,0.0,0.0,0.0,0.0,0.0,0.0,0.0,0.0,0.0,0.0,0.0,0.0,0.0,0.0,0.0,0.0,0.0,0.0,0.0,0.0,0.0,0.0,0.0,0.0,0.0,0.0,0.0,0.0,0.0,0.0,0.0,0.0,0.0,0.0,0.0,0.0,0.0,0.0,0.0,0.0,0.0,0.0,0.0,0.0,0.0,0.0,0.0,0.0,0.0,0.0,0.0,0.0,0.0,0.0,0.0,0.0,0.0,0.0,0.0,0.0,0.0,0.0,0.0,0.0,0.0,0.0,0.0,0.0,0.0,0.0,0.0,0.0,0.0,0.0,0.0,0.0,0.0,0.0,0.0,0.0,0.0,0.0,0.0,0.0,0.0,0.0,0.0,0.0,0.0,0.0,0.0,0.0,0.0,0.0,0.0,0.0,0.0,0.0,0.0,0.0,0.0,0.0,0.0,0.0,0.0,0.0,0.0,0.0,0.0,0.0,0.0,0.0,0.0,0.0,0.0,0.0,0.0,0.0,0.0,0.0,0.0,0.0,0.0,0.0,0.0,0.0,0.0,0.0,0.0,0.0,0.0,0.0,0.0,0.0,0.0,0.0,0.0,0.0,0.0,0.0,0.0,0.0,0.0,0.0,0.0,0.0,0.0,0.0,0.0,0.0,0.0,0.0,0.0,0.0,0.0,0.0,0.0,0.0,0.0,0.0,0.0,0.0,0.0,0.0,0.0,0.0,0.0,0.0,0.0,0.0,0.0,0.0,0.0,0.0,0.0,0.0,0.0,0.0,0.0,0.0,0.0,0.0,0.0,0.0,0.0,0.0,0.0,0.0,0.0,0.0,0.0,0.0,0.0,0.0,0.0,0.0,0.0,0.0,0.0,0.0,0.0,0.0,0.0,0.0,0.0,0.0,0.0,0.0,0.0,0.0,0.0,0.0,0.0,0.0,0.0,0.0,0.0,0.0,0.0,0.0,0.0,0.0,0.0,0.0,0.0,0.0,0.0,0.0,0.0,0.0,0.0,0.0,0.0,0.0,0.0,0.0,0.0,0.0,0.0,0.0,0.0,0.0,0.0,0.0,0.0,0.0,0.0,0.0,0.0,0.0,0.0,0.0,0.0,0.0,0.0,0.0,0.0,0.0,0.0,-4.9951,0.0,0.0,0.0,0.0,0.0,0.0,0.0,0.0,0.0,0.0,0.0,0.0,0.0,0.0,0.0,0.0,0.0,0.0,0.0,0.0,0.0,0.0,0.0,0.0,0.0,0.0,0.0,0.0,0.0,0.0,0.0,0.0,0.0,0.0,0.0,0.0,0.0,0.0,0.0,0.0,0.0,0.0,0.0,0.0,0.0,0.0,0.0,0.0,0.0,0.0,0.0,0.0,0.0,0.0,0.0,0.0,0.0,0.0,0.0,0.0,0.0,0.0,0.0,0.0,0.0,0.0,0.0,0.0,0.0,0.0,0.0,0.0,0.0,0.0,0.0,0.0,0.0,0.0,0.0,0.0,0.0,0.0,0.0,0.0,0.0,0.0,0.0,0.0,0.0,0.0,0.0,0.0,0.0,0.0,0.0,0.0,0.0,0.0,0.0,0.0,0.0,0.0,0.0,0.0,0.0,0.0,0.0,0.0,0.0,0.0,-5.4043,-5.5332,-5.4116,-5.2536,-5.0698,0.0,0.0,0.0,0.0,0.0,0.0,0.0,0.0,0.0,0.0,0.0,0.0,0.0,0.0,0.0,0.0,0.0,0.0,0.0,0.0,0.0,0.0,0.0,0.0,0.0,0.0,0.0,0.0,0.0,0.0,0.0,0.0,0.0,0.0,0.0,0.0,0.0,0.0,0.0,0.0,0.0,0.0,0.0,0.0,0.0,0.0,0.0,0.0,0.0,0.0,0.0,0.0,0.0,0.0,0.0,0.0,0.0,0.0,0.0,0.0,0.0,0.0,0.0,0.0,0.0,0.0,0.0,0.0,0.0,0.0,0.0,0.0,0.0,0.0,0.0,0.0,0.0,0.0,0.0,0.0,0.0,0.0,0.0,0.0,0.0,0.0,0.0,0.0,0.0,0.0,0.0,0.0,0.0,0.0,0.0,0.0,0.0,0.0,0.0,0.0,0.0,0.0,0.0,0.0,0.0,0.0,0.0,0.0,0.0,0.0,0.0,0.0,-5.4919,-5.2953,-5.0713,0.0,0.0,0.0,0.0,0.0,0.0,0.0,0.0,0.0,0.0,0.0,0.0,0.0,0.0,0.0,0.0,0.0,0.0,0.0,0.0,0.0,0.0,0.0,0.0,0.0,0.0,0.0,0.0,0.0,0.0,0.0,0.0,0.0,0.0,0.0,0.0,0.0,0.0,0.0,0.0,0.0,0.0,0.0,0.0,0.0,0.0,0.0,0.0,0.0,0.0,0.0,0.0,0.0,0.0,0.0,0.0,0.0,0.0,0.0,0.0,0.0,0.0,0.0,0.0,0.0,0.0,0.0,0.0,0.0,0.0,0.0,0.0,0.0,0.0,0.0,0.0,0.0,0.0,0.0,0.0,0.0,0.0,0.0,0.0,0.0,0.0,0.0,0.0,0.0,0.0,0.0,0.0,0.0,0.0,0.0,0.0,0.0,0.0,0.0,0.0,0.0,0.0,0.0,0.0,0.0,0.0,0.0,0.0,0.0,0.0,-5.4844,-5.6504,-5.4901,0.0,-4.9064,0.0,0.0,0.0,0.0,0.0,0.0,0.0,0.0,0.0,0.0,0.0,0.0,0.0,0.0,0.0,0.0,0.0,0.0,0.0,0.0,0.0,0.0,0.0,0.0,0.0,0.0,0.0,0.0,0.0,0.0,0.0,0.0,0.0,0.0,0.0,0.0,0.0,0.0,0.0,0.0,0.0,0.0,0.0,0.0,0.0,0.0,0.0,0.0,0.0,0.0,0.0,0.0,0.0,0.0,0.0,0.0,0.0,0.0,0.0,0.0,0.0,0.0,0.0,0.0,0.0,0.0,0.0,0.0,0.0,0.0,0.0,0.0,0.0,0.0,0.0,0.0,0.0,0.0,0.0,0.0,0.0,0.0,0.0,0.0,0.0,0.0,0.0,0.0,0.0,0.0,0.0,0.0,0.0,0.0,0.0,0.0,0.0,0.0,0.0,0.0,0.0,0.0,0.0,0.0,0.0,0.0,0.0,0.0,0.0,0.0,-5.4824,-5.6562,-5.3926,-5.1302,0.0,0.0,0.0,0.0,0.0,0.0,0.0,0.0,0.0,0.0,0.0,0.0,0.0,0.0,0.0,0.0,0.0,0.0,0.0,0.0,0.0,0.0,0.0,0.0,0.0,0.0,0.0,0.0,0.0,0.0,0.0,0.0,0.0,0.0,0.0,0.0,0.0,0.0,0.0,0.0,0.0,0.0,0.0,0.0,0.0,0.0,0.0,0.0,0.0,0.0,0.0,0.0,0.0,0.0,0.0,0.0,0.0,0.0,0.0,0.0,0.0,0.0,0.0,0.0,0.0,0.0,0.0,0.0,0.0,0.0,0.0,0.0,0.0,0.0,0.0,0.0,0.0,0.0,0.0,0.0,0.0,0.0,0.0,0.0,0.0,0.0,0.0,0.0,0.0,0.0,0.0,0.0,0.0,0.0,0.0,0.0,0.0,0.0,0.0,0.0,0.0,0.0,0.0,0.0,0.0,0.0,0.0,0.0,0.0,0.0,-5.3652,-5.4141,-5.498,-5.2519,-5.0134,-4.814,0.0,0.0,0.0,0.0,0.0,0.0,0.0,0.0,0.0,0.0,0.0,0.0,0.0,0.0,0.0,0.0,0.0,0.0,0.0,0.0,0.0,0.0,0.0,0.0,0.0,0.0,0.0,0.0,0.0,0.0,0.0,0.0,0.0,0.0,0.0,0.0,0.0,0.0,0.0,0.0,0.0,0.0,0.0,0.0,0.0,0.0,0.0,0.0,0.0,0.0,0.0,0.0,0.0,0.0,0.0,0.0,0.0,0.0,0.0,0.0,0.0,0.0,0.0,0.0,0.0,0.0,0.0,0.0,0.0,0.0,0.0,0.0,0.0,0.0,0.0,0.0,0.0,0.0,0.0,0.0,0.0,0.0,0.0,0.0,0.0,0.0,0.0,0.0,0.0,0.0,0.0,0.0,0.0,0.0,0.0,0.0,0.0,0.0,0.0,0.0,0.0,0.0,0.0,0.0,0.0,0.0,0.0,0.0,0.0,-5.2793,-5.2402,-5.1738,-5.0723,-4.9021,0.0,0.0,0.0,0.0,0.0,0.0,0.0,0.0,0.0,0.0,0.0,0.0,0.0,0.0,0.0,0.0,0.0,0.0,0.0,0.0,0.0,0.0,0.0,0.0,0.0,0.0,0.0,0.0,0.0,0.0,0.0,0.0,0.0,0.0,0.0,0.0,0.0,0.0,0.0,0.0,0.0,0.0,0.0,0.0,0.0,0.0,0.0,0.0,0.0,0.0,0.0,0.0,0.0,0.0,0.0,0.0,0.0,0.0,0.0,0.0,0.0,0.0,0.0,0.0,0.0,0.0,0.0,0.0,0.0,0.0,0.0,0.0,0.0,0.0,0.0,0.0,0.0,0.0,0.0,0.0,0.0,0.0,0.0,0.0,0.0,0.0,0.0,0.0,0.0,0.0,0.0,0.0,0.0,0.0,0.0,0.0,0.0,0.0,0.0,0.0,0.0,0.0,0.0,0.0,0.0,0.0,0.0,0.0,0.0,-5.2676,-5.3223,-5.2851,-5.1426,-5.0078,-4.8376,0.0,0.0,0.0,0.0,0.0,0.0,0.0,0.0,0.0,0.0,0.0,0.0,0.0,0.0,0.0,0.0,0.0,0.0,0.0,0.0,0.0,0.0,0.0,0.0,0.0,0.0,0.0,0.0,0.0,0.0,0.0,0.0,0.0,0.0,0.0,0.0,0.0,0.0,0.0,0.0,0.0,0.0,0.0,0.0,0.0,0.0,0.0,0.0,0.0,0.0,0.0,0.0,0.0,0.0,0.0,0.0,0.0,0.0,0.0,0.0,0.0,0.0,0.0,0.0,0.0,0.0,0.0,0.0,0.0,0.0,0.0,0.0,0.0,0.0,0.0,0.0,0.0,0.0,0.0,0.0,0.0,0.0,0.0,0.0,0.0,0.0,0.0,0.0,0.0,0.0,0.0,0.0,0.0,0.0,0.0,0.0,0.0,0.0,0.0,0.0,0.0,0.0,0.0,0.0,0.0,0.0,0.0,0.0,0.0,-5.2246,0.0,-5.2754,0.0,-4.9902,-4.822,0.0,0.0,0.0,0.0,0.0,0.0,0.0,0.0,0.0,0.0,0.0,0.0,0.0,0.0,0.0,0.0,0.0,0.0,0.0,0.0,0.0,0.0,0.0,0.0,0.0,0.0,0.0,0.0,0.0,0.0,0.0,0.0,0.0,0.0,0.0,0.0,0.0,0.0,0.0,0.0,0.0,0.0,0.0,0.0,0.0,0.0,0.0,0.0,0.0,0.0,0.0,0.0,0.0,0.0,0.0,0.0,0.0,0.0,0.0,0.0,0.0,0.0,0.0,0.0,0.0,0.0,0.0,0.0,0.0,0.0,0.0,0.0,0.0,0.0,0.0,0.0,0.0,0.0,0.0,0.0,0.0,0.0,0.0,0.0,0.0,0.0,0.0,0.0,0.0,0.0,0.0,0.0,0.0,0.0,0.0,0.0,0.0,0.0,0.0,0.0,0.0,0.0,0.0,0.0,0.0,0.0,0.0,0.0,-5.0625,-5.1426,-5.2324,-5.2031,-5.0293,-5.0176,-4.8553,0.0,0.0,0.0,0.0,0.0,0.0,0.0,0.0,0.0,0.0,0.0,0.0,0.0,0.0,0.0,0.0,0.0,0.0,0.0,0.0,0.0,0.0,0.0,0.0,0.0,0.0,0.0,0.0,0.0,0.0,0.0,0.0,0.0,0.0,0.0,0.0,0.0,0.0,0.0,0.0,0.0,0.0,0.0,0.0,0.0,0.0,0.0,0.0,0.0,0.0,0.0,0.0,0.0,0.0,0.0,0.0,0.0,0.0,0.0,0.0,0.0,0.0,0.0,0.0,0.0,0.0,0.0,0.0,0.0,0.0,0.0,0.0,0.0,0.0,0.0,0.0,0.0,0.0,0.0,0.0,0.0,0.0,0.0,0.0,0.0,0.0,0.0,0.0,0.0,0.0,0.0,0.0,0.0,0.0,0.0,0.0,0.0,0.0,0.0,0.0,0.0,0.0,0.0,0.0,0.0,0.0,0.0,0.0,0.0,-5.2266,-5.3144,-5.2773,-5.1094,-4.9902,-4.8201,0.0,0.0,0.0,0.0,0.0,0.0,0.0,0.0,0.0,0.0,0.0,0.0,0.0,0.0,0.0,0.0,0.0,0.0,0.0,0.0,0.0,0.0,0.0,0.0,0.0,0.0,0.0,0.0,0.0,0.0,0.0,0.0,0.0,0.0,0.0,0.0,0.0,0.0,0.0,0.0,0.0,0.0,0.0,0.0,0.0,0.0,0.0,0.0,0.0,0.0,0.0,0.0,0.0,0.0,0.0,0.0,0.0,0.0,0.0,0.0,0.0,0.0,0.0,0.0,0.0,0.0,0.0,0.0,0.0,0.0,0.0,0.0,0.0,0.0,0.0,0.0,0.0,0.0,0.0,0.0,0.0,0.0,0.0,0.0,0.0,0.0,0.0,0.0,0.0,0.0,0.0,0.0,0.0,0.0,0.0,0.0,0.0,0.0,0.0,0.0,0.0,0.0,0.0,0.0,0.0,0.0,0.0,0.0,0.0,-5.3613,-5.4199,-5.3652,-5.1914,-5.0547,-4.8845,-4.6734,0.0,0.0,0.0,0.0,0.0,0.0,0.0,0.0,0.0,0.0,0.0,0.0,0.0,0.0,0.0,0.0,0.0,0.0,0.0,0.0,0.0,0.0,0.0,0.0,0.0,0.0,0.0,0.0,0.0,0.0,0.0,0.0,0.0,0.0,0.0,0.0,0.0,0.0,0.0,0.0,0.0,0.0,0.0,0.0,0.0,0.0,0.0,0.0,0.0,0.0,0.0,0.0,0.0,0.0,0.0,0.0,0.0,0.0,0.0,0.0,0.0,0.0,0.0,0.0,0.0,0.0,0.0,0.0,0.0,0.0,0.0,0.0,0.0,0.0,0.0,0.0,0.0,0.0,0.0,0.0,0.0,0.0,0.0,0.0,0.0,0.0,0.0,0.0,0.0,0.0,0.0,0.0,0.0,0.0,0.0,0.0,0.0,0.0,0.0,0.0,0.0,0.0,0.0,0.0,0.0,0.0,0.0,0.0,-5.5273,-5.539,-5.4629,-5.291,-5.1875,-5.0193,0.0,0.0,0.0,0.0,0.0,0.0,0.0,0.0,0.0,0.0,0.0,0.0,0.0,0.0,0.0,0.0,0.0,0.0,0.0,0.0,0.0,0.0,0.0,0.0,0.0,0.0,0.0,0.0,0.0,0.0,0.0,0.0,0.0,0.0,0.0,0.0,0.0,0.0,0.0,0.0,0.0,0.0,0.0,0.0,0.0,0.0,0.0,0.0,0.0,0.0,0.0,0.0,0.0,0.0,0.0,0.0,0.0,0.0,0.0,0.0,0.0,0.0,0.0,0.0,0.0,0.0,0.0,0.0,0.0,0.0,0.0,0.0,0.0,0.0,0.0,0.0,0.0,0.0,0.0,0.0,0.0,0.0,0.0,0.0,0.0,0.0,0.0,0.0,0.0,0.0,0.0,0.0,0.0,0.0,0.0,0.0,0.0,0.0,0.0,0.0,0.0,0.0,0.0,0.0,0.0,0.0,0.0,0.0,0.0,-5.5254,-5.6562,-5.6387,-5.4648,-5.2519,-5.0466,0.0,0.0,0.0,0.0,0.0,0.0,0.0,0.0,0.0,0.0,0.0,0.0,0.0,0.0,0.0,0.0,0.0,0.0,0.0,0.0,0.0,0.0,0.0,0.0,0.0,0.0,0.0,0.0,0.0,0.0,0.0,0.0,0.0,0.0,0.0,0.0,0.0,0.0,0.0,0.0,0.0,0.0,0.0,0.0,0.0,0.0,0.0,0.0,0.0,0.0,0.0,0.0,0.0,0.0,0.0,0.0,0.0,0.0,0.0,0.0,0.0,0.0,0.0,0.0,0.0,0.0,0.0,0.0,0.0,0.0,0.0,0.0,0.0,0.0,0.0,0.0,0.0,0.0,0.0,0.0,0.0,0.0,0.0,0.0,0.0,0.0,0.0,0.0,0.0,0.0,0.0,0.0,0.0,0.0,0.0,0.0,0.0,0.0,0.0,0.0,0.0,0.0,0.0,0.0,0.0,0.0,0.0,0.0,-5.4258,-5.6367,-5.8066,-5.8125,-5.6445,-5.3496,-5.113,0.0,0.0,0.0,0.0,0.0,0.0,0.0,0.0,0.0,0.0,0.0,0.0,0.0,0.0,0.0,0.0,0.0,0.0,0.0,0.0,0.0,0.0,0.0,0.0,0.0,0.0,0.0,0.0,0.0,0.0,0.0,0.0,0.0,0.0,0.0,0.0,0.0,0.0,0.0,0.0,0.0,0.0,0.0,0.0,0.0,0.0,0.0,0.0,0.0,0.0,0.0,0.0,0.0,0.0,0.0,0.0,0.0,0.0,0.0,0.0,0.0,0.0,0.0,0.0,0.0,0.0,0.0,0.0,0.0,0.0,0.0,0.0,0.0,0.0,0.0,0.0,0.0,0.0,0.0,0.0,0.0,0.0,0.0,0.0,0.0,0.0,0.0,0.0,0.0,0.0,0.0,0.0,0.0,0.0,0.0,0.0,0.0,0.0,0.0,0.0,0.0,0.0,0.0,0.0,0.0,0.0,0.0,0.0,-5.5215,-5.7715,-5.9316,-5.9414,-5.789,-5.4609,-5.197,0.0,0.0,0.0,0.0,0.0,0.0,0.0,0.0,0.0,0.0,0.0,0.0,0.0,0.0,0.0,0.0,0.0,0.0,0.0,0.0,0.0,0.0,0.0,0.0,0.0,0.0,0.0,0.0,0.0,0.0,0.0,0.0,0.0,0.0,0.0,0.0,0.0,0.0,0.0,0.0,0.0,0.0,0.0,0.0,0.0,0.0,0.0,0.0,0.0,0.0,0.0,0.0,0.0,0.0,0.0,0.0,0.0,0.0,0.0,0.0,0.0,0.0,0.0,0.0,0.0,0.0,0.0,0.0,0.0,0.0,0.0,0.0,0.0,0.0,0.0,0.0,0.0,0.0,0.0,0.0,0.0,0.0,0.0,0.0,0.0,0.0,0.0,0.0,0.0,0.0,0.0,0.0,0.0,0.0,0.0,0.0,0.0,0.0,0.0,0.0,0.0,0.0,0.0,0.0,0.0,0.0,0.0,0.0,-5.4922,-5.6816,-5.789,-5.8262,-5.791,-5.5195,-5.2595,0.0,0.0,0.0,0.0,0.0,0.0,0.0,0.0,0.0,0.0,0.0,0.0,0.0,0.0,0.0,0.0,0.0,0.0,0.0,0.0,0.0,0.0,0.0,0.0,0.0,0.0,0.0,0.0,0.0,0.0,0.0,0.0,0.0,0.0,0.0,0.0,0.0,0.0,0.0,0.0,0.0,0.0,0.0,0.0,0.0,0.0,0.0,0.0,-4.6001,0.0,0.0,0.0,0.0,0.0,0.0,0.0,0.0,0.0,0.0,0.0,0.0,0.0,0.0,0.0,0.0,0.0,0.0,0.0,0.0,0.0,0.0,0.0,0.0,0.0,0.0,0.0,0.0,0.0,0.0,0.0,0.0,0.0,0.0,0.0,0.0,0.0,0.0,0.0,0.0,0.0,0.0,0.0,0.0,0.0,0.0,0.0,0.0,0.0,0.0,0.0,0.0,0.0,0.0,0.0,0.0,0.0,0.0,0.0,-5.5449,-5.7168,-5.8066,-5.832,-5.7871,-5.6172,-5.3807,0.0,0.0,0.0,0.0,0.0,0.0,0.0,0.0,0.0,0.0,0.0,0.0,0.0,0.0,0.0,0.0,0.0,0.0,0.0,0.0,0.0,0.0,0.0,0.0,0.0,0.0,0.0,0.0,0.0,0.0,0.0,0.0,0.0,0.0,0.0,0.0,0.0,0.0,0.0,0.0,0.0,0.0,0.0,0.0,0.0,0.0,0.0,0.0,0.0,0.0,0.0,0.0,0.0,0.0,0.0,0.0,0.0,0.0,0.0,0.0,0.0,0.0,0.0,0.0,0.0,0.0,0.0,0.0,0.0,0.0,0.0,0.0,0.0,0.0,0.0,0.0,0.0,0.0,0.0,0.0,0.0,0.0,0.0,0.0,0.0,0.0,0.0,0.0,0.0,0.0,0.0,0.0,0.0,0.0,0.0,0.0,0.0,0.0,0.0,0.0,0.0,0.0,0.0,0.0,0.0,0.0,0.0,-5.3847,-5.5957,-5.7637,-5.8418,-5.8379,-5.7519,-5.6523,-5.451,-5.1317,0.0,0.0,0.0,0.0,0.0,0.0,0.0,0.0,0.0,0.0,0.0,0.0,0.0,0.0,0.0,0.0,0.0,0.0,0.0,0.0,0.0,0.0,0.0,0.0,0.0,0.0,0.0,0.0,0.0,0.0,0.0,0.0,0.0,0.0,0.0,0.0,0.0,0.0,-4.4062,-4.5488,0.0,0.0,0.0,0.0,0.0,0.0,0.0,0.0,-4.6191,0.0,0.0,0.0,0.0,0.0,0.0,0.0,0.0,0.0,0.0,0.0,0.0,0.0,0.0,0.0,0.0,0.0,0.0,0.0,0.0,0.0,0.0,0.0,0.0,0.0,0.0,0.0,0.0,0.0,0.0,0.0,0.0,0.0,0.0,0.0,0.0,0.0,0.0,0.0,0.0,0.0,0.0,0.0,0.0,0.0,0.0,0.0,0.0,0.0,0.0,0.0,0.0,0.0,0.0,0.0,0.0,-5.1356,-5.3254,-5.5075,-5.6756,-5.6953,-5.6621,-5.5723,-5.416,-5.2402,-5.0446,0.0,0.0,0.0,0.0,0.0,0.0,0.0,0.0,0.0,0.0,0.0,0.0,0.0,0.0,0.0,0.0,0.0,0.0,0.0,0.0,0.0,0.0,0.0,0.0,0.0,0.0,0.0,0.0,0.0,0.0,0.0,0.0,0.0,0.0,0.0,0.0,0.0,0.0,0.0,-4.6738,-4.7109,0.0,0.0,0.0,0.0,0.0,0.0,0.0,0.0,-4.6181,0.0,0.0,0.0,0.0,0.0,0.0,0.0,0.0,0.0,0.0,0.0,0.0,0.0,0.0,0.0,0.0,0.0,0.0,0.0,0.0,0.0,0.0,0.0,0.0,0.0,0.0,0.0,0.0,0.0,0.0,0.0,0.0,0.0,0.0,0.0,0.0,0.0,0.0,0.0,0.0,0.0,0.0,0.0,0.0,0.0,0.0,0.0,0.0,0.0,0.0,0.0,0.0,0.0,0.0,0.0,-5.0589,-5.3229,-5.5002,-5.5852,-5.6347,-5.6191,-5.5293,-5.3594,-5.1699,0.0,0.0,0.0,0.0,0.0,0.0,0.0,0.0,0.0,0.0,0.0,0.0,0.0,0.0,0.0,0.0,0.0,0.0,0.0,0.0,0.0,0.0,0.0,0.0,0.0,0.0,0.0,0.0,0.0,0.0,0.0,0.0,0.0,0.0,0.0,0.0,0.0,0.0,0.0,0.0,-4.7051,-4.7617,-4.7637,0.0,0.0,0.0,0.0,0.0,0.0,-4.6268,-4.6087,0.0,0.0,0.0,0.0,0.0,0.0,0.0,0.0,0.0,0.0,0.0,0.0,0.0,0.0,0.0,0.0,0.0,0.0,0.0,0.0,0.0,0.0,0.0,0.0,0.0,0.0,0.0,0.0,0.0,0.0,0.0,0.0,0.0,0.0,0.0,0.0,0.0,0.0,0.0,0.0,0.0,0.0,0.0,0.0,0.0,0.0,0.0,0.0,0.0,0.0,0.0,0.0,0.0,0.0,0.0,-4.9901,-5.2984,-5.4699,-5.4955,-5.5677,-5.5565,-5.4531,-5.3007,-5.0976,0.0,0.0,0.0,0.0,0.0,0.0,0.0,0.0,0.0,0.0,0.0,0.0,0.0,0.0,0.0,0.0,0.0,0.0,0.0,0.0,0.0,0.0,0.0,0.0,0.0,0.0,0.0,0.0,0.0,0.0,0.0,0.0,0.0,0.0,0.0,0.0,0.0,0.0,0.0,0.0,0.0,-4.8046,-4.8534,-4.7578,0.0,0.0,0.0,0.0,-4.6328,-4.6445,0.0,0.0,0.0,0.0,0.0,0.0,0.0,0.0,0.0,0.0,0.0,0.0,0.0,0.0,0.0,0.0,0.0,0.0,0.0,0.0,0.0,0.0,0.0,0.0,0.0,0.0,0.0,0.0,0.0,0.0,0.0,0.0,0.0,0.0,0.0,0.0,0.0,0.0,0.0,0.0,0.0,0.0,0.0,0.0,0.0,0.0,0.0,0.0,0.0,0.0,0.0,0.0,0.0,0.0,0.0,0.0,-4.9779,-5.1784,-5.3202,-5.4001,-5.4218,-5.3535,-5.1881,-5.0891,-4.9214,0.0,0.0,0.0,0.0,0.0,0.0,0.0,0.0,0.0,0.0,0.0,0.0,0.0,0.0,0.0,0.0,0.0,0.0,0.0,0.0,0.0,0.0,0.0,0.0,0.0,0.0,0.0,0.0,0.0,0.0,0.0,0.0,0.0,0.0,0.0,0.0,0.0,0.0,0.0,0.0,0.0,-4.8436,-4.7836,-4.8193,-4.8294,0.0,0.0,-4.7168,-4.6406,-4.6953,0.0,0.0,0.0,0.0,0.0,0.0,0.0,0.0,0.0,0.0,0.0,0.0,0.0,0.0,0.0,0.0,0.0,0.0,0.0,0.0,0.0,0.0,0.0,0.0,0.0,0.0,0.0,0.0,0.0,0.0,0.0,0.0,0.0,0.0,0.0,0.0,0.0,0.0,0.0,0.0,0.0,0.0,0.0,0.0,0.0,0.0,0.0,0.0,0.0,0.0,0.0,0.0,0.0,0.0,0.0,-4.6788,-4.8945,-5.1147,-5.2508,-5.2995,-5.3498,-5.2978,-5.1325,-5.0,-4.8125,0.0,0.0,0.0,0.0,0.0,0.0,0.0,0.0,0.0,0.0,0.0,0.0,0.0,0.0,0.0,0.0,0.0,0.0,0.0,0.0,0.0,0.0,0.0,0.0,0.0,0.0,0.0,0.0,0.0,0.0,0.0,0.0,0.0,0.0,0.0,0.0,0.0,0.0,0.0,0.0,0.0,0.0,-4.8859,-4.9191,0.0,0.0,0.0,-4.7305,-4.6426,0.0,0.0,0.0,0.0,0.0,0.0,0.0,0.0,0.0,0.0,0.0,0.0,0.0,0.0,0.0,0.0,0.0,0.0,0.0,0.0,0.0,0.0,0.0,0.0,0.0,0.0,0.0,0.0,0.0,0.0,0.0,0.0,0.0,0.0,0.0,0.0,0.0,0.0,0.0,0.0,0.0,0.0,0.0,0.0,0.0,0.0,0.0,0.0,0.0,0.0,0.0,0.0,0.0,0.0,0.0,0.0,0.0,-4.7659,-4.997,-5.1201,-5.1347,-5.1983,-5.1643,-5.0248,-4.9029,0.0,0.0,0.0,0.0,0.0,0.0,0.0,0.0,0.0,0.0,0.0,0.0,0.0,0.0,0.0,0.0,0.0,0.0,0.0,0.0,0.0,0.0,0.0,0.0,0.0,0.0,0.0,-3.666,0.0,0.0,0.0,0.0,0.0,0.0,0.0,0.0,0.0,0.0,0.0,0.0,0.0,0.0,-4.8492,-4.9417,-4.9737,-4.9717,0.0,0.0,-4.7596,-4.6716,-4.7147,-4.6697,0.0,0.0,0.0,0.0,0.0,0.0,0.0,0.0,0.0,0.0,0.0,0.0,0.0,0.0,0.0,0.0,0.0,0.0,0.0,0.0,0.0,0.0,0.0,0.0,0.0,0.0,0.0,0.0,0.0,0.0,0.0,0.0,0.0,0.0,0.0,0.0,0.0,0.0,0.0,0.0,0.0,0.0,0.0,0.0,0.0,0.0,0.0,0.0,0.0,0.0,0.0,0.0,0.0,0.0,0.0,-4.5863,-4.7642,-4.864,-4.8672,-4.8768,-4.8429,-4.7591,-4.7527,-4.629,0.0,0.0,0.0,0.0,0.0,0.0,0.0,0.0,0.0,0.0,0.0,0.0,0.0,0.0,0.0,0.0,0.0,0.0,0.0,0.0,0.0,0.0,0.0,0.0,0.0,0.0,0.0,0.0,0.0,0.0,0.0,0.0,0.0,0.0,0.0,0.0,0.0,0.0,0.0,0.0,0.0,-4.7621,-4.8469,-4.9338,-4.9901,0.0,0.0,-4.8431,-4.7551,-4.7474,-4.6638,-4.4106,0.0,0.0,0.0,0.0,0.0,0.0,0.0,0.0,0.0,0.0,0.0,0.0,0.0,0.0,0.0,0.0,0.0,0.0,0.0,0.0,0.0,0.0,0.0,0.0,0.0,0.0,0.0,0.0,0.0,0.0,0.0,0.0,0.0,0.0,0.0,0.0,0.0,0.0,0.0,0.0,0.0,0.0,0.0,0.0,0.0,0.0,0.0,0.0,0.0,0.0,0.0,0.0,0.0,-4.3921,-4.564,-4.7302,-4.8195,-4.8221,-4.8254,-4.7886,-4.7129,-4.7152,-4.5986,0.0,0.0,0.0,0.0,0.0,0.0,0.0,0.0,0.0,0.0,0.0,0.0,0.0,0.0,0.0,0.0,0.0,0.0,0.0,0.0,0.0,0.0,0.0,0.0,0.0,0.0,0.0,0.0,-3.8545,-3.8854,-3.968,0.0,0.0,0.0,0.0,0.0,0.0,0.0,0.0,0.0,0.0,-4.7917,-4.8322,-4.9562,0.0,0.0,-4.9584,-4.8927,-4.7524,-4.7317,-4.6472,-4.3975,-4.2891,0.0,0.0,0.0,0.0,0.0,0.0,0.0,0.0,0.0,0.0,0.0,0.0,0.0,0.0,0.0,0.0,0.0,0.0,0.0,0.0,0.0,0.0,0.0,0.0,0.0,0.0,0.0,0.0,0.0,0.0,0.0,0.0,0.0,0.0,0.0,0.0,0.0,0.0,0.0,0.0,0.0,0.0,0.0,0.0,0.0,0.0,0.0,0.0,0.0,0.0,0.0,0.0,-4.2691,-4.4362,-4.5793,-4.6532,-4.6503,-4.6503,-4.6396,-4.6185,-4.6171,-4.5253,0.0,0.0,0.0,0.0,0.0,0.0,0.0,0.0,0.0,0.0,0.0,0.0,0.0,0.0,0.0,0.0,0.0,0.0,0.0,0.0,0.0,0.0,0.0,0.0,0.0,0.0,0.0,0.0,-3.9184,-3.9404,-3.9968,0.0,0.0,0.0,0.0,0.0,0.0,0.0,0.0,0.0,0.0,-4.7468,-4.7835,-4.8918,-4.9582,-4.9342,-4.914,-4.8515,-4.7038,-4.6581,-4.5686,-4.3463,0.0,0.0,0.0,0.0,0.0,0.0,0.0,0.0,0.0,0.0,0.0,0.0,0.0,0.0,0.0,0.0,0.0,0.0,0.0,0.0,0.0,0.0,0.0,0.0,0.0,0.0,0.0,0.0,0.0,0.0,-3.9773,0.0,0.0,0.0,0.0,0.0,0.0,0.0,0.0,0.0,0.0,0.0,0.0,0.0,0.0,0.0,0.0,0.0,0.0,0.0,0.0,0.0,0.0,-3.9966,-4.1562,-4.2565,-4.2967,-4.2967,-4.2928,-4.3407,-4.423,-4.4333,-4.3995,-4.3192,0.0,0.0,0.0,0.0,0.0,0.0,0.0,0.0,0.0,0.0,0.0,0.0,0.0,0.0,0.0,0.0,0.0,0.0,0.0,0.0,0.0,0.0,0.0,0.0,0.0,0.0,-4.0669,-4.0723,-4.0668,0.0,0.0,0.0,0.0,0.0,0.0,0.0,0.0,0.0,0.0,-4.4566,-4.5958,-4.6791,-4.702,-4.7488,-4.8322,-4.7792,-4.6964,-4.6078,-4.5219,-4.4092,0.0,0.0,0.0,0.0,0.0,0.0,0.0,0.0,0.0,0.0,0.0,0.0,0.0,0.0,0.0,0.0,0.0,0.0,0.0,0.0,0.0,0.0,0.0,0.0,0.0,0.0,0.0,-4.3301,-4.2326,0.0,0.0,0.0,0.0,0.0,0.0,0.0,0.0,0.0,0.0,0.0,-4.1804,-4.1804,0.0,0.0,0.0,0.0,0.0,0.0,0.0,0.0,0.0,0.0,0.0,0.0,-3.9166,-4.0295,-4.1642,-4.2333,-4.2333,-4.2333,-4.256,-4.3003,-4.3665,-4.3481,-4.2295,0.0,0.0,0.0,0.0,0.0,0.0,0.0,0.0,0.0,0.0,0.0,0.0,0.0,0.0,0.0,0.0,0.0,0.0,0.0,0.0,0.0,0.0,0.0,0.0,0.0,-4.0573,0.0,0.0,0.0,0.0,0.0,0.0,0.0,0.0,0.0,0.0,0.0,-4.1904,-4.2192,-4.3662,-4.5056,-4.59,-4.6562,-4.7234,0.0,0.0,0.0,0.0,0.0,0.0,0.0,0.0,0.0,0.0,0.0,0.0,0.0,0.0,-4.2281,-4.2403,-4.1256,-4.0262,-4.0262,0.0,0.0,0.0,0.0,0.0,0.0,0.0,0.0,0.0,0.0,0.0,0.0,0.0,0.0,-4.3915,0.0,-4.2894,0.0,0.0,0.0,0.0,0.0,0.0,0.0,0.0,-4.3033,-4.2996,-4.2736,-4.2755,-4.2588,0.0,-4.2325,-4.1835,0.0,0.0,0.0,0.0,0.0,0.0,0.0,0.0,-3.8402,-3.9543,-4.0597,-4.1124,-4.1124,-4.1124,-4.1355,-4.1827,-4.2555,-4.2421,-4.1294,-3.9419,-3.7903,0.0,0.0,0.0,0.0,0.0,0.0,0.0,0.0,0.0,0.0,0.0,0.0,0.0,0.0,0.0,0.0,0.0,0.0,0.0,0.0,0.0,0.0,0.0,-3.992,0.0,0.0,0.0,0.0,0.0,0.0,0.0,0.0,0.0,-4.0375,-4.1398,-4.2099,-4.2099,-4.3586,-4.4853,-4.5419,0.0,0.0,0.0,0.0,0.0,0.0,0.0,-4.2595,-4.1551,-4.1431,-4.1512,-4.1646,-4.2131,-4.2592,-4.2903,0.0,0.0,-4.3532,-4.2415,-4.1459,-4.1459,-4.0289,-3.9316,-3.9297,-3.9294,-3.9297,0.0,0.0,0.0,0.0,0.0,0.0,0.0,0.0,-4.471,-4.4306,0.0,-4.2746,0.0,0.0,0.0,0.0,0.0,0.0,0.0,0.0,-4.5388,-4.5425,-4.4673,-4.4563,-4.4232,-4.3516,-4.3406,-4.2581,-4.1093,-4.0659,0.0,0.0,0.0,0.0,0.0,0.0,-3.7611,-3.9173,-3.9285,-3.9304,-3.9322,-3.9322,-3.9775,-4.0754,-4.1025,-4.0866,-4.0244,-3.9431,-3.8248,-3.6731,-3.661,0.0,0.0,0.0,0.0,0.0,0.0,0.0,0.0,0.0,0.0,0.0,0.0,0.0,0.0,0.0,0.0,0.0,0.0,0.0,0.0,-3.9238,0.0,0.0,0.0,0.0,0.0,0.0,0.0,0.0,0.0,0.0,-4.012,-4.158,-4.264,-4.2659,0.0,0.0,0.0,0.0,-4.5248,-4.5305,-4.5267,-4.4637,-4.2965,-4.2659,-4.2126,-4.0628,0.0,0.0,-4.087,-4.0912,-4.1241,-4.1989,-4.2216,-4.2405,-4.3248,-4.2687,-4.2073,-4.2034,-4.1318,-4.0813,-4.0774,-4.0642,-4.068,-4.8677,0.0,0.0,0.0,0.0,-4.514,-4.512,-4.514,-4.5122,-4.4994,-4.474,-4.394,0.0,0.0,0.0,0.0,0.0,0.0,-4.3304,-4.4267,-4.4504,-4.4485,-4.4249,-4.3668,-4.3305,-4.3069,-4.2487,-4.1686,-4.0687,-3.9982,-3.8839,-3.7317,0.0,0.0,0.0,0.0,-3.7534,-3.8028,-3.8586,-3.8881,-3.8881,-3.8881,-3.9373,-4.0488,-4.0115,-4.0179,-4.0658,-3.9283,-3.8279,-3.7837,-3.6719,0.0,0.0,0.0,0.0,0.0,0.0,0.0,0.0,0.0,0.0,0.0,0.0,0.0,0.0,0.0,0.0,0.0,0.0,0.0,-3.8082,-3.8142,-3.7816,0.0,0.0,0.0,0.0,0.0,0.0,0.0,0.0,0.0,-3.9556,-4.0597,-4.154,0.0,0.0,-4.3168,-4.3786,-4.3874,-4.4082,-4.4719,0.0,0.0,0.0,-4.1741,-4.1029,-4.0114,-4.0692,-4.1539,-4.2298,-4.2437,-4.2533,-4.2753,-4.283,-4.2903,-4.3081,-4.2588,-4.211,-4.2024,-4.1397,-4.0835,-4.0796,-4.0796,-4.0796,-4.9081,-4.817,-4.7281,-4.6631,-4.6179,-4.6161,-4.6358,-4.6631,-4.6327,-4.6201,-4.6129,-4.5039,-4.4086,-4.3279,-4.2165,0.0,0.0,0.0,-4.364,-4.4109,-4.4432,-4.4273,-4.3645,-4.318,-4.2767,-4.2424,-4.1672,-4.0881,-4.009,-3.9319,-3.8401,-3.743,0.0,0.0,-3.6571,-3.7025,-3.7408,-3.7752,-3.8193,-3.8449,-3.8467,-3.8517,-3.8888,-3.9589,-3.9277,-3.9392,-4.0014,-3.907,-3.834,-3.8004,-3.7068,-3.6245,0.0,0.0,0.0,0.0,0.0,0.0,0.0,0.0,0.0,0.0,0.0,-3.5117,-3.5136,0.0,0.0,0.0,-3.6079,-3.6814,-3.6958,-3.7576,0.0,0.0,0.0,0.0,0.0,0.0,0.0,-3.73,-3.8338,-3.9189,-3.9505,-4.0072,-4.0683,-4.136,-4.1711,-4.2119,-4.2594,0.0,-4.2779,-4.3313,-4.2929,-4.231,-4.1548,-4.1035,-4.0502,-3.9883,-4.042,-4.116,-4.1796,-4.1937,-4.1937,-4.1956,-4.1937,-4.1956,-4.1937,-4.1617,-4.1503,-4.1867,-4.1281,-4.0694,-4.0675,-4.0681,-4.0675,-4.9191,-4.9097,-4.8057,-4.76,-4.7527,-4.7544,-4.7904,-4.8501,-4.7812,-4.7519,-4.7342,-4.5823,-4.47,-4.3883,-4.2405,0.0,-4.2908,-4.3618,-4.3981,-4.4079,-4.4761,-4.4301,-4.2957,-4.2851,-4.2404,-4.1619,-4.0845,-4.0085,-3.9305,-3.8565,-3.7823,-3.7116,-3.6916,-3.6866,-3.6916,-3.6916,-3.7294,-3.7998,-3.8016,-3.7998,-3.796,-3.7991,-3.8123,-3.8287,-3.8345,-3.8469,-3.8659,-3.8659,-3.8295,-3.7544,-3.7433,-3.6701,-3.5285,0.0,0.0,0.0,0.0,0.0,0.0,0.0,0.0,0.0,0.0,0.0,0.0,0.0,0.0,0.0,-3.6125,0.0,-3.6037,-3.7355,0.0,0.0,0.0,-3.7032,-3.6897,-3.7473,-3.7819,-3.7688,0.0,0.0,-3.9682,0.0,-3.9912,-4.0347,-4.1176,-4.1722,-4.1618,-4.1512,-4.1393,-4.149,-4.1416,-4.1167,-4.0504,-4.036,-4.0212,-3.979,-3.9859,-4.0045,-4.0205,-4.0244,-4.0187,-4.0263,-4.0168,-4.0206,-4.0187,-4.0234,-4.0444,-4.1398,-4.0946,-4.0373,-4.0342,-4.0235,-4.0146,-4.9065,-4.9014,-4.8741,-4.8333,-4.7875,-4.7858,-4.7675,-4.7317,-4.7142,-4.6749,-4.6162,-4.5194,-4.4289,-4.3515,-4.3143,-4.3073,-4.3288,-4.3504,-4.3615,-4.3622,-4.3249,-4.2818,-4.2358,-4.165,-4.0845,-4.0014,-3.9145,-3.8323,-3.7581,-3.6835,-3.6404,-3.6215,-3.6167,-3.6466,-3.7093,-3.7129,-3.7218,-3.7414,-3.7414,-3.7111,-3.6506,-3.5971,-3.6005,-3.6577,-3.6612,-3.6916,-3.756,-3.7578,-3.7488,-3.7274,-3.6648,-3.6094,-3.572,-3.476,0.0,0.0,0.0,0.0,0.0,0.0,0.0,0.0,0.0,-3.4458,-3.4476,0.0,-3.4458,0.0,-3.5925,-3.6774,-3.6613,-3.7511,0.0,0.0,-3.6863,-3.6814,-3.6689,-3.731,-3.7692,-3.7492,-3.8047,-3.8522,-3.866,-3.8594,-3.8574,-3.8723,-4.0189,-4.1201,-4.1038,-4.0749,-4.0611,-4.0629,-4.0556,-4.0354,-3.977,-3.9482,-3.9273,-3.9274,-3.9396,-3.9592,-3.969,-3.9724,-3.9724,-3.9754,-3.9742,-3.9742,-3.9716,-3.9742,-3.9802,-4.0049,-3.9738,-3.9438,-3.9424,-3.8977,-3.8554,-4.8956,-4.9001,-4.8925,-4.8459,-4.7746,-4.7894,-4.7711,-4.7316,-4.6646,-4.6141,-4.5694,-4.4955,-4.4345,-4.395,-4.3932,-4.3761,-4.3391,-4.3434,-4.3116,-4.2446,-4.2041,-4.1606,-4.1049,-4.0059,-3.9226,-3.8555,-3.7235,-3.6379,-3.5947,-3.5224,-3.4891,-3.4868,-3.4891,-3.4968,-3.5172,-3.5806,-3.6142,-3.6123,-3.5813,-3.543,-3.4993,-3.4611,-3.4685,-3.5124,-3.5179,-3.5428,-3.594,-3.5957,-3.5957,-3.5922,-3.548,-3.5057,-3.4707,-3.4076,-3.3325,0.0,0.0,0.0,0.0,0.0,0.0,0.0,0.0,0.0,0.0,0.0,-3.4272,-3.4661,-3.6144,-3.7108,-3.7113,-3.7854,-3.8169,-3.7692,-3.7655,-3.7627,-3.7544,-3.7903,-3.8059,-3.7866,-3.8043,-3.8117,-3.8,-3.7826,-3.7703,-3.7703,-3.8652,-3.937,-3.9406,-3.9193,-3.9012,-3.8957,-3.8689,-3.8348,-3.7916,-3.7698,-3.7625,-3.7734,-3.7904,-3.8082,-3.8265,-3.8338,-3.8368,-3.8385,-3.8385,-3.8385,-3.8404,-3.8404,-3.8385,-3.8326,-3.7988,-3.7995,-3.8753,-3.838,-3.7878,-4.8815,-4.897,-4.8731,-4.8123,-4.7314,-4.7409,-4.7511,-4.7487,-4.6203,-4.5607,-4.5517,-4.4886,-4.4536,-4.4434,-4.4406,-4.3956,-4.3175,-4.3057,-4.2331,-4.1116,-4.0998,-4.0404,-3.9389,-3.8375,-3.7603,-3.7021,-3.538,-3.4553,-3.4441,-3.3824,-3.3479,-3.3479,-3.3399,-3.3074,-3.2558,-3.3611,-3.4232,-3.4381,-3.3679,-3.3291,-3.3291,-3.3339,-3.3514,-3.3736,-3.3854,-3.4023,-3.4276,-3.4276,-3.4258,-3.4276,-3.4276,-3.3946,-3.3269,-3.3313,-3.2827,0.0,-3.1633,0.0,0.0,0.0,0.0,0.0,0.0,0.0,0.0,-3.3753,-3.4087,-3.4893,-3.6278,-3.7158,-3.7268,-3.7894,-3.8334,-3.8315,-3.8315,-3.8334,-3.8334,-3.8315,-3.8253,-3.8041,-3.7724,-3.7467,-3.7202,-3.7072,-3.6974,-3.6958,-3.7135,-3.7407,-3.7485,-3.7446,-3.7297,-3.7007,-3.6394,-3.6096,-3.5915,-3.582,-3.5875,-3.5969,-3.6175,-3.6251,-3.6581,-3.6692,-3.6751,-3.6845,-3.6914,-3.6889,-3.6814,-3.6852,-3.687,-3.6926,-3.637,-3.6418,-3.7794,-3.7753,-3.751,-4.8562,-4.8903,-4.8034,-4.7306,-4.666,-4.5599,-4.5363,-4.5706,-4.5509,-4.5233,-4.479,-4.4666,-4.4204,-4.3474,-4.3362,-4.2847,-4.1988,-4.1294,-4.0839,-4.054,-3.9881,-3.8997,-3.7914,-3.7498,-3.6421,-3.494,-3.4317,-3.376,-3.3164,-3.2996,-3.2933,-3.2944,-3.2411,-3.2081,-3.1919,0.0,0.0,0.0,-3.1469,-3.1095,-3.1079,-3.0751,-3.1011,-3.1874,-3.2135,0.0,-3.3543,-3.3577,-3.3598,-3.3577,-3.3577,0.0,0.0,0.0,0.0,0.0,0.0,0.0,0.0,0.0,0.0,0.0,-3.1504,-3.2112,-3.3328,-3.3481,-3.3822,-3.4603,-3.4981,-3.5418,-3.6072,-3.6272,-3.6347,-3.6347,-3.6347,-3.6363,-3.6347,-3.6363,-3.625,-3.5989,-3.577,-3.5527,-3.5366,-3.5564,-3.5815,-3.5883,-3.6334,-3.6641,-3.656,-3.6565,-3.6391,-3.5819,-3.519,-3.4887,-3.5029,-3.5008,-3.497,-3.5163,-3.5299,-3.5475,-3.5693,-3.5914,-3.612,-3.6288,-3.6426,-3.6385,-3.6385,-3.6408,-3.6325,-3.639,-3.5798,-3.5553,-3.634,-3.6018,-3.5557,-4.7784,0.0,-4.7103,-4.6092,0.0,-4.417,-4.384,-4.3805,-4.438,-4.4623,-4.4598,-4.4598,-4.4063,-4.3054,-4.2445,-4.1427,-4.0128,-3.9127,-3.8662,-3.8601,-3.8199,-3.7632,-3.6933,-3.6218,-3.5156,-3.3761,-3.3047,-3.2527,-3.2176,-3.216,-3.1992,-3.1683,-3.1331,-3.0842,-3.0199,-2.9215,-2.9208,-3.0157,-2.9808,-2.9611,-2.9602,-2.9507,-2.9778,-3.0495,0.0,0.0,0.0,0.0,0.0,0.0,0.0,0.0,0.0,0.0,0.0,-3.1357,-3.1132,-3.0919,-3.0751,-3.0768,-3.1011,-3.1463,-3.1584,-3.2028,-3.2908,-3.3331,-3.3707,-3.4116,-3.4526,-3.4921,-3.5298,-3.5352,-3.5352,-3.5352,-3.5352,-3.5352,-3.5352,-3.5352,-3.527,-3.5065,-3.48,-3.4562,-3.4335,-3.4703,-3.4988,-3.5057,-3.5633,-3.5917,-3.5544,-3.5589,-3.5352,-3.4268,-3.3904,-3.3643,-3.3494,-3.3459,-3.3477,-3.3495,-3.3634,-3.3857,-3.4139,-3.4333,-3.454,-3.4801,-3.4907,-3.4936,-3.496,-3.4989,-3.5013,-3.5037,-3.4806,-3.4678,-3.4992,-3.4862,-3.4763,-4.663,-4.6535,-4.5783,-4.4558,-4.3102,-4.2875,-4.2508,-4.2173,0.0,0.0,0.0,-4.4277,-4.3636,-4.2527,-4.1435,-3.9996,-3.8374,-3.7335,-3.6866,-3.6825,-3.6697,-3.6432,-3.6006,-3.4945,-3.3933,-3.2928,-3.1981,-3.1496,-3.1496,-3.1496,-3.1152,-3.0552,-3.0387,-2.9672,-2.842,-2.7808,-2.782,-2.8415,-2.8472,-2.8511,-2.8519,-2.8772,-2.9067,-2.9393,-2.9661,-2.9968,-3.03,-3.0305,-3.0305,-3.0305,-3.0305,-3.0321,-3.0305,-3.041,-3.0518,-3.0636,-3.0734,-3.0871,-3.1033,-3.1135,-3.1287,-3.149,-3.1732,-3.2003,-3.2384,-3.3017,-3.3404,-3.3404,-3.4005,-3.4376,-3.4394,-3.4394,-3.4394,-3.4376,-3.4394,-3.4376,-3.4376,-3.4394,-3.4253,-3.4178,-3.3849,-3.3652,-3.3439,-3.3788,-3.4083,-3.4163,-3.4624,-3.4857,-3.4242,-3.4244,-3.4059,-3.3031,-3.2696,-3.2452,-3.2047,-3.1928,-3.1877,-3.1998,-3.2107,-3.2249,-3.2504,-3.2718,-3.2943,-3.3304,-3.3316,-3.3473,-3.3538,-3.3729,-3.3684,-3.378,-3.3847,-3.3908,-3.4036,-3.4172,-3.4357,-4.5069,-4.5311,-4.3769,-4.2676,-4.1978,-4.1395,-4.1203,-4.1478,-4.2939,-4.3684,-4.3693,-4.3061,-4.2134,-4.0974,-3.9966,-3.8782,-3.7549,-3.7111,-3.6884,0.0,-3.6319,-3.558,-3.4759,-3.3831,-3.2913,-3.2036,-3.1642,-3.1496,-3.1496,-3.1496,-3.1152,-3.0507,-2.9968,-2.8934,-2.7521,-2.7288,-2.7295,-2.7423,-2.7635,-2.776,-2.776,-2.8014,-2.8301,-2.8654,-2.8928,-2.9212,-2.9556,-2.9556,-2.954,-2.954,-2.9556,-2.954,-2.954,-2.9585,-2.9585,-2.9613,-2.9635,-2.9635,-2.9679,-2.9892,-3.0272,-3.0797,-3.1134,-3.1542,-3.2021,-3.2179,-3.2231,-3.2249,-3.2388,-3.2406,-3.2423,-3.2476,-3.2511,-3.2441,-3.2441,-3.2406,-3.2475,-3.2475,-3.2456,-3.2344,-3.2074,-3.1956,-3.192,-3.2306,-3.2692,-3.2605,-3.3156,-3.3131,-3.2433,-3.2391,-3.2571,-3.232,-3.1831,-3.1441,-3.1385,-3.131,-3.1368,-3.131,-3.1502,-3.1728,-3.195,-3.2162,-3.2368,-3.2584,-3.2797,-3.2986,-3.3199,-3.3397,-3.3577,-3.3726,-3.3793,-3.3802,-3.3805,-3.3766,-3.3925,-4.3787,-4.3419,-4.246,-4.1612,-4.0893,-4.0632,-4.0615,-4.0844,-4.139,-4.1861,-4.2136,-4.1827,-4.0869,-3.9461,-3.8384,-3.7301,-3.618,-3.5416,-3.5049,-3.5049,-3.4744,-3.4181,-3.3424,-3.2987,-3.2431,-3.1656,-3.1539,-3.1496,-3.1496,-3.1496,-3.0987,-2.9998,-2.8863,-2.7782,-2.6884,-2.6814,-2.68,-2.6814,-2.7269,-2.7539,-2.76,-2.7806,-2.8039,-2.8326,-2.8534,-2.874,-2.8996,-2.9035,-2.9019,-2.9019,-2.9019,-2.9019,-2.9019,-2.9019,-2.9019,-2.9019,-2.9019,-2.9019,-2.9019,-2.9438,-2.9859,-3.0284,-3.0634,-3.0918,-3.1164,-3.1413,-3.1562,-3.1562,-3.1581,-3.1562,-3.1562,-3.1562,-3.1562,-3.1579,-3.1562,-3.1562,-3.1579,-3.1562,-3.1524,-3.1481,-3.1426,-3.1349,-3.1271,-3.1856,-3.2232,-3.2097,-3.2124,-3.1742,-3.1093,-3.0953,-3.1133,-3.1426,-3.1274,-3.1182,-3.1171,-3.119,-3.119,-3.119,-3.1291,-3.1466,-3.164,-3.1805,-3.2003,-3.2196,-3.2402,-3.2619,-3.2876,-3.3099,-3.3313,-3.3538,-3.3619,-3.3538,-3.3177,-3.2787,-3.2746,-4.2458,-4.167,-4.1249,-4.0685,-4.0021,-4.0021,-4.0019,-3.9994,-3.9745,-3.9759,-3.9977,-4.0197,-3.9548,-3.8229,-3.7141,-3.6168,-3.5278,-3.4375,-3.3888,-3.3724,-3.3559,-3.3155,-3.2527,-3.2348,-3.1989,-3.1482,-3.1409,-3.138,-3.1336,-3.1144,-3.043,-2.9139,-2.7689,-2.6736,-2.631,-2.6256,-2.6256,-2.631,-2.6829,-2.7269,-2.76,-2.77,-2.785,-2.8048,-2.8162,-2.8293,-2.8439,-2.8448,-2.8448,-2.8463,-2.8463,-2.8463,-2.8463,-2.8448,-2.8463,-2.8448,-2.8448,-2.8472,-2.8559,-2.9051,-2.9461,-2.9728,-3.0054,-3.0241,-3.0284,-3.0593,-3.0878,-3.1012,-3.1035,-3.1035,-3.1052,-3.1035,-3.1052,-3.1052,-3.1052,-3.1035,-3.1035,-3.1052,-3.1052,-3.1052,-3.1052,-3.1052,-3.1153,-3.154,-3.1704,-3.1364,-3.0969,-3.0513,-3.0142,-2.9794,-2.9951,-3.0426,-3.0794,-3.1012,-3.1151,-3.119,-3.119,-3.119,-3.1232,-3.1332,-3.1485,-3.1596,-3.169,-3.1787,-3.1967,-3.2179,-3.2436,-3.2651,-3.2844,-3.3081,-3.3072,-3.2824,-3.2238,-3.185,-3.1531,-4.0664,-4.0439,-3.9914,-3.9592,-3.9496,-3.9481,-3.9172,-3.8667,-3.8567,-3.791,-3.7213,-3.7886,-3.8044,-3.7528,-3.6628,-3.6009,-3.5646,-3.5407,-3.4936,-3.4339,-3.3769,-3.314,-3.2437,-3.1884,-3.1497,-3.1322,-3.1117,-3.0955,-3.0748,-3.0061,-2.9128,-2.7893,-2.6763,-2.6028,-2.5701,-2.5563,-2.5563,-2.5687,-2.6028,-2.6671,-2.7534,-2.76,-2.7625,-2.765,-2.7675,-2.77,-2.771,-2.771,-2.7685,-2.771,-2.771,-2.7725,-2.7725,-2.771,-2.771,-2.771,-2.771,-2.78,-2.8063,-2.8422,-2.8724,-2.8997,-2.9332,-2.9518,-2.9518,-2.9579,-2.9865,-3.0347,-3.0531,-3.0568,-3.0568,-3.0551,-3.0531,-3.0531,-3.0531,-3.0568,-3.0551,-3.0568,-3.0568,-3.0589,-3.0531,-3.0551,-3.0564,-3.0663,-3.0453,-3.002,-2.9678,-2.9295,-2.9014,-2.9069,-2.9257,-2.9705,-3.0241,-3.0773,-3.1052,-3.119,-3.1151,-3.1171,-3.119,-3.1249,-3.1288,-3.1288,-3.1288,-3.1428,-3.1502,-3.1693,-3.1809,-3.2039,-3.2246,-3.2193,-3.2043,-3.1703,-3.1365,-3.1177,-3.1059,-4.0172,-3.9798,-3.9529,-3.9388,-3.9388,-3.9388,-3.902,-3.8377,-3.7973,-3.73,-3.6558,-3.6533,-3.6447,-3.6304,-3.595,-3.5701,-3.5587,-3.5522,-3.4921,-3.3933,-3.3619,-3.2946,-3.1944,-3.166,-3.138,-3.1087,-3.0777,-3.0276,-2.9561,-2.8367,-2.7414,-2.6891,-2.5883,-2.5203,-2.4851,-2.4766,-2.4794,-2.4851,-2.5133,-2.5618,-2.6269,-2.6826,-2.7074,-2.7074,-2.7074,-2.7074,-2.706,-2.706,-2.7074,-2.7074,-2.7074,-2.706,-2.7074,-2.7074,-2.7074,-2.7074,-2.7269,-2.7488,-2.7765,-2.8122,-2.8414,-2.8597,-2.8842,-2.8996,-2.8973,-2.8973,-2.9134,-2.9384,-2.9689,-2.9843,-2.9843,-2.9859,-2.9859,-2.9843,-2.9859,-2.9859,-2.9843,-2.9843,-2.9843,-2.9843,-2.9859,-2.9843,-2.9837,-2.975,-2.9483,-2.9028,-2.8716,-2.8455,-2.8165,-2.8277,-2.859,-2.8912,-2.9355,-2.9946,-3.0589,-3.0855,-3.0915,-3.1012,-3.1072,-3.1112,-3.1207,-3.119,-3.119,-3.119,-3.124,-3.1191,-3.1004,-3.1113,-3.1255,-3.1073,-3.0606,-3.0183,-3.0156,-2.9924,-2.9604,-3.9858,-3.9418,-3.9388,-3.9388,-3.9388,-3.9388,-3.8916,-3.8108,-3.7599,-3.6971,-3.6207,-3.5714,-3.5489,-3.5489,-3.5489,-3.5489,-3.5474,-3.531,-3.459,-3.3498,-3.3213,-3.2467,-3.1367,-3.1263,-3.1043,-3.0658,-3.0222,-2.9414,-2.8232,-2.6891,-2.6054,-2.5778,-2.5084,-2.4525,-2.4192,-2.4118,-2.4118,-2.4205,-2.4394,-2.4738,-2.5175,-2.5755,-2.6176,-2.631,-2.6351,-2.6351,-2.6351,-2.6336,-2.6336,-2.6351,-2.6336,-2.6336,-2.6351,-2.6336,-2.639,-2.6469,-2.68,-2.71,-2.7367,-2.78,-2.8088,-2.8162,-2.831,-2.8415,-2.8415,-2.8415,-2.8415,-2.8424,-2.8717,-2.895,-2.9203,-2.9203,-2.9203,-2.9203,-2.9203,-2.9203,-2.9241,-2.9203,-2.9225,-2.9203,-2.9225,-2.9203,-2.918,-2.9051,-2.8826,-2.8503,-2.8229,-2.7989,-2.7725,-2.7815,-2.8073,-2.8374,-2.8622,-2.9159,-3.0006,-3.0326,-3.051,-3.0712,-3.0797,-3.0975,-3.1151,-3.119,-3.119,-3.1173,-3.1116,-3.0868,-3.054,-3.0448,-3.004,-2.9536,-2.9183,-2.8983,-2.8934,-2.8627,-2.8514,-3.9439,-3.9388,-3.9388,-3.9388,-3.9388,-3.9388,-3.8661,-3.7509,-3.7385,-3.6716,-3.5684,-3.5519,-3.5489,-3.5489,-3.5489,-3.5489,-3.54,-3.4846,-3.411,-3.3224,-3.2432,-3.1646,-3.085,-3.0702,-3.0342,-2.9825,-2.9484,-2.8326,-2.6541,-2.5785,-2.521,-2.4589,-2.4263,-2.4031,-2.3813,-2.3691,-2.3691,-2.38,-2.4002,-2.4234,-2.4481,-2.4582,-2.4894,-2.5342,-2.5453,-2.5481,-2.5453,-2.5453,-2.5453,-2.5467,-2.5481,-2.5453,-2.5453,-2.5481,-2.5577,-2.5836,-2.6269,-2.6628,-2.6941,-2.7342,-2.761,-2.7625,-2.7635,-2.766,-2.766,-2.7645,-2.7685,-2.7675,-2.776,-2.8042,-2.8567,-2.867,-2.8709,-2.8709,-2.874,-2.8756,-2.8709,-2.8763,-2.8709,-2.8709,-2.8685,-2.8685,-2.8685,-2.8558,-2.8365,-2.8171,-2.7989,-2.7765,-2.7675,-2.77,-2.79,-2.8113,-2.8356,-2.8653,-2.9287,-2.9689,-2.9989,-3.0225,-3.0493,-3.0773,-3.1015,-3.119,-3.1171,-3.1002,-3.0615,-3.0277,-3.0042,-2.9556,-2.8901,-2.8493,-2.8435,-2.8277,-2.8107,-2.7956,-2.7926,-3.9388,-3.9388,-3.9388,-3.9388,-3.9388,-3.9388,-3.8646,-3.7434,-3.7404,-3.6701,-3.5639,-3.5489,-3.5489,-3.5489,-3.5489,-3.5265,-3.4878,-3.4623,-3.3764,-3.2521,-3.1771,-3.1027,-3.0189,-2.9763,-2.9362,-2.8953,-2.8473,-2.7239,-2.5434,-2.4415,-2.3838,-2.3641,-2.3514,-2.3424,-2.3352,-2.3305,-2.3318,-2.3365,-2.3424,-2.3514,-2.3619,-2.3603,-2.3738,-2.393,-2.4538,-2.4823,-2.4823,-2.4809,-2.4823,-2.4809,-2.4823,-2.4823,-2.4809,-2.4809,-2.4951,-2.5273,-2.5687,-2.6068,-2.6377,-2.6774,-2.7023,-2.7008,-2.7008,-2.7008,-2.7008,-2.7008,-2.7063,-2.7207,-2.7295,-2.7549,-2.7775,-2.7944,-2.7993,-2.8039,-2.8373,-2.8459,-2.8206,-2.8358,-2.847,-2.8115,-2.7993,-2.7993,-2.8018,-2.7949,-2.7875,-2.784,-2.7725,-2.7675,-2.7625,-2.765,-2.7725,-2.779,-2.7865,-2.7974,-2.8149,-2.8919,-2.9461,-2.9772,-3.007,-3.0347,-3.0597,-3.071,-3.0714,-3.0331,-2.9933,-2.9391,-2.9038,-2.8316,-2.7691,-2.7641,-2.7568,-2.7647,-2.7392,-2.7474,-2.7565,-3.9388,-3.9388,-3.9388,-3.9388,-3.9388,-3.9388,-3.8661,-3.7464,-3.7389,-3.6686,-3.5669,-3.5489,-3.5489,-3.5489,-3.5489,-3.5051,-3.4314,-3.409,-3.3262,-3.1988,-3.1013,-3.0177,-2.9415,-2.8903,-2.8519,-2.8122,-2.744,-2.6302,-2.4885,-2.3847,-2.3308,-2.312,-2.3095,-2.3095,-2.3095,-2.3095,-2.3095,-2.3095,-2.3095,-2.3108,-2.3095,-2.3095,-2.3095,-2.3185,-2.3738,-2.4031,-2.4047,-2.406,-2.4047,-2.4047,-2.4047,-2.4047,-2.4047,-2.406,-2.4205,-2.4536,-2.4936,-2.5315,-2.5646,-2.6041,-2.6283,-2.6297,-2.6297,-2.6283,-2.6297,-2.6283,-2.6377,-2.6578,-2.6855,-2.7023,-2.7229,-2.7458,-2.7585,-2.7645,-2.8019,-2.8109,-2.769,-2.8004,-2.8045,-2.7755,-2.7635,-2.761,-2.7585,-2.7585,-2.7625,-2.7585,-2.7585,-2.7585,-2.7585,-2.7585,-2.7585,-2.7585,-2.7625,-2.765,-2.7785,-2.831,-2.8795,-2.912,-2.9477,-2.9793,-3.0026,-3.0152,-3.0026,-2.9636,-2.9109,-2.8521,-2.7838,-2.7097,-2.686,-2.6843,-2.696,-2.7127,-2.707,-2.7135,-2.7213,-3.9388,-3.9352,-3.9388,-3.9271,-3.9211,-3.9175,-3.8531,-3.7361,-3.7276,-3.6477,-3.5401,-3.5424,-3.5359,-3.5424,-3.5359,-3.4857,-3.3927,-3.3304,-3.2594,-3.1732,-3.0164,-2.9077,-2.8468,-2.8124,-2.7809,-2.7451,-2.6422,-2.5582,-2.4883,-2.4243,-2.3678,-2.3221,-2.312,-2.3095,-2.3095,-2.3095,-2.3095,-2.3095,-2.3095,-2.3095,-2.3095,-2.3095,-2.3095,-2.3095,-2.3185,-2.3215,-2.3185,-2.3185,-2.3215,-2.3185,-2.3185,-2.3125,-2.3215,-2.3215,-2.3288,-2.3704,-2.4102,-2.4436,-2.4738,-2.5175,-2.5425,-2.5425,-2.5398,-2.5453,-2.5453,-2.5425,-2.555,-2.585,-2.6215,-2.659,-2.6864,-2.7255,-2.7534,-2.76,-2.7764,-2.7794,-2.7645,-2.76,-2.76,-2.7585,-2.7585,-2.7585,-2.7585,-2.7585,-2.7585,-2.7585,-2.7585,-2.7585,-2.7585,-2.7585,-2.7585,-2.7585,-2.7585,-2.7585,-2.765,-2.775,-2.8067,-2.8407,-2.8787,-2.9113,-2.9326,-2.9441,-2.9251,-2.8882,-2.8068,-2.7485,-2.7278,-2.6657,-2.6708,-2.6725,-2.6742,-2.6775,-2.6858,-2.6924,-2.6858,-3.8907,-3.8775,-3.8612,-3.8326,-3.7981,-3.7967,-3.7219,-3.6089,-3.603,-3.5546,-3.4852,-3.475,-3.4765,-3.475,-3.475,-3.4336,-3.3589,-3.2725,-3.1782,-3.0681,-2.9424,-2.8359,-2.7683,-2.7162,-2.693,-2.6693,-2.6042,-2.5602,-2.5209,-2.4456,-2.3891,-2.3703,-2.3296,-2.3108,-2.3095,-2.3095,-2.3095,-2.3095,-2.3095,-2.3095,-2.3095,-2.3095,-2.3095,-2.3095,-2.3095,-2.3095,-2.3095,-2.3095,-2.3095,-2.3095,-2.3095,-2.3095,-2.3095,-2.3095,-2.3228,-2.348,-2.3767,-2.4047,-2.4292,-2.4567,-2.4766,-2.4794,-2.4753,-2.4781,-2.4794,-2.4766,-2.4921,-2.5231,-2.5632,-2.6014,-2.6324,-2.6736,-2.7159,-2.7564,-2.8004,-2.7983,-2.7649,-2.76,-2.7585,-2.7585,-2.7585,-2.7585,-2.7585,-2.7585,-2.7585,-2.7585,-2.7585,-2.7585,-2.7585,-2.7585,-2.7585,-2.7585,-2.7585,-2.7585,-2.7625,-2.765,-2.781,-2.8042,-2.8301,-2.8518,-2.8709,-2.867,-2.8467,-2.7976,-2.7164,-2.6702,-2.6515,-2.6453,-2.6504,-2.6623,-2.6691,-2.6691,-2.6708,-2.6708,-2.6708,-3.8285,-3.7985,-3.7615,-3.7144,-3.6602,-3.6573,-3.5911,-3.4839,-3.4725,-3.4347,-3.3827,-3.3728,-3.3728,-3.3728,-3.3728,-3.3451,-3.2939,-3.2079,-3.1019,-2.9781,-2.8856,-2.791,-2.7071,-2.6679,-2.6487,-2.6436,-2.6122,-2.5799,-2.5573,-2.4946,-2.4393,-2.3991,-2.3627,-2.3296,-2.3133,-2.306,-2.3017,-2.2957,-2.2878,-2.2805,-2.2775,-2.2805,-2.2866,-2.2939,-2.2987,-2.3047,-2.3108,-2.3095,-2.3095,-2.3095,-2.3095,-2.3095,-2.3095,-2.3095,-2.3138,-2.3288,-2.3424,-2.3607,-2.3721,-2.3855,-2.3972,-2.3972,-2.3972,-2.3959,-2.3998,-2.4103,-2.4446,-2.4781,-2.5376,-2.5832,-2.6187,-2.6568,-2.6982,-2.7321,-2.7621,-2.7754,-2.7482,-2.7514,-2.7564,-2.7575,-2.7585,-2.7585,-2.7585,-2.7585,-2.7585,-2.7585,-2.7585,-2.7585,-2.7585,-2.7585,-2.7585,-2.7585,-2.7585,-2.7585,-2.7585,-2.7585,-2.7585,-2.7735,-2.7925,-2.8057,-2.8176,-2.7976,-2.7734,-2.7132,-2.6373,-2.6254,-2.6083,-2.6188,-2.6262,-2.6418,-2.6555,-2.6674,-2.6708,-2.6708,-2.6708,-3.7472,-3.7035,-3.6422,-3.5839,-3.53,-3.5259,-3.4578,-3.3569,-3.3495,-3.314,-3.264,-3.2621,-3.2571,-3.2571,-3.2621,-3.242,-3.2001,-3.1459,-3.0408,-2.9203,-2.8363,-2.7626,-2.679,-2.6555,-2.6487,-2.6474,-2.6449,-2.6185,-2.5762,-2.5523,-2.5096,-2.428,-2.4042,-2.3728,-2.3278,-2.3007,-2.2787,-2.2604,-2.242,-2.2266,-2.208,-2.2235,-2.242,-2.2604,-2.2757,-2.2939,-2.3078,-2.3095,-2.3095,-2.3095,-2.3095,-2.3095,-2.3095,-2.3095,-2.3095,-2.3108,-2.3108,-2.3155,-2.3125,-2.3245,-2.3245,-2.3245,-2.3245,-2.3133,-2.3409,-2.3824,-2.4226,-2.4574,-2.531,-2.5955,-2.6277,-2.6625,-2.6866,-2.6927,-2.6946,-2.6997,-2.7192,-2.7303,-2.7397,-2.7549,-2.7585,-2.7585,-2.7585,-2.7585,-2.7585,-2.7585,-2.7585,-2.7585,-2.7585,-2.7585,-2.7585,-2.7585,-2.7585,-2.7585,-2.7585,-2.7585,-2.7585,-2.761,-2.7725,-2.776,-2.7769,-2.7555,-2.7333,-2.6658,-2.6024,-2.5879,-2.5818,-2.5933,-2.6043,-2.6138,-2.6331,-2.6573,-2.6657,-2.6607,-2.6657,-3.661,-3.6042,-3.5521,-3.474,-3.3919,-3.3852,-3.3192,-3.2129,-3.2075,-3.1984,-3.1796,-3.1783,-3.1796,-3.1783,-3.1783,-3.1626,-3.1233,-3.0921,-2.9962,-2.872,-2.8261,-2.7531,-2.6719,-2.6521,-2.6487,-2.6487,-2.6487,-2.6424,-2.6235,-2.5858,-2.5448,-2.5172,-2.4393,-2.3966,-2.3722,-2.3102,-2.2555,-2.2106,-2.1808,-2.1451,-2.1123,-2.1325,-2.1671,-2.2118,-2.2377,-2.2684,-2.3047,-2.3095,-2.3095,-2.3095,-2.3095,-2.3095,-2.3095,-2.3095,-2.3095,-2.3095,-2.3095,-2.3095,-2.3095,-2.3095,-2.3095,-2.3095,-2.3145,-2.3296,-2.3722,-2.3904,-2.4287,-2.4741,-2.5356,-2.5717,-2.5923,-2.6228,-2.64,-2.6418,-2.6556,-2.6804,-2.7142,-2.7115,-2.7163,-2.7524,-2.7619,-2.7594,-2.7609,-2.7549,-2.7575,-2.7575,-2.7575,-2.76,-2.76,-2.7585,-2.7585,-2.7585,-2.7585,-2.7585,-2.7585,-2.7585,-2.7585,-2.7585,-2.761,-2.7635,-2.7595,-2.7425,-2.7276,-2.6979,-2.6231,-2.5926,-2.5794,-2.5773,-2.5845,-2.5968,-2.6145,-2.6392,-2.6416,-2.6401,-2.6504,-3.5494,-3.4991,-3.4426,-3.3697,-3.2864,-3.2825,-3.2175,-3.1266,-3.111,-3.0954,-3.0849,-3.0797,-3.0797,-3.0784,-3.0797,-3.0697,-3.0482,-3.0317,-2.9541,-2.8353,-2.7654,-2.7065,-2.6587,-2.6487,-2.6487,-2.6487,-2.6487,-2.6487,-2.6436,-2.6135,-2.5896,-2.5523,-2.4983,-2.4469,-2.3935,-2.33,-2.249,-2.1781,-2.1293,-2.0773,-2.0258,-2.0516,-2.0933,-2.1439,-2.1808,-2.2211,-2.2622,-2.2726,-2.2848,-2.3017,-2.3095,-2.3095,-2.3095,-2.3095,-2.3095,-2.3095,-2.3095,-2.3095,-2.3095,-2.3095,-2.3095,-2.3158,-2.3296,-2.3653,-2.4029,-2.4356,-2.489,-2.5201,-2.565,-2.5921,-2.6031,-2.6194,-2.6304,-2.6375,-2.6419,-2.6706,-2.7258,-2.7339,-2.7549,-2.7797,-2.7794,-2.7617,-2.7628,-2.7487,-2.7416,-2.7423,-2.7448,-2.7524,-2.7575,-2.76,-2.7585,-2.7585,-2.7585,-2.7585,-2.7585,-2.7585,-2.7585,-2.7585,-2.7585,-2.7585,-2.7515,-2.7368,-2.7225,-2.6983,-2.639,-2.5981,-2.5923,-2.5869,-2.5896,-2.6027,-2.6102,-2.6087,-2.6104,-2.6138,-2.6278,-3.4413,-3.3949,-3.3381,-3.2717,-3.2181,-3.2089,-3.1508,-3.0647,-3.0525,-3.0298,-2.9971,-2.9818,-2.9972,-2.9779,-3.0011,-2.9818,-2.9818,-2.9895,-2.9139,-2.8121,-2.7228,-2.6537,-2.6524,-2.6487,-2.6487,-2.6487,-2.6487,-2.6487,-2.6474,-2.6449,-2.621,-2.5799,-2.5611,-2.5084,-2.4323,-2.3563,-2.2552,-2.151,-2.0797,-2.0118,-1.9594,-1.9682,-2.0128,-2.0613,-2.1135,-2.1526,-2.1851,-2.2018,-2.2223,-2.2823,-2.2987,-2.3047,-2.3047,-2.3078,-2.3095,-2.3095,-2.3095,-2.3095,-2.3095,-2.3095,-2.317,-2.3296,-2.3728,-2.4104,-2.4368,-2.4996,-2.5485,-2.5707,-2.6197,-2.6366,-2.6391,-2.648,-2.6485,-2.646,-2.6309,-2.6587,-2.7159,-2.7598,-2.7938,-2.8326,-2.7878,-2.7675,-2.7442,-2.7231,-2.701,-2.7063,-2.7192,-2.7397,-2.7499,-2.76,-2.7585,-2.7585,-2.7585,-2.7585,-2.7585,-2.7585,-2.7585,-2.7585,-2.7585,-2.7585,-2.7585,-2.744,-2.7235,-2.6934,-2.6589,-2.6327,-2.6161,-2.6135,-2.6085,-2.5999,-2.6052,-2.587,-2.5728,-2.5821,-2.5923,-3.3992,-3.3526,-3.324,-3.2491,-3.1662,-3.1549,-3.0972,-3.003,-3.0005,-2.998,-2.9817,-2.9779,-2.9779,-2.9779,-2.9779,-2.9779,-2.9767,-2.9679,-2.9176,-2.8059,-2.7002,-2.6537,-2.6487,-2.6487,-2.6487,-2.6487,-2.6487,-2.6487,-2.6487,-2.6474,-2.6436,-2.6273,-2.5824,-2.5485,-2.5073,-2.3745,-2.2509,-2.1423,-2.0391,-1.9395,-1.8674,-1.8774,-1.9187,-1.9737,-2.0409,-2.0794,-2.089,-2.0921,-2.1112,-2.1596,-2.2297,-2.2745,-2.2921,-2.306,-2.3108,-2.312,-2.3133,-2.3133,-2.312,-2.3195,-2.3321,-2.3791,-2.4029,-2.4356,-2.5197,-2.5423,-2.5837,-2.6172,-2.6424,-2.6487,-2.6487,-2.6487,-2.6487,-2.6483,-2.6519,-2.6704,-2.7053,-2.6983,-2.7116,-2.7308,-2.733,-2.7009,-2.6649,-2.6835,-2.6745,-2.6736,-2.6922,-2.7192,-2.7382,-2.7534,-2.7575,-2.7575,-2.7585,-2.7585,-2.7585,-2.7585,-2.7585,-2.7585,-2.7585,-2.7585,-2.7585,-2.7585,-2.739,-2.7165,-2.6905,-2.6708,-2.6609,-2.6357,-2.6328,-2.6152,-2.5994,-2.589,-2.5808,-2.5718,-2.5794,-3.3496,-3.324,-3.3167,-3.2579,-3.1851,-3.175,-3.1173,-3.0319,-3.0181,-3.003,-2.9829,-2.9779,-2.9779,-2.9779,-2.9779,-2.9779,-2.9628,-2.9202,-2.8699,-2.7921,-2.704,-2.6512,-2.6487,-2.6487,-2.6487,-2.6487,-2.6487,-2.6487,-2.6487,-2.6487,-2.6487,-2.6487,-2.607,-2.566,-2.5268,-2.3996,-2.2575,-2.1219,-2.0175,-1.909,-1.8241,-1.8269,-1.8674,-1.9187,-1.9802,-2.0128,-2.0161,-2.0128,-2.0323,-2.0797,-2.1597,-2.2327,-2.2659,-2.2939,-2.3078,-2.312,-2.3409,-2.3496,-2.3534,-2.376,-2.4061,-2.4356,-2.4582,-2.5008,-2.5548,-2.5812,-2.6147,-2.6399,-2.6487,-2.6487,-2.6487,-2.6487,-2.6487,-2.6487,-2.6555,-2.6692,-2.6836,-2.6883,-2.7048,-2.7314,-2.729,-2.702,-2.6813,-2.6638,-2.6576,-2.6581,-2.6978,-2.7229,-2.7244,-2.7397,-2.7539,-2.7564,-2.7575,-2.7585,-2.7585,-2.7585,-2.7585,-2.7585,-2.7585,-2.7585,-2.7585,-2.7585,-2.757,-2.736,-2.7165,-2.7225,-2.7114,-2.6862,-2.6591,-2.6426,-2.6291,-2.6082,-2.5957,-2.5984,-2.6103,-3.3074,-3.2943,-3.2943,-3.2566,-3.2026,-3.1901,-3.1323,-3.0493,-3.0482,-3.0143,-2.9854,-2.9779,-2.9779,-2.9779,-2.9779,-2.9779,-2.9503,-2.8712,-2.816,-2.7984,-2.7002,-2.6562,-2.6487,-2.6487,-2.6487,-2.6487,-2.6487,-2.6487,-2.6487,-2.6487,-2.6487,-2.6452,-2.6258,-2.5768,-2.5022,-2.4047,-2.2718,-2.1129,-2.0099,-1.9174,-1.8301,-1.8247,-1.8472,-1.8798,-1.9098,-1.9297,-1.9297,-1.9341,-1.9538,-1.9954,-2.0853,-2.1619,-2.2301,-2.296,-2.3285,-2.3348,-2.3841,-2.4061,-2.418,-2.4469,-2.477,-2.4921,-2.5285,-2.5598,-2.5812,-2.616,-2.6373,-2.6449,-2.6487,-2.6487,-2.6487,-2.6487,-2.6487,-2.6487,-2.6487,-2.6487,-2.6589,-2.7032,-2.7293,-2.7472,-2.7105,-2.677,-2.6636,-2.6494,-2.6472,-2.6524,-2.6904,-2.724,-2.7295,-2.738,-2.7587,-2.7673,-2.7724,-2.7615,-2.7585,-2.7585,-2.7585,-2.7585,-2.7585,-2.7585,-2.7585,-2.7585,-2.7585,-2.7585,-2.7495,-2.751,-2.752,-2.7325,-2.7069,-2.6821,-2.6564,-2.6364,-2.6298,-2.6244,-2.6368,-3.2792,-3.2353,-3.2353,-3.1788,-3.0972,-3.0896,-3.057,-2.9993,-2.9967,-2.988,-2.9804,-2.9779,-2.9779,-2.9779,-2.9779,-2.9779,-2.9528,-2.8674,-2.8109,-2.7921,-2.704,-2.6499,-2.6487,-2.6487,-2.6487,-2.6487,-2.6487,-2.6487,-2.6487,-2.6487,-2.6487,-2.643,-2.6119,-2.5636,-2.4825,-2.3815,-2.2608,-2.12,-2.0137,-1.9219,-1.8596,-1.8257,-1.8178,-1.8383,-1.8524,-1.8504,-1.8377,-1.8343,-1.8574,-1.9294,-1.9891,-2.0766,-2.1891,-2.3138,-2.3891,-2.4131,-2.4461,-2.465,-2.472,-2.4808,-2.5096,-2.536,-2.5611,-2.5875,-2.621,-2.6411,-2.6474,-2.6487,-2.6487,-2.6487,-2.6487,-2.6487,-2.6487,-2.6487,-2.6487,-2.6487,-2.6533,-2.6658,-2.6794,-2.6926,-2.6718,-2.6557,-2.6482,-2.6414,-2.6375,-2.6457,-2.6783,-2.7323,-2.7667,-2.7748,-2.7871,-2.7928,-2.7944,-2.7764,-2.7585,-2.7585,-2.7585,-2.7585,-2.7585,-2.7585,-2.7585,-2.7585,-2.7585,-2.7585,-2.7585,-2.757,-2.757,-2.7585,-2.7495,-2.7225,-2.6926,-2.6651,-2.6669,-2.6677,-2.6482,-3.2729,-3.2227,-3.2202,-3.1599,-3.0733,-3.062,-3.0306,-2.9829,-2.9779,-2.9779,-2.9779,-2.9779,-2.9779,-2.9779,-2.9779,-2.9779,-2.949,-2.8624,-2.816,-2.7871,-2.7065,-2.6487,-2.6487,-2.6487,-2.6487,-2.6487,-2.6487,-2.6487,-2.6487,-2.6487,-2.6487,-2.6396,-2.6002,-2.5382,-2.4612,-2.36,-2.2368,-2.1178,-2.024,-1.9392,-1.8691,-1.8373,-1.8315,-1.8369,-1.8516,-1.8545,-1.8315,-1.8295,-1.8557,-1.9089,-1.971,-2.0589,-2.1764,-2.3004,-2.4062,-2.4249,-2.4797,-2.5189,-2.531,-2.546,-2.5837,-2.6021,-2.6059,-2.6185,-2.6399,-2.6474,-2.6487,-2.6487,-2.6487,-2.6487,-2.6487,-2.6487,-2.6487,-2.6487,-2.6487,-2.6487,-2.6487,-2.6487,-2.6487,-2.6487,-2.6514,-2.6493,-2.635,-2.6319,-2.6275,-2.644,-2.6698,-2.722,-2.786,-2.7897,-2.7894,-2.791,-2.7853,-2.7754,-2.7642,-2.7699,-2.7645,-2.76,-2.769,-2.769,-2.7645,-2.7675,-2.763,-2.7585,-2.7585,-2.7585,-2.7585,-2.7585,-2.7585,-2.7585,-2.733,-2.713,-2.7135,-2.7067,-2.6879,-3.2679,-3.2039,-3.2051,-3.1424,-3.0545,-3.0457,-3.0206,-2.9842,-2.9779,-2.9779,-2.9779,-2.9779,-2.9779,-2.9779,-2.9779,-2.9767,-2.9666,-2.8624,-2.816,-2.7883,-2.704,-2.6487,-2.6487,-2.6487,-2.6487,-2.6487,-2.6487,-2.6487,-2.6487,-2.6487,-2.6487,-2.6314,-2.5851,-2.5075,-2.4169,-2.3283,-2.2057,-2.107,-2.0342,-1.9639,-1.8991,-1.8734,-1.8734,-1.8744,-1.9111,-1.9082,-1.8799,-1.8769,-1.8883,-1.9265,-1.9791,-2.058,-2.1613,-2.2834,-2.3562,-2.3925,-2.4967,-2.5556,-2.5854,-2.6088,-2.6336,-2.6386,-2.6461,-2.6487,-2.6487,-2.6487,-2.6487,-2.6487,-2.6487,-2.6487,-2.6487,-2.6487,-2.6487,-2.6487,-2.6487,-2.6487,-2.6487,-2.6487,-2.6487,-2.6487,-2.6487,-2.6449,-2.6395,-2.637,-2.64,-2.6504,-2.6707,-2.7099,-2.7653,-2.7693,-2.7689,-2.7696,-2.7679,-2.7653,-2.7687,-2.7902,-2.7774,-2.7615,-2.7824,-2.7959,-2.7869,-2.7779,-2.7735,-2.7705,-2.7585,-2.7585,-2.7585,-2.7585,-2.7585,-2.7585,-2.7585,-2.755,-2.741,-2.7395,-2.7304,-3.2453,-3.1486,-3.1499,-3.0871,-2.998,-2.9917,-2.9867,-2.9804,-2.9779,-2.9779,-2.9779,-2.9779,-2.9779,-2.9779,-2.9779,-2.9779,-2.9453,-2.8699,-2.8122,-2.7934,-2.704,-2.6487,-2.6487,-2.6487,-2.6487,-2.6487,-2.6487,-2.6487,-2.6487,-2.6487,-2.6487,-2.6349,-2.5711,-2.4779,-2.3745,-2.2968,-2.188,-2.0804,-2.0174,-1.9715,-1.9297,-1.9219,-1.9219,-1.9238,-1.9316,-1.9372,-1.9238,-1.9228,-1.9372,-1.9676,-1.9821,-2.0389,-2.1187,-2.1817,-2.2638,-2.357,-2.4767,-2.5951,-2.6052,-2.6333,-2.6487,-2.6487,-2.6487,-2.6487,-2.6487,-2.6487,-2.6487,-2.6487,-2.6487,-2.6487,-2.6487,-2.6487,-2.6487,-2.6487,-2.6487,-2.6487,-2.6487,-2.6487,-2.6487,-2.6487,-2.6487,-2.6487,-2.6449,-2.6496,-2.6517,-2.6616,-2.679,-2.7163,-2.7411,-2.7463,-2.7615,-2.7689,-2.7725,-2.7699,-2.7686,-2.7906,-2.7824,-2.7629,-2.7897,-2.8121,-2.7908,-2.7788,-2.7914,-2.7869,-2.772,-2.76,-2.7585,-2.7585,-2.7585,-2.7585,-2.7585,-2.7585,-2.757,-2.7585,-2.7585,-3.2114,-3.1386,-3.1386,-3.0771,-2.9842,-2.9779,-2.9779,-2.9779,-2.9779,-2.9779,-2.9779,-2.9779,-2.9779,-2.9779,-2.9779,-2.9779,-2.9541,-2.8624,-2.8122,-2.7871,-2.7077,-2.6499,-2.6487,-2.6487,-2.6487,-2.6487,-2.6487,-2.6487,-2.6487,-2.6487,-2.6487,-2.6383,-2.5664,-2.4707,-2.3514,-2.2782,-2.1787,-2.0814,-2.0156,-1.9844,-1.9687,-1.9648,-1.9639,-1.9658,-1.9863,-1.9834,-1.9697,-1.9648,-1.9717,-1.9912,-1.9912,-2.0241,-2.0921,-2.1492,-2.208,-2.2782,-2.3998,-2.5052,-2.5734,-2.6211,-2.6418,-2.6487,-2.6487,-2.6487,-2.6487,-2.6487,-2.6487,-2.6487,-2.6487,-2.6487,-2.6487,-2.6487,-2.6487,-2.6487,-2.6487,-2.6487,-2.6487,-2.6487,-2.6487,-2.6487,-2.6487,-2.6487,-2.6487,-2.6487,-2.6521,-2.6577,-2.6676,-2.695,-2.715,-2.7245,-2.7485,-2.7779,-2.7818,-2.7854,-2.7811,-2.7874,-2.7779,-2.768,-2.7973,-2.8073,-2.7861,-2.7767,-2.8143,-2.8019,-2.769,-2.7615,-2.76,-2.7585,-2.7585,-2.7585,-2.7585,-2.7585,-2.7585,-2.7585,-2.7585,-3.1813,-3.121,-3.1198,-3.0645,-2.9804,-2.9779,-2.9779,-2.9779,-2.9779,-2.9779,-2.9779,-2.9779,-2.9779,-2.9779,-2.9767,-2.9691,-2.9478,-2.8549,-2.8084,-2.7595,-2.7065,-2.6549,-2.6487,-2.6487,-2.6487,-2.6487,-2.6487,-2.6487,-2.6487,-2.6487,-2.6487,-2.6452,-2.5699,-2.4671,-2.3599,-2.2745,-2.1835,-2.0692,-2.0273,-2.0117,-2.0078,-2.0078,-2.0078,-2.0166,-2.0361,-2.0439,-2.0137,-2.0068,-2.0088,-2.0098,-2.0117,-2.0379,-2.0818,-2.1118,-2.1492,-2.2128,-2.3005,-2.3888,-2.4838,-2.5641,-2.6245,-2.643,-2.6487,-2.6487,-2.6487,-2.6487,-2.6487,-2.6487,-2.6487,-2.6487,-2.6487,-2.6487,-2.6487,-2.6487,-2.6487,-2.6487,-2.6487,-2.6487,-2.6487,-2.6487,-2.6487,-2.6487,-2.6487,-2.6487,-2.6487,-2.6533,-2.6624,-2.6794,-2.6894,-2.7,-2.728,-2.7633,-2.8177,-2.8216,-2.8111,-2.8005,-2.7831,-2.7815,-2.8094,-2.8245,-2.8134,-2.8405,-2.8861,-2.8513,-2.7899,-2.769,-2.7705,-2.7645,-2.7585,-2.7585,-2.7585,-2.7585,-2.7585,-2.7585,-2.7585,-3.1612,-3.0658,-3.067,-3.0344,-2.9779,-2.9779,-2.9779,-2.9779,-2.9779,-2.9779,-2.9779,-2.9779,-2.9779,-2.9767,-2.9679,-2.944,-2.8963,-2.8336,-2.7858,-2.7354,-2.6813,-2.6537,-2.6487,-2.6487,-2.6487,-2.6487,-2.6487,-2.6487,-2.6487,-2.6487,-2.6487,-2.6383,-2.5699,-2.4624,-2.3526,-2.2558,-2.1672,-2.0799,-2.0488,-2.0488,-2.0488,-2.0498,-2.0507,-2.0517,-2.0576,-2.0586,-2.0546,-2.0498,-2.0468,-2.0478,-2.043,-2.0439,-2.0673,-2.077,-2.1069,-2.153,-2.2069,-2.292,-2.3888,-2.5099,-2.5945,-2.6188,-2.6361,-2.6487,-2.6487,-2.6487,-2.6487,-2.6487,-2.6487,-2.6487,-2.6487,-2.6487,-2.6487,-2.6487,-2.6487,-2.6487,-2.6487,-2.6487,-2.6487,-2.6487,-2.6487,-2.6487,-2.6487,-2.6487,-2.6487,-2.6499,-2.6499,-2.6658,-2.6624,-2.6739,-2.7059,-2.7505,-2.8388,-2.8626,-2.8517,-2.8393,-2.8197,-2.8181,-2.8339,-2.855,-2.8643,-2.9066,-2.9564,-2.8981,-2.8408,-2.8109,-2.7794,-2.7705,-2.7645,-2.76,-2.7585,-2.7585,-2.7585,-2.7585,-2.7585,-3.0796,-3.0118,-3.0105,-2.9993,-2.9779,-2.9779,-2.9779,-2.9779,-2.9779,-2.9779,-2.9779,-2.9779,-2.9779,-2.9704,-2.9377,-2.9164,-2.8775,-2.7959,-2.7544,-2.7216,-2.6813,-2.6537,-2.6487,-2.6487,-2.6487,-2.6487,-2.6487,-2.6487,-2.6487,-2.6487,-2.6487,-2.6233,-2.5699,-2.4636,-2.3537,-2.2172,-2.1136,-2.0838,-2.0615,-2.0615,-2.0615,-2.0615,-2.0615,-2.0615,-2.0615,-2.0615,-2.0595,-2.0605,-2.0605,-2.0615,-2.0615,-2.0615,-2.0615,-2.0615,-2.0809,-2.1205,-2.1738,-2.2505,-2.3446,-2.4683,-2.5594,-2.6292,-2.6465,-2.6499,-2.6537,-2.6512,-2.6499,-2.6487,-2.6562,-2.6637,-2.6524,-2.6512,-2.6487,-2.6487,-2.6512,-2.6537,-2.6537,-2.6562,-2.6587,-2.6637,-2.6549,-2.6487,-2.6487,-2.6487,-2.6487,-2.6487,-2.6487,-2.6487,-2.6487,-2.6521,-2.6863,-2.7289,-2.8097,-2.8361,-2.8257,-2.8346,-2.8468,-2.8515,-2.8562,-2.8799,-2.903,-2.974,-3.0028,-2.943,-2.8936,-2.8622,-2.8289,-2.7869,-2.7675,-2.763,-2.76,-2.7585,-2.7585,-2.7585,-2.7585,-3.0306,-2.9804,-2.9779,-2.9779,-2.9779,-2.9779,-2.9779,-2.9779,-2.9779,-2.9779,-2.9779,-2.9779,-2.9779,-2.9628,-2.9214,-2.8812,-2.8461,-2.777,-2.7281,-2.6964,-2.6688,-2.6512,-2.6487,-2.6487,-2.6487,-2.6487,-2.6487,-2.6487,-2.6487,-2.6487,-2.6487,-2.6267,-2.5652,-2.4636,-2.3342,-2.1669,-2.0605,-2.0615,-2.0615,-2.0615,-2.0615,-2.0615,-2.0615,-2.0615,-2.0615,-2.0615,-2.0615,-2.0615,-2.0615,-2.0615,-2.0615,-2.0615,-2.0615,-2.0654,-2.0848,-2.1272,-2.1807,-2.2585,-2.3664,-2.4729,-2.5691,-2.6589,-2.6562,-2.6612,-2.6688,-2.6751,-2.6864,-2.709,-2.7052,-2.6929,-2.6952,-2.7115,-2.7153,-2.7253,-2.6927,-2.6876,-2.6751,-2.6725,-2.6763,-2.6801,-2.6763,-2.6851,-2.7128,-2.7153,-2.6826,-2.6725,-2.6487,-2.6487,-2.6487,-2.6555,-2.6726,-2.7175,-2.7769,-2.7838,-2.7795,-2.7949,-2.816,-2.8453,-2.8583,-2.9001,-2.9404,-3.0146,-3.0481,-3.0028,-2.9564,-2.9175,-2.8891,-2.8637,-2.8154,-2.766,-2.763,-2.7585,-2.7585,-2.7585,-2.7585,-3.0281,-2.9804,-2.9779,-2.9779,-2.9779,-2.9779,-2.9779,-2.9779,-2.9779,-2.9779,-2.9779,-2.9779,-2.9779,-2.9641,-2.9088,-2.8587,-2.816,-2.7532,-2.7077,-2.6763,-2.6612,-2.6512,-2.6537,-2.6549,-2.6487,-2.6487,-2.6487,-2.6487,-2.6487,-2.6487,-2.6487,-2.6213,-2.5561,-2.4526,-2.339,-2.1565,-2.0644,-2.0615,-2.0615,-2.0615,-2.0615,-2.0615,-2.0615,-2.0615,-2.0615,-2.0615,-2.0615,-2.0615,-2.0615,-2.0615,-2.0615,-2.0615,-2.0615,-2.0615,-2.0809,-2.1233,-2.1797,-2.2794,-2.4133,-2.5277,-2.6302,-2.7009,-2.6927,-2.6914,-2.7178,-2.7316,-2.7394,-2.762,-2.7808,-2.7896,-2.7984,-2.7971,-2.7883,-2.7745,-2.7442,-2.7178,-2.7065,-2.6927,-2.6964,-2.7002,-2.7216,-2.7419,-2.7783,-2.7883,-2.7356,-2.7027,-2.6637,-2.6499,-2.6524,-2.6555,-2.6658,-2.6952,-2.7451,-2.7518,-2.7525,-2.7631,-2.7841,-2.8212,-2.8566,-2.8951,-2.9638,-3.0382,-3.0555,-3.0412,-3.0054,-2.9529,-2.9518,-2.9505,-2.8801,-2.8058,-2.769,-2.7585,-2.7585,-2.7585,-2.7585,-2.9967,-2.9792,-2.9779,-2.9779,-2.9779,-2.9779,-2.9779,-2.9779,-2.9779,-2.9779,-2.9779,-2.9779,-2.9779,-2.9528,-2.8863,-2.8298,-2.7996,-2.7128,-2.665,-2.6989,-2.6675,-2.6801,-2.6813,-2.6637,-2.6499,-2.6487,-2.6487,-2.6487,-2.6487,-2.6487,-2.6487,-2.6236,-2.5302,-2.3939,-2.2719,-2.1367,-2.0605,-2.0615,-2.0615,-2.0615,-2.0625,-2.0625,-2.0625,-2.0625,-2.0615,-2.0615,-2.0615,-2.0615,-2.0615,-2.0615,-2.0615,-2.0615,-2.0615,-2.0625,-2.0877,-2.1527,-2.2338,-2.4231,-2.5893,-2.7189,-2.7109,-2.736,-2.7444,-2.7404,-2.7369,-2.767,-2.7896,-2.8097,-2.826,-2.8247,-2.8084,-2.8084,-2.8034,-2.8034,-2.7783,-2.7544,-2.7369,-2.7241,-2.7165,-2.7203,-2.7354,-2.7695,-2.8072,-2.8398,-2.8047,-2.7682,-2.7331,-2.6813,-2.6675,-2.6596,-2.6602,-2.6794,-2.7108,-2.7222,-2.7289,-2.731,-2.743,-2.771,-2.8252,-2.8807,-2.9583,-3.0297,-3.0467,-3.0251,-3.006,-2.9854,-2.979,-2.9635,-2.9113,-2.854,-2.8233,-2.7779,-2.7585,-2.7585,-2.7585,-2.9779,-2.9779,-2.9779,-2.9779,-2.9779,-2.9779,-2.9779,-2.9779,-2.9779,-2.9779,-2.9779,-2.9779,-2.9779,-2.9453,-2.8699,-2.8109,-2.7971,-2.704,-2.6575,-2.6977,-2.67,-2.67,-2.6751,-2.6713,-2.6524,-2.6487,-2.6487,-2.6487,-2.6487,-2.6487,-2.6474,-2.6136,-2.5135,-2.4209,-2.3056,-2.2033,-2.1134,-2.1173,-2.1182,-2.1025,-2.0918,-2.0801,-2.0732,-2.0664,-2.0615,-2.0615,-2.0615,-2.0615,-2.0615,-2.0615,-2.0615,-2.0615,-2.0625,-2.0781,-2.1104,-2.1994,-2.3875,-2.5808,-2.7586,-2.8473,-2.8312,-2.7985,-2.8097,-2.8021,-2.7896,-2.8235,-2.8524,-2.8662,-2.8624,-2.8649,-2.8649,-2.8612,-2.8599,-2.8612,-2.8386,-2.816,-2.777,-2.7595,-2.757,-2.7582,-2.7846,-2.816,-2.8461,-2.8624,-2.8725,-2.8411,-2.8084,-2.7482,-2.6927,-2.6776,-2.6634,-2.6692,-2.6782,-2.685,-2.693,-2.6918,-2.7053,-2.7276,-2.7815,-2.8422,-2.8871,-2.9484,-2.9794,-3.004,-2.9695,-2.9514,-2.9828,-2.968,-2.9376,-2.9121,-2.8921,-2.8408,-2.7764,-2.7645,-2.769,-2.9779,-2.9779,-2.9779,-2.9779,-2.9779,-2.9779,-2.9779,-2.9779,-2.9779,-2.9779,-2.9779,-2.9779,-2.9779,-2.9566,-2.8612,-2.8122,-2.7883,-2.6989,-2.6725,-2.66,-2.6587,-2.6625,-2.6625,-2.6562,-2.6499,-2.6487,-2.6487,-2.6487,-2.6487,-2.665,-2.6609,-2.6323,-2.5648,-2.4936,-2.4139,-2.3143,-2.2197,-2.1853,-2.1652,-2.1465,-2.1299,-2.1122,-2.0967,-2.0791,-2.0674,-2.0625,-2.0615,-2.0615,-2.0615,-2.0615,-2.0615,-2.0625,-2.0752,-2.0996,-2.1679,-2.3085,-2.547,-2.7118,-2.8557,-2.9186,-2.9251,-2.8775,-2.8524,-2.8586,-2.8637,-2.8775,-2.9089,-2.934,-2.9402,-2.9541,-2.9628,-2.9578,-2.9541,-2.9377,-2.9151,-2.8762,-2.8285,-2.8122,-2.8134,-2.8285,-2.8637,-2.8976,-2.9277,-2.944,-2.9189,-2.9076,-2.8712,-2.8185,-2.7656,-2.7165,-2.6927,-2.6533,-2.6589,-2.6555,-2.6555,-2.6658,-2.6794,-2.7019,-2.7397,-2.7901,-2.8325,-2.8661,-2.898,-2.9156,-2.9066,-2.9146,-2.9547,-2.9811,-2.9885,-2.9671,-2.9294,-2.9047,-2.8394,-2.7949,-2.7884,-2.9779,-2.9779,-2.9779,-2.9779,-2.9779,-2.9779,-2.9779,-2.9779,-2.9779,-2.9779,-2.9779,-2.9779,-2.9704,-2.9679,-2.8624,-2.8197,-2.7682,-2.7203,-2.6964,-2.6801,-2.6625,-2.6801,-2.6801,-2.6675,-2.6549,-2.6487,-2.6487,-2.6499,-2.66,-2.6788,-2.6866,-2.6577,-2.6469,-2.6116,-2.5427,-2.449,-2.334,-2.2464,-2.2178,-2.1875,-2.167,-2.1424,-2.124,-2.1064,-2.083,-2.0772,-2.0732,-2.0713,-2.0703,-2.0674,-2.0635,-2.0703,-2.1025,-2.1241,-2.187,-2.425,-2.5956,-2.7294,-2.8746,-2.9344,-2.946,-2.949,-2.9302,-2.9089,-2.9151,-2.9277,-2.9566,-2.9704,-2.9779,-2.9779,-2.9779,-2.9779,-2.9779,-2.9654,-2.9453,-2.9176,-2.875,-2.8649,-2.8662,-2.8812,-2.9176,-2.939,-2.9754,-2.9741,-2.9515,-2.9528,-2.9302,-2.8775,-2.8235,-2.772,-2.7115,-2.665,-2.6487,-2.6487,-2.6487,-2.6555,-2.6658,-2.6794,-2.7108,-2.7397,-2.7696,-2.7993,-2.8208,-2.8306,-2.8312,-2.8762,-2.9366,-2.9541,-2.9571,-2.9697,-2.9462,-2.9317,-2.9074,-2.8553,-2.8129,-2.9779,-2.9779,-2.9779,-2.9779,-2.9779,-2.9779,-2.9779,-2.9779,-2.9779,-2.9691,-2.9465,-2.9428,-2.9327,-2.8963,-2.8172,-2.7733,-2.7657,-2.6964,-2.6663,-2.67,-2.6663,-2.6713,-2.6738,-2.6688,-2.6537,-2.6487,-2.6487,-2.6487,-2.6637,-2.6992,-2.7153,-2.7212,-2.746,-2.7199,-2.6513,-2.5485,-2.4399,-2.3406,-2.273,-2.2359,-2.207,-2.1846,-2.1668,-2.1455,-2.1152,-2.1124,-2.1085,-2.1085,-2.1064,-2.1084,-2.1124,-2.1191,-2.1584,-2.1864,-2.2675,-2.48,-2.5876,-2.7105,-2.8366,-2.8951,-2.9365,-2.9663,-2.9779,-2.9603,-2.9515,-2.9578,-2.9691,-2.9779,-2.9779,-2.9779,-2.9779,-2.9779,-2.9779,-2.9767,-2.9641,-2.9503,-2.934,-2.9202,-2.9239,-2.9315,-2.949,-2.9666,-2.9779,-2.9779,-2.9779,-2.9716,-2.9566,-2.9214,-2.8649,-2.8084,-2.7341,-2.665,-2.6537,-2.6487,-2.6512,-2.6549,-2.6593,-2.6649,-2.6714,-2.6985,-2.7154,-2.7222,-2.7364,-2.753,-2.763,-2.8143,-2.8648,-2.8967,-2.907,-2.9205,-2.9321,-2.9198,-2.9016,-2.883,-2.85,-2.9779,-2.9779,-2.9779,-2.9779,-2.9779,-2.9779,-2.9754,-2.9729,-2.9666,-2.9428,-2.8988,-2.8863,-2.8624,-2.8285,-2.7682,-2.7454,-2.7291,-2.6801,-2.6512,-2.6512,-2.6537,-2.6575,-2.6575,-2.6487,-2.6487,-2.6487,-2.6487,-2.6499,-2.6675,-2.7105,-2.7624,-2.7816,-2.8122,-2.7993,-2.74,-2.6221,-2.5167,-2.4312,-2.3388,-2.2769,-2.2565,-2.2471,-2.2334,-2.1992,-2.1846,-2.1848,-2.1867,-2.1897,-2.1936,-2.1916,-2.1887,-2.1816,-2.2156,-2.2641,-2.3727,-2.4535,-2.5543,-2.661,-2.7683,-2.8371,-2.904,-2.9417,-2.974,-2.9703,-2.9665,-2.9704,-2.9767,-2.9779,-2.9779,-2.9779,-2.9779,-2.9779,-2.9779,-2.9779,-2.9716,-2.9591,-2.9465,-2.9428,-2.9528,-2.9591,-2.9628,-2.9779,-2.9779,-2.9779,-2.9779,-2.9779,-2.9704,-2.9465,-2.9038,-2.8436,-2.7821,-2.7002,-2.6989,-2.6964,-2.6738,-2.6751,-2.66,-2.6584,-2.6593,-2.6589,-2.6794,-2.6692,-2.6521,-2.6816,-2.7175,-2.7364,-2.7749,-2.813,-2.8519,-2.8743,-2.8837,-2.8902,-2.8825,-2.8721,-2.8828,-2.9779,-2.9779,-2.9779,-2.9779,-2.9779,-2.9779,-2.9528,-2.9113,-2.9101,-2.9026,-2.8825,-2.8499,-2.821,-2.7908,-2.7444,-2.7253,-2.714,-2.6751,-2.6537,-2.6499,-2.6487,-2.6487,-2.6487,-2.6487,-2.6487,-2.6487,-2.6487,-2.6524,-2.6763,-2.7344,-2.7971,-2.8174,-2.8648,-2.8878,-2.8143,-2.6864,-2.583,-2.502,-2.3854,-2.3183,-2.2959,-2.2656,-2.2422,-2.2266,-2.2178,-2.2012,-2.1982,-2.1943,-2.1914,-2.1926,-2.1926,-2.2041,-2.2396,-2.3064,-2.369,-2.4349,-2.5009,-2.5955,-2.6853,-2.7637,-2.8343,-2.904,-2.9404,-2.9611,-2.9702,-2.974,-2.9779,-2.9779,-2.9779,-2.9779,-2.9779,-2.9779,-2.9779,-2.9779,-2.9779,-2.9666,-2.9553,-2.9654,-2.9779,-2.9779,-2.9779,-2.9779,-2.9779,-2.9779,-2.9779,-2.9779,-2.9779,-2.9603,-2.9252,-2.875,-2.8599,-2.7959,-2.777,-2.7645,-2.7329,-2.7065,-2.6977,-2.6738,-2.6684,-2.6622,-2.6499,-2.6487,-2.6487,-2.6555,-2.676,-2.6973,-2.7209,-2.751,-2.7861,-2.8078,-2.8163,-2.813,-2.826,-2.8188,-2.8643,-2.9779,-2.9779,-2.9779,-2.9779,-2.9741,-2.9528,-2.9214,-2.885,-2.8423,-2.8197,-2.8172,-2.7871,-2.762,-2.7431,-2.7065,-2.6977,-2.6927,-2.665,-2.6512,-2.6487,-2.6487,-2.6487,-2.6487,-2.6487,-2.6487,-2.6487,-2.6524,-2.6625,-2.6927,-2.757,-2.8172,-2.8536,-2.9276,-2.939,-2.8526,-2.7406,-2.637,-2.5474,-2.4122,-2.3493,-2.3276,-2.2953,-2.275,-2.2633,-2.2588,-2.2422,-2.2441,-2.2441,-2.2441,-2.2451,-2.25,-2.2559,-2.2783,-2.3065,-2.34,-2.3734,-2.4294,-2.4967,-2.5872,-2.673,-2.7568,-2.8331,-2.8988,-2.917,-2.974,-2.9779,-2.9779,-2.9779,-2.9779,-2.9779,-2.9779,-2.9779,-2.9779,-2.9779,-2.9779,-2.9729,-2.9691,-2.9729,-2.9779,-2.9779,-2.9779,-2.9779,-2.9779,-2.9779,-2.9779,-2.9779,-2.9779,-2.9779,-2.9428,-2.9151,-2.9001,-2.8812,-2.8549,-2.8197,-2.7783,-2.7557,-2.7431,-2.719,-2.6851,-2.6688,-2.6612,-2.6537,-2.6487,-2.6521,-2.6555,-2.6645,-2.6884,-2.7087,-2.7087,-2.7209,-2.7276,-2.731,-2.7477,-2.7696,-2.8042,-2.9779,-2.9779,-2.9779,-2.9779,-2.9704,-2.9139,-2.885,-2.8612,-2.7758,-2.7268,-2.7266,-2.7241,-2.6901,-2.6637,-2.6487,-2.6487,-2.6499,-2.6512,-2.6487,-2.6487,-2.6487,-2.6487,-2.6487,-2.6487,-2.6487,-2.6562,-2.6637,-2.6914,-2.7241,-2.7934,-2.8561,-2.895,-2.9263,-2.9456,-2.8673,-2.7799,-2.6853,-2.5913,-2.4829,-2.396,-2.358,-2.3276,-2.3096,-2.3071,-2.3101,-2.3101,-2.3081,-2.3071,-2.3071,-2.3033,-2.2955,-2.2964,-2.2984,-2.3105,-2.3115,-2.3396,-2.3657,-2.4241,-2.4861,-2.5704,-2.673,-2.7637,-2.8303,-2.8843,-2.9339,-2.9585,-2.9585,-2.9663,-2.9663,-2.9779,-2.9779,-2.9779,-2.9779,-2.9779,-2.9779,-2.9779,-2.9779,-2.9779,-2.9779,-2.9779,-2.9779,-2.9779,-2.9779,-2.9779,-2.9779,-2.9779,-2.9779,-2.9779,-2.9729,-2.9591,-2.9428,-2.9264,-2.9051,-2.8674,-2.8285,-2.8134,-2.8009,-2.7557,-2.7253,-2.6964,-2.67,-2.6562,-2.6487,-2.6487,-2.6521,-2.6555,-2.6555,-2.6692,-2.6624,-2.6624,-2.676,-2.6884,-2.693,-2.7108,-2.7297,-2.9779,-2.9779,-2.9779,-2.9779,-2.9704,-2.9126,-2.8687,-2.8197,-2.7582,-2.709,-2.6776,-2.6675,-2.6562,-2.6487,-2.6487,-2.6487,-2.6487,-2.6487,-2.6487,-2.6487,-2.6487,-2.6487,-2.6487,-2.6487,-2.6487,-2.665,-2.6889,-2.7216,-2.7657,-2.836,-2.8812,-2.8988,-2.9515,-2.9521,-2.9,-2.8171,-2.7383,-2.64,-2.5411,-2.4402,-2.3907,-2.357,-2.3188,-2.3101,-2.3101,-2.3101,-2.3091,-2.3091,-2.3091,-2.3091,-2.3101,-2.3101,-2.3101,-2.3101,-2.3101,-2.3144,-2.3406,-2.3744,-2.437,-2.4914,-2.5902,-2.6771,-2.7395,-2.7914,-2.8395,-2.8843,-2.8922,-2.9248,-2.9339,-2.9663,-2.9753,-2.9779,-2.9779,-2.9779,-2.9779,-2.9779,-2.9779,-2.9779,-2.9779,-2.9779,-2.9779,-2.9779,-2.9779,-2.9779,-2.9779,-2.9779,-2.9779,-2.9779,-2.9779,-2.9779,-2.9779,-2.9628,-2.9453,-2.9227,-2.885,-2.8775,-2.8586,-2.8084,-2.762,-2.7329,-2.6977,-2.6575,-2.6499,-2.665,-2.6562,-2.6521,-2.6487,-2.6487,-2.6521,-2.6555,-2.6521,-2.6555,-2.6568,-2.6624,-2.6905]},{"header":{"parameterUnit":"m.s-1","parameterCategory":1,"la1":31.0,"la2":29.5877,"lo1":-88.7671,"lo2":-86.6584,"dy":0.0162,"dx":0.0185,"nx":115,"ny":88,"refTime":"2026-04-11T00:00:00:Z","depth":0,"parameterNumber":3,"parameterNumberName":"V-component_of_WINDS"},"data":[0.0,0.0,0.0,0.0,0.0,0.0,0.0,0.0,0.0,0.0,0.0,0.0,0.0,0.0,0.0,0.0,0.0,0.0,0.0,0.0,0.0,0.0,0.0,0.0,0.0,0.0,0.0,0.0,0.0,0.0,0.0,0.0,0.0,0.0,0.0,0.0,0.0,0.0,0.0,0.0,0.0,0.0,0.0,0.0,0.0,0.0,0.0,0.0,0.0,0.0,0.0,0.0,0.0,0.0,0.0,0.0,0.0,0.0,0.0,0.0,0.0,0.0,0.0,0.0,0.0,0.0,0.0,0.0,0.0,0.0,0.0,0.0,0.0,0.0,0.0,0.0,0.0,0.0,0.0,0.0,0.0,0.0,0.0,0.0,0.0,0.0,0.0,0.0,0.0,0.0,0.0,0.0,0.0,0.0,0.0,0.0,0.0,0.0,0.0,0.0,0.0,0.0,0.0,0.0,0.0,0.0,0.0,0.0,0.0,0.0,0.0,0.0,0.0,0.0,0.0,0.0,0.0,0.0,0.0,0.0,0.0,0.0,0.0,0.0,0.0,0.0,0.0,0.0,0.0,0.0,0.0,0.0,0.0,0.0,0.0,0.0,0.0,0.0,0.0,0.0,0.0,0.0,0.0,0.0,0.0,0.0,0.0,0.0,0.0,0.0,0.0,0.0,0.0,0.0,0.0,0.0,0.0,0.0,0.0,0.0,0.0,0.0,0.0,0.0,0.0,0.0,0.0,0.0,0.0,0.0,0.0,0.0,0.0,0.0,0.0,0.0,0.0,0.0,0.0,0.0,0.0,0.0,0.0,0.0,0.0,0.0,0.0,0.0,0.0,0.0,0.0,0.0,0.0,0.0,0.0,0.0,0.0,0.0,0.0,0.0,0.0,0.0,0.0,0.0,0.0,0.0,0.0,0.0,0.0,0.0,0.0,0.0,0.0,0.0,0.0,0.0,0.0,0.0,0.0,0.0,0.0,0.0,0.0,0.0,0.0,0.0,0.0,0.0,0.0,0.0,0.0,0.0,0.0,0.0,0.0,0.0,0.0,0.0,0.0,0.0,0.0,0.0,0.0,0.0,0.0,0.0,0.0,0.0,0.0,0.0,0.0,0.0,0.0,0.0,0.0,0.0,0.0,0.0,0.0,0.0,0.0,0.0,0.0,0.0,0.0,0.0,0.0,0.0,0.0,0.0,0.0,0.0,0.0,0.0,0.0,0.0,0.0,0.0,0.0,0.0,0.0,0.0,0.0,0.0,0.0,0.0,0.0,0.0,0.0,0.0,0.0,0.0,0.0,0.0,0.0,0.0,0.0,0.0,0.0,0.0,0.0,0.0,0.0,0.0,0.0,0.0,0.0,0.0,0.0,0.0,0.0,0.0,0.0,0.0,0.0,0.0,0.0,0.0,0.0,0.0,0.0,0.0,0.0,0.0,0.0,0.0,0.0,0.0,0.0,0.0,0.0,0.0,0.0,0.0,0.0,0.0,0.0,0.0,0.0,0.0,0.0,0.0,0.0,0.0,0.0,0.0,0.0,0.0,0.0,0.0,0.0,0.0,0.0,0.0,0.0,0.0,0.0,0.0,0.0,0.0,0.0,0.0,0.0,0.0,0.0,0.0,0.0,0.0,0.0,0.0,0.0,0.0,0.0,0.0,0.0,0.0,0.0,0.0,0.0,0.0,0.0,0.0,0.0,0.0,0.0,0.0,0.0,0.0,0.0,0.0,0.0,0.0,0.0,0.0,0.0,0.0,0.0,0.0,0.0,0.0,0.0,0.0,0.0,0.0,0.0,0.0,0.0,0.0,0.0,0.0,0.0,0.0,0.0,0.0,0.0,0.0,0.0,0.0,0.0,0.0,0.0,0.0,0.0,0.0,0.0,0.0,0.0,0.0,0.0,0.0,0.0,0.0,0.0,0.0,0.0,0.0,0.0,0.0,0.0,0.0,0.0,0.0,0.0,0.0,0.0,0.0,0.0,0.0,0.0,0.0,0.0,0.0,0.0,0.0,0.0,0.0,0.0,0.0,0.0,0.0,0.0,0.0,0.0,0.0,0.0,0.0,0.0,0.0,0.0,0.0,0.0,0.0,0.0,0.0,0.0,0.0,0.0,0.0,0.0,0.0,0.0,0.0,0.0,0.0,0.0,0.0,0.0,0.0,0.0,0.0,0.0,0.0,0.0,0.0,0.0,0.0,0.0,0.0,0.0,0.0,0.0,0.0,0.0,0.0,0.0,0.0,0.0,0.0,0.0,0.0,0.0,0.0,0.0,0.0,0.0,0.0,0.0,0.0,0.0,0.0,0.0,0.0,0.0,0.0,0.0,0.0,0.0,0.0,0.0,0.0,0.0,0.0,0.0,0.0,0.0,0.0,0.0,0.0,0.0,0.0,0.0,0.0,0.0,0.0,0.0,0.0,0.0,0.0,0.0,0.0,0.0,0.0,0.0,0.0,0.0,0.0,0.0,0.0,0.0,0.0,0.0,0.0,0.0,0.0,0.0,0.0,0.0,0.0,0.0,0.0,0.0,0.0,0.0,0.0,0.0,0.0,0.0,0.0,0.0,0.0,0.0,0.0,0.0,0.0,0.0,0.0,0.0,0.0,0.0,0.0,0.0,0.0,0.0,0.0,0.0,0.0,0.0,0.0,0.0,0.0,0.0,0.0,0.0,0.0,0.0,0.0,0.0,0.0,0.0,0.0,0.0,0.0,0.0,0.0,0.0,0.0,0.0,0.0,0.0,0.0,0.0,0.0,0.0,0.0,0.0,0.0,0.0,0.0,0.0,0.0,0.0,0.0,0.0,0.0,0.0,0.0,0.0,0.0,0.0,0.0,0.0,0.0,0.0,0.0,0.0,0.0,0.0,0.0,0.0,0.0,0.0,0.0,0.0,0.0,0.0,0.0,0.0,0.0,0.0,0.0,0.0,0.0,0.0,0.0,0.0,0.0,0.0,0.0,0.0,0.0,0.0,0.0,0.0,0.0,0.0,0.0,0.0,0.0,0.0,0.0,0.0,0.0,0.0,0.0,0.0,0.0,0.0,0.0,0.0,0.0,0.0,0.0,0.0,0.0,0.0,0.0,0.0,0.0,0.0,0.0,0.0,0.0,0.0,0.0,0.0,0.0,0.0,0.0,0.0,0.0,0.0,0.0,0.0,0.0,0.0,0.0,0.0,0.0,0.0,0.0,0.0,0.0,0.0,0.0,0.0,0.0,0.0,0.0,0.0,0.0,0.0,0.0,0.0,0.0,0.0,0.0,0.0,0.0,0.0,0.0,0.0,0.0,0.0,0.0,0.0,0.0,0.0,0.0,0.0,0.0,0.0,0.0,0.0,0.0,0.0,0.0,0.0,0.0,0.0,0.0,0.0,0.0,0.0,0.0,0.0,0.0,0.0,0.0,0.0,0.0,0.0,0.0,0.0,0.0,0.0,0.0,0.0,0.0,0.0,0.0,0.0,0.0,0.0,0.0,0.0,0.0,0.0,0.0,0.0,0.0,0.0,0.0,0.0,0.0,0.0,0.0,0.0,0.0,0.0,0.0,0.0,0.0,0.0,0.0,0.0,0.0,0.0,0.0,0.0,0.0,0.0,0.0,0.0,0.0,0.0,0.0,0.0,0.0,0.0,0.0,0.0,0.0,0.0,0.0,0.0,0.0,0.0,0.0,0.0,0.0,0.0,0.0,0.0,0.0,0.0,0.0,0.0,0.0,0.0,0.0,0.0,0.0,0.0,0.0,0.0,0.0,0.0,0.0,0.0,0.0,0.0,0.0,0.0,0.0,0.0,0.0,0.0,0.0,0.0,0.0,0.0,0.0,0.0,0.0,0.0,0.0,0.0,0.0,0.0,0.0,0.0,0.0,0.0,0.0,0.0,0.0,0.0,0.0,0.0,0.0,0.0,0.0,0.0,0.0,0.0,0.0,0.0,0.0,0.0,0.0,0.0,0.0,0.0,0.0,0.0,0.0,0.0,0.0,0.0,0.0,0.0,0.0,0.0,0.0,0.0,0.0,0.0,0.0,0.0,0.0,0.0,0.0,0.0,0.0,0.0,0.0,0.0,0.0,0.0,0.0,0.0,0.0,0.0,0.0,0.0,0.0,0.0,0.0,0.0,0.0,0.0,0.0,0.0,0.0,0.0,0.0,0.0,0.0,0.0,0.0,0.0,0.0,0.0,0.0,0.0,0.0,0.0,0.0,0.0,0.0,0.0,0.0,0.0,0.0,0.0,0.0,0.0,0.0,0.0,0.0,0.0,0.0,0.0,0.0,0.0,0.0,-0.3274,0.0,0.0,0.0,0.0,0.0,0.0,0.0,0.0,0.0,0.0,0.0,0.0,0.0,0.0,0.0,0.0,0.0,0.0,0.0,0.0,0.0,0.0,0.0,0.0,0.0,0.0,0.0,0.0,0.0,0.0,0.0,0.0,0.0,0.0,0.0,0.0,0.0,0.0,0.0,0.0,0.0,0.0,0.0,0.0,0.0,0.0,0.0,0.0,0.0,0.0,0.0,0.0,0.0,0.0,0.0,0.0,0.0,0.0,0.0,0.0,0.0,0.0,0.0,0.0,0.0,0.0,0.0,0.0,0.0,0.0,0.0,0.0,0.0,0.0,0.0,0.0,0.0,0.0,0.0,0.0,0.0,0.0,0.0,0.0,0.0,0.0,0.0,0.0,0.0,0.0,0.0,0.0,0.0,0.0,0.0,0.0,0.0,0.0,0.0,0.0,0.0,0.0,0.0,0.0,0.0,0.0,0.0,0.0,0.0,0.0,0.0,0.0,-0.0708,-0.1548,-0.2546,0.0,0.0,0.0,0.0,0.0,0.0,0.0,0.0,0.0,0.0,0.0,0.0,0.0,0.0,0.0,0.0,0.0,0.0,0.0,0.0,0.0,0.0,0.0,0.0,0.0,0.0,0.0,0.0,0.0,0.0,0.0,0.0,0.0,0.0,0.0,0.0,0.0,0.0,0.0,0.0,0.0,0.0,0.0,0.0,0.0,0.0,0.0,0.0,0.0,0.0,0.0,0.0,0.0,0.0,0.0,0.0,0.0,0.0,0.0,0.0,0.0,0.0,0.0,0.0,0.0,0.0,0.0,0.0,0.0,0.0,0.0,0.0,0.0,0.0,0.0,0.0,0.0,0.0,0.0,0.0,0.0,0.0,0.0,0.0,0.0,0.0,0.0,0.0,0.0,0.0,0.0,0.0,0.0,0.0,0.0,0.0,0.0,0.0,0.0,0.0,0.0,0.0,0.0,0.0,0.0,0.0,0.0,0.0,0.0,0.0,0.0,0.0,-0.0539,-0.1271,-0.2214,0.0,0.0,0.0,0.0,0.0,0.0,0.0,0.0,0.0,0.0,0.0,0.0,0.0,0.0,0.0,0.0,0.0,0.0,0.0,0.0,0.0,0.0,0.0,0.0,0.0,0.0,0.0,0.0,0.0,0.0,0.0,0.0,0.0,0.0,0.0,0.0,0.0,0.0,0.0,0.0,0.0,0.0,0.0,0.0,0.0,0.0,0.0,0.0,0.0,0.0,0.0,0.0,0.0,0.0,0.0,0.0,0.0,0.0,0.0,0.0,0.0,0.0,0.0,0.0,0.0,0.0,0.0,0.0,0.0,0.0,0.0,0.0,0.0,0.0,0.0,0.0,0.0,0.0,0.0,0.0,0.0,0.0,0.0,0.0,0.0,0.0,0.0,0.0,0.0,0.0,0.0,0.0,0.0,0.0,0.0,0.0,0.0,0.0,0.0,0.0,0.0,0.0,0.0,0.0,0.0,0.0,0.0,0.0,0.0,0.0,0.0,0.0,-0.0299,0.0,-0.2732,0.0,0.0,0.0,0.0,0.0,0.0,0.0,0.0,0.0,0.0,0.0,0.0,0.0,0.0,0.0,0.0,0.0,0.0,0.0,0.0,0.0,0.0,0.0,0.0,0.0,0.0,0.0,0.0,0.0,0.0,0.0,0.0,0.0,0.0,0.0,0.0,0.0,0.0,0.0,0.0,0.0,0.0,0.0,0.0,0.0,0.0,0.0,0.0,0.0,0.0,0.0,0.0,0.0,0.0,0.0,0.0,0.0,0.0,0.0,0.0,0.0,0.0,0.0,0.0,0.0,0.0,0.0,0.0,0.0,0.0,0.0,0.0,0.0,0.0,0.0,0.0,0.0,0.0,0.0,0.0,0.0,0.0,0.0,0.0,0.0,0.0,0.0,0.0,0.0,0.0,0.0,0.0,0.0,0.0,0.0,0.0,0.0,0.0,0.0,0.0,0.0,0.0,0.0,0.0,0.0,0.0,0.0,0.0,0.0,0.0,0.0,0.0,-0.0118,-0.0784,0.0,0.0,0.0,0.0,0.0,0.0,0.0,0.0,0.0,0.0,0.0,0.0,0.0,0.0,0.0,0.0,0.0,0.0,0.0,0.0,0.0,0.0,0.0,0.0,0.0,0.0,0.0,0.0,0.0,0.0,0.0,0.0,0.0,0.0,0.0,0.0,0.0,0.0,0.0,0.0,0.0,0.0,0.0,0.0,0.0,0.0,0.0,0.0,0.0,0.0,0.0,0.0,0.0,0.0,0.0,0.0,0.0,0.0,0.0,0.0,0.0,0.0,0.0,0.0,0.0,0.0,0.0,0.0,0.0,0.0,0.0,0.0,0.0,0.0,0.0,0.0,0.0,0.0,0.0,0.0,0.0,0.0,0.0,0.0,0.0,0.0,0.0,0.0,0.0,0.0,0.0,0.0,0.0,0.0,0.0,0.0,0.0,0.0,0.0,0.0,0.0,0.0,0.0,0.0,0.0,0.0,0.0,0.0,0.0,0.0,0.0,0.0,0.0,0.0,-0.0492,-0.1523,0.0,0.0,0.0,0.0,0.0,0.0,0.0,0.0,0.0,0.0,0.0,0.0,0.0,0.0,0.0,0.0,0.0,0.0,0.0,0.0,0.0,0.0,0.0,0.0,0.0,0.0,0.0,0.0,0.0,0.0,0.0,0.0,0.0,0.0,0.0,0.0,0.0,0.0,0.0,0.0,0.0,0.0,0.0,0.0,0.0,0.0,0.0,0.0,0.0,0.0,0.0,0.0,0.0,0.0,0.0,0.0,0.0,0.0,0.0,0.0,0.0,0.0,0.0,0.0,0.0,0.0,0.0,0.0,0.0,0.0,0.0,0.0,0.0,0.0,0.0,0.0,0.0,0.0,0.0,0.0,0.0,0.0,0.0,0.0,0.0,0.0,0.0,0.0,0.0,0.0,0.0,0.0,0.0,0.0,0.0,0.0,0.0,0.0,0.0,0.0,0.0,0.0,0.0,0.0,0.0,0.0,0.0,0.0,0.0,0.0,0.0,0.0,0.0,-0.0481,0.0,0.0,0.0,0.0,0.0,0.0,0.0,0.0,0.0,0.0,0.0,0.0,0.0,0.0,0.0,0.0,0.0,0.0,0.0,0.0,0.0,0.0,0.0,0.0,0.0,0.0,0.0,0.0,0.0,0.0,0.0,0.0,0.0,0.0,0.0,0.0,0.0,0.0,0.0,0.0,0.0,0.0,0.0,0.0,0.0,0.0,0.0,0.0,0.0,0.0,0.0,0.0,0.0,0.0,0.0,0.0,0.0,0.0,0.0,0.0,0.0,0.0,0.0,0.0,0.0,0.0,0.0,0.0,0.0,0.0,0.0,0.0,0.0,0.0,0.0,0.0,0.0,0.0,0.0,0.0,0.0,0.0,0.0,0.0,0.0,0.0,0.0,0.0,0.0,0.0,0.0,0.0,0.0,0.0,0.0,0.0,0.0,0.0,0.0,0.0,0.0,0.0,0.0,0.0,0.0,0.0,0.0,0.0,0.0,0.0,0.0,0.0,0.0,0.0,-0.0475,0.0,0.0,0.0,0.0,0.0,0.0,0.0,0.0,0.0,0.0,0.0,0.0,0.0,0.0,0.0,0.0,0.0,0.0,0.0,0.0,0.0,0.0,0.0,0.0,0.0,0.0,0.0,0.0,0.0,0.0,0.0,0.0,0.0,0.0,0.0,0.0,0.0,0.0,0.0,0.0,0.0,0.0,0.0,0.0,0.0,0.0,0.0,0.0,0.0,0.0,0.0,0.0,0.0,0.0,0.0,0.0,0.0,0.0,0.0,0.0,0.0,0.0,0.0,0.0,0.0,0.0,0.0,0.0,0.0,0.0,0.0,0.0,0.0,0.0,0.0,0.0,0.0,0.0,0.0,0.0,0.0,0.0,0.0,0.0,0.0,0.0,0.0,0.0,0.0,0.0,0.0,0.0,0.0,0.0,0.0,0.0,0.0,0.0,0.0,0.0,0.0,0.0,0.0,0.0,0.0,0.0,0.0,0.0,0.0,0.0,0.0,0.0,0.0,0.0,-0.0473,0.0,0.0,0.0,0.0,0.0,0.0,0.0,0.0,0.0,0.0,0.0,0.0,0.0,0.0,0.0,0.0,0.0,0.0,0.0,0.0,0.0,0.0,0.0,0.0,0.0,0.0,0.0,0.0,0.0,0.0,0.0,0.0,0.0,0.0,0.0,0.0,0.0,0.0,0.0,0.0,0.0,0.0,0.0,0.0,0.0,0.0,0.0,0.0,0.0,0.0,0.0,0.0,0.0,0.0,0.0,0.0,0.0,0.0,0.0,0.0,0.0,0.0,0.0,0.0,0.0,0.0,0.0,0.0,0.0,0.0,0.0,0.0,0.0,0.0,0.0,0.0,0.0,0.0,0.0,0.0,0.0,0.0,0.0,0.0,0.0,0.0,0.0,0.0,0.0,0.0,0.0,0.0,0.0,0.0,0.0,0.0,0.0,0.0,0.0,0.0,0.0,0.0,0.0,0.0,0.0,0.0,0.0,0.0,0.0,0.0,0.0,0.0,0.0,0.0,-0.0424,0.0,0.0,0.0,0.0,0.0,0.0,0.0,0.0,0.0,0.0,0.0,0.0,0.0,0.0,0.0,0.0,0.0,0.0,0.0,0.0,0.0,0.0,0.0,0.0,0.0,0.0,0.0,0.0,0.0,0.0,0.0,0.0,0.0,0.0,0.0,0.0,0.0,0.0,0.0,0.0,0.0,0.0,0.0,0.0,0.0,0.0,0.0,0.0,0.0,0.0,0.0,0.0,0.0,0.0,0.0,0.0,0.0,0.0,0.0,0.0,0.0,0.0,0.0,0.0,0.0,0.0,0.0,0.0,0.0,0.0,0.0,0.0,0.0,0.0,0.0,0.0,0.0,0.0,0.0,0.0,0.0,0.0,0.0,0.0,0.0,0.0,0.0,0.0,0.0,0.0,0.0,0.0,0.0,0.0,0.0,0.0,0.0,0.0,0.0,0.0,0.0,0.0,0.0,0.0,0.0,0.0,0.0,0.0,0.0,0.0,0.0,0.0,0.0,0.0,-0.0473,0.0,0.0,0.0,0.0,0.0,0.0,0.0,0.0,0.0,0.0,0.0,0.0,0.0,0.0,0.0,0.0,0.0,0.0,0.0,0.0,0.0,0.0,0.0,0.0,0.0,0.0,0.0,0.0,0.0,0.0,0.0,0.0,0.0,0.0,0.0,0.0,0.0,0.0,0.0,0.0,0.0,0.0,0.0,0.0,0.0,0.0,0.0,0.0,0.0,0.0,0.0,0.0,0.0,0.0,0.0,0.0,0.0,0.0,0.0,0.0,0.0,0.0,0.0,0.0,0.0,0.0,0.0,0.0,0.0,0.0,0.0,0.0,0.0,0.0,0.0,0.0,0.0,0.0,0.0,0.0,0.0,0.0,0.0,0.0,0.0,0.0,0.0,0.0,0.0,0.0,0.0,0.0,0.0,0.0,0.0,0.0,0.0,0.0,0.0,0.0,0.0,0.0,0.0,0.0,0.0,0.0,0.0,0.0,0.0,0.0,0.0,0.0,0.0,0.0,-0.048,-0.1479,0.0,0.0,0.0,0.0,0.0,0.0,0.0,0.0,0.0,0.0,0.0,0.0,0.0,0.0,0.0,0.0,0.0,0.0,0.0,0.0,0.0,0.0,0.0,0.0,0.0,0.0,0.0,0.0,0.0,0.0,0.0,0.0,0.0,0.0,0.0,0.0,0.0,0.0,0.0,0.0,0.0,0.0,0.0,0.0,0.0,0.0,0.0,0.0,0.0,0.0,0.0,0.0,0.0,0.0,0.0,0.0,0.0,0.0,0.0,0.0,0.0,0.0,0.0,0.0,0.0,0.0,0.0,0.0,0.0,0.0,0.0,0.0,0.0,0.0,0.0,0.0,0.0,0.0,0.0,0.0,0.0,0.0,0.0,0.0,0.0,0.0,0.0,0.0,0.0,0.0,0.0,0.0,0.0,0.0,0.0,0.0,0.0,0.0,0.0,0.0,0.0,0.0,0.0,0.0,0.0,0.0,0.0,0.0,0.0,0.0,0.0,0.0,0.0,-0.0438,0.0,0.0,0.0,0.0,0.0,0.0,0.0,0.0,0.0,0.0,0.0,0.0,0.0,0.0,0.0,0.0,0.0,0.0,0.0,0.0,0.0,0.0,0.0,0.0,0.0,0.0,0.0,0.0,0.0,0.0,0.0,0.0,0.0,0.0,0.0,0.0,0.0,0.0,0.0,0.0,0.0,0.0,0.0,0.0,0.0,0.0,0.0,0.0,0.0,0.0,0.0,0.0,0.0,0.0,0.0,0.0,0.0,0.0,0.0,0.0,0.0,0.0,0.0,0.0,0.0,0.0,0.0,0.0,0.0,0.0,0.0,0.0,0.0,0.0,0.0,0.0,0.0,0.0,0.0,0.0,0.0,0.0,0.0,0.0,0.0,0.0,0.0,0.0,0.0,0.0,0.0,0.0,0.0,0.0,0.0,0.0,0.0,0.0,0.0,0.0,0.0,0.0,0.0,0.0,0.0,0.0,0.0,0.0,0.0,0.0,0.0,0.0,0.0,0.0,-0.0495,0.0,0.0,0.0,0.0,0.0,0.0,0.0,0.0,0.0,0.0,0.0,0.0,0.0,0.0,0.0,0.0,0.0,0.0,0.0,0.0,0.0,0.0,0.0,0.0,0.0,0.0,0.0,0.0,0.0,0.0,0.0,0.0,0.0,0.0,0.0,0.0,0.0,0.0,0.0,0.0,0.0,0.0,0.0,0.0,0.0,0.0,0.0,0.0,0.0,0.0,0.0,0.0,0.0,0.0,0.0,0.0,0.0,0.0,0.0,0.0,0.0,0.0,0.0,0.0,0.0,0.0,0.0,0.0,0.0,0.0,0.0,0.0,0.0,0.0,0.0,0.0,0.0,0.0,0.0,0.0,0.0,0.0,0.0,0.0,0.0,0.0,0.0,0.0,0.0,0.0,0.0,0.0,0.0,0.0,0.0,0.0,0.0,0.0,0.0,0.0,0.0,0.0,0.0,0.0,0.0,0.0,0.0,0.0,0.0,0.0,0.0,0.0,0.0,0.0,-0.0502,0.0,0.0,0.0,0.0,0.0,0.0,0.0,0.0,0.0,0.0,0.0,0.0,0.0,0.0,0.0,0.0,0.0,0.0,0.0,0.0,0.0,0.0,0.0,0.0,0.0,0.0,0.0,0.0,0.0,0.0,0.0,0.0,0.0,0.0,0.0,0.0,0.0,0.0,0.0,0.0,0.0,0.0,0.0,0.0,0.0,0.0,0.0,0.0,0.0,0.0,0.0,0.0,0.0,0.0,0.0,0.0,0.0,0.0,0.0,0.0,0.0,0.0,0.0,0.0,0.0,0.0,0.0,0.0,0.0,0.0,0.0,0.0,0.0,0.0,0.0,0.0,0.0,0.0,0.0,0.0,0.0,0.0,0.0,0.0,0.0,0.0,0.0,0.0,0.0,0.0,0.0,0.0,0.0,0.0,0.0,0.0,0.0,0.0,0.0,0.0,0.0,0.0,0.0,0.0,0.0,0.0,0.0,0.0,0.0,0.0,0.0,0.0,0.0,0.0,-0.051,0.0,0.0,0.0,0.0,0.0,0.0,0.0,0.0,0.0,0.0,0.0,0.0,0.0,0.0,0.0,0.0,0.0,0.0,0.0,0.0,0.0,0.0,0.0,0.0,0.0,0.0,0.0,0.0,0.0,0.0,0.0,0.0,0.0,0.0,0.0,0.0,0.0,0.0,0.0,0.0,0.0,0.0,0.0,0.0,0.0,0.0,0.0,0.0,0.0,0.0,0.0,0.0,0.0,0.0,0.0,0.0,0.0,0.0,0.0,0.0,0.0,0.0,0.0,0.0,0.0,0.0,0.0,0.0,0.0,0.0,0.0,0.0,0.0,0.0,0.0,0.0,0.0,0.0,0.0,0.0,0.0,0.0,0.0,0.0,0.0,0.0,0.0,0.0,0.0,0.0,0.0,0.0,0.0,0.0,0.0,0.0,0.0,0.0,0.0,0.0,0.0,0.0,0.0,0.0,0.0,0.0,0.0,0.0,0.0,0.0,0.0,0.0,0.0,0.0,-0.0516,0.0,0.0,0.0,0.0,0.0,0.0,0.0,0.0,0.0,0.0,0.0,0.0,0.0,0.0,0.0,0.0,0.0,0.0,0.0,0.0,0.0,0.0,0.0,0.0,0.0,0.0,0.0,0.0,0.0,0.0,0.0,0.0,0.0,0.0,0.0,0.0,0.0,0.0,0.0,0.0,0.0,0.0,0.0,0.0,0.0,0.0,0.0,0.0,-0.1154,0.0,0.0,0.0,0.0,0.0,0.0,0.0,0.0,0.0,0.0,0.0,0.0,0.0,0.0,0.0,0.0,0.0,0.0,0.0,0.0,0.0,0.0,0.0,0.0,0.0,0.0,0.0,0.0,0.0,0.0,0.0,0.0,0.0,0.0,0.0,0.0,0.0,0.0,0.0,0.0,0.0,0.0,0.0,0.0,0.0,0.0,0.0,0.0,0.0,0.0,0.0,0.0,0.0,0.0,0.0,0.0,0.0,0.0,0.0,0.0,0.0,0.0,0.0,0.0,0.0,-0.0411,0.0,0.0,0.0,0.0,0.0,0.0,0.0,0.0,0.0,0.0,0.0,0.0,0.0,0.0,0.0,0.0,0.0,0.0,0.0,0.0,0.0,0.0,0.0,0.0,0.0,0.0,0.0,0.0,0.0,0.0,0.0,0.0,0.0,0.0,0.0,0.0,0.0,0.0,0.0,0.0,0.0,0.0,0.0,0.0,0.0,0.0,0.0,0.0,0.0,0.0,0.0,0.0,0.0,0.0,0.0,0.0,0.0,0.0,0.0,0.0,0.0,0.0,0.0,0.0,0.0,0.0,0.0,0.0,0.0,0.0,0.0,0.0,0.0,0.0,0.0,0.0,0.0,0.0,0.0,0.0,0.0,0.0,0.0,0.0,0.0,0.0,0.0,0.0,0.0,0.0,0.0,0.0,0.0,0.0,0.0,0.0,0.0,0.0,0.0,0.0,0.0,0.0,0.0,0.0,0.0,0.0,0.0,0.0176,0.0122,0.0063,0.0,0.0,0.0,0.0,-0.0357,-0.1064,0.0,0.0,0.0,0.0,0.0,0.0,0.0,0.0,0.0,0.0,0.0,0.0,0.0,0.0,0.0,0.0,0.0,0.0,0.0,0.0,0.0,0.0,0.0,0.0,0.0,0.0,0.0,0.0,0.0,0.0,0.0,0.0,0.0,0.0,0.0,0.0,0.0,0.0,0.0,0.0,0.0,0.0,0.0,0.0,0.0,0.0,0.0,0.0,-0.1361,0.0,0.0,0.0,0.0,0.0,0.0,0.0,0.0,0.0,0.0,0.0,0.0,0.0,0.0,0.0,0.0,0.0,0.0,0.0,0.0,0.0,0.0,0.0,0.0,0.0,0.0,0.0,0.0,0.0,0.0,0.0,0.0,0.0,0.0,0.0,0.0,0.0,0.0,0.0,0.0,0.0,0.0,0.0,0.0,0.0,0.0,0.0,0.0,0.0,0.0,0.0,0.0,0.0,0.0,0.0,0.0,0.1065,0.0871,0.0601,0.0433,0.0124,0.0,0.0,0.0,-0.0171,-0.055,0.0,0.0,0.0,0.0,0.0,0.0,0.0,0.0,0.0,0.0,0.0,0.0,0.0,0.0,0.0,0.0,0.0,0.0,0.0,0.0,0.0,0.0,0.0,0.0,0.0,0.0,0.0,0.0,0.0,0.0,0.0,0.0,0.0,0.0,0.0,0.0,0.0,0.0,0.0,0.0,0.0,0.0,0.0,0.0,0.0,0.0,0.0,0.0,0.0,-0.1663,0.0,0.0,0.0,0.0,0.0,0.0,0.0,0.0,0.0,0.0,0.0,0.0,0.0,0.0,0.0,0.0,0.0,0.0,0.0,0.0,0.0,0.0,0.0,0.0,0.0,0.0,0.0,0.0,0.0,0.0,0.0,0.0,0.0,0.0,0.0,0.0,0.0,0.0,0.0,0.0,0.0,0.0,0.0,0.0,0.0,0.0,0.0,0.0,0.0,0.0,0.0,0.0,0.0,0.0,0.0,0.2375,0.1859,0.138,0.0914,0.0307,0.0,0.0,0.0,-0.0056,0.0,0.0,0.0,0.0,0.0,0.0,0.0,0.0,0.0,0.0,0.0,0.0,0.0,0.0,0.0,0.0,0.0,0.0,0.0,0.0,0.0,0.0,0.0,0.0,0.0,0.0,0.0,0.0,0.0,0.0,0.0,0.0,0.0,0.0,0.0,0.0,0.0,0.0,0.0,0.0,0.0,0.0,0.0,0.0,0.0,0.0,0.0,0.0,0.0,-0.0404,-0.0804,0.0,0.0,0.0,0.0,0.0,0.0,0.0,0.0,0.0,0.0,0.0,0.0,0.0,0.0,0.0,0.0,0.0,0.0,0.0,0.0,0.0,0.0,0.0,0.0,0.0,0.0,0.0,0.0,0.0,0.0,0.0,0.0,0.0,0.0,0.0,0.0,0.0,0.0,0.0,0.0,0.0,0.0,0.0,0.0,0.0,0.0,0.0,0.0,0.0,0.0,0.0,0.0,0.0,0.0,0.0,0.3708,0.2951,0.2269,0.1679,0.085,0.0364,0.0238,0.0231,0.0167,0.0,0.0,0.0,0.0,0.0,0.0,0.0,0.0,0.0,0.0,0.0,0.0,0.0,0.0,0.0,0.0,0.0,0.0,0.0,0.0,0.0,0.0,0.0,0.0,0.0,0.0,0.0,0.0,0.0,0.0,0.0,0.0,0.0,0.0,0.0,0.0,0.0,0.0,0.0,0.0,0.0,0.0314,0.0265,0.0208,0.0,0.0,0.0,0.0,0.0,0.0,0.0,0.0,0.0,0.0,0.0,0.0,0.0,0.0,0.0,0.0,0.0,0.0,0.0,0.0,0.0,0.0,0.0,0.0,0.0,0.0,0.0,0.0,0.0,0.0,0.0,0.0,0.0,0.0,0.0,0.0,0.0,0.0,0.0,0.0,0.0,0.0,0.0,0.0,0.0,0.0,0.0,0.0,0.0,0.0,0.0,0.0,0.0,0.0,0.0,0.0,0.0,0.0,0.0,0.0,0.0,0.0,0.4903,0.4189,0.3545,0.2948,0.2071,0.146,0.1189,0.0888,0.0644,0.0,0.0,0.0,0.0,0.0,0.0,0.0,0.0,0.0,0.0,0.0,0.0,0.0,0.0,0.0,0.0,0.0,0.0,0.0,0.0,0.0,0.0,0.0,0.0,0.0,0.0,0.0,0.0,0.0,0.0,0.0,0.0,0.0,0.0,0.0,0.0,0.0,0.0,0.0,0.0,0.0,0.1427,0.12,0.0999,0.079,0.0,0.0,0.0,0.0,0.0,0.0,0.0,0.0,0.0,0.0,0.0,0.0,0.0,0.0,0.0,0.0,0.0,0.0,0.0,0.0,0.0,0.0,0.0,0.0,0.0,0.0,0.0,0.0,0.0,0.0,0.0,0.0,0.0,0.0,0.0,0.0,0.0,0.0,0.0,0.0,0.0,0.0,0.0,0.0,0.0,0.0,0.0,0.0,0.0,0.0,0.0,0.0,0.0,0.0,0.0,0.0,0.0,0.0,0.0,0.0,0.6836,0.6498,0.5884,0.5287,0.4695,0.38,0.3066,0.2521,0.1965,0.1365,0.0,0.0,0.0,0.0,0.0,0.0,0.0,0.0,0.0,0.0,0.0,0.0,0.0,0.0,0.0,0.0,0.0,0.0,0.0,0.0,0.0,0.0,0.0,0.0,0.0,0.0,0.0,0.0,0.0,0.0,0.0,0.0,0.0,0.0,0.0,0.0,0.0,0.0,0.0,0.0,0.0,0.0,0.2561,0.2148,0.0,0.0,0.0,0.0,0.0,0.0,0.0,0.0,0.0,0.0,0.0,0.0,0.0,0.0,0.0,0.0,0.0,0.0,0.0,0.0,0.0,0.0,0.0,0.0,0.0,0.0,0.0,0.0,0.0,0.0,0.0,0.0,0.0,0.0,0.0,0.0,0.0,0.0,0.0,0.0,0.0,0.0,0.0,0.0,0.0,0.0,0.0,0.0,0.0,0.0,0.0,0.0,0.0,0.0,0.0,0.0,0.0,0.0,0.0,0.0,0.0,0.0,0.7602,0.7078,0.657,0.6021,0.5234,0.4461,0.3789,0.2999,0.0,0.0,0.0,0.0,0.0,0.0,0.0,0.0,0.0,0.0,0.0,0.0,0.0,0.0,0.0,0.0,0.0,0.0,0.0,0.0,0.0,0.0,0.0,0.0,0.0,0.0,0.0,0.0,0.0,0.0,0.0,0.0,0.0,0.0,0.0,0.0,0.0,0.0,0.0,0.0,0.0,0.0,0.4402,0.3889,0.326,0.2606,0.0,0.0,0.0415,0.0459,0.0411,0.0408,0.0,0.0,0.0,0.0,0.0,0.0,0.0,0.0,0.0,0.0,0.0,0.0,0.0,0.0,0.0,0.0,0.0,0.0,0.0,0.0,0.0,0.0,0.0,0.0,0.0,0.0,0.0,0.0,0.0,0.0,0.0,0.0,0.0,0.0,0.0,0.0,0.0,0.0,0.0,0.0,0.0,0.0,0.0,0.0,0.0,0.0,0.0,0.0,0.0,0.0,0.0,0.0,0.0,0.0,0.0,0.7572,0.7333,0.6998,0.6624,0.6042,0.5411,0.4792,0.4001,0.3288,0.0,0.0,0.0,0.0,0.0,0.0,0.0,0.0,0.0,0.0,0.0,0.0,0.0,0.0,0.0,0.0,0.0,0.0,0.0,0.0,0.0,0.0,0.0,0.0,0.0,0.0,0.0,0.0,0.0,0.0,0.0,0.0,0.0,0.0,0.0,0.0,0.0,0.0,0.0,0.0,0.0,0.5426,0.5041,0.4371,0.3708,0.0,0.0,0.1585,0.1609,0.1554,0.1425,0.1155,0.0,0.0,0.0,0.0,0.0,0.0,0.0,0.0,0.0,0.0,0.0,0.0,0.0,0.0,0.0,0.0,0.0,0.0,0.0,0.0,0.0,0.0,0.0,0.0,0.0,0.0,0.0,0.0,0.0,0.0,0.0,0.0,0.0,0.0,0.0,0.0,0.0,0.0,0.0,0.0,0.0,0.0,0.0,0.0,0.0,0.0,0.0,0.0,0.0,0.0,0.0,0.0,0.0,0.7695,0.7842,0.7969,0.7957,0.7799,0.7589,0.7157,0.6519,0.5737,0.4935,0.0,0.0,0.0,0.0,0.0,0.0,0.0,0.0,0.0,0.0,0.0,0.0,0.0,0.0,0.0,0.0,0.0,0.0,0.0,0.0,0.0,0.0,0.0,0.0,0.0,0.0,0.0,0.0,0.0841,0.1017,0.1472,0.0,0.0,0.0,0.0,0.0,0.0,0.0,0.0,0.0,0.0,0.7215,0.6737,0.614,0.0,0.0,0.4011,0.3368,0.3271,0.3153,0.2893,0.2449,0.1826,0.0,0.0,0.0,0.0,0.0,0.0,0.0,0.0,0.0,0.0,0.0,0.0,0.0,0.0,0.0,0.0,0.0,0.0,0.0,0.0,0.0,0.0,0.0,0.0,0.0,0.0,0.0,0.0,0.0,0.0,0.0,0.0,0.0,0.0,0.0,0.0,0.0,0.0,0.0,0.0,0.0,0.0,0.0,0.0,0.0,0.0,0.0,0.0,0.0,0.0,0.0,0.0,0.7912,0.8222,0.8539,0.8624,0.8671,0.8671,0.839,0.7781,0.7003,0.6259,0.0,0.0,0.0,0.0,0.0,0.0,0.0,0.0,0.0,0.0,0.0,0.0,0.0,0.0,0.0,0.0,0.0,0.0,0.0,0.0,0.0,0.0,0.0,0.0,0.0,0.0,0.0,0.0,0.2054,0.2324,0.297,0.0,0.0,0.0,0.0,0.0,0.0,0.0,0.0,0.0,0.0,0.8157,0.7737,0.7256,0.6748,0.6168,0.5382,0.4778,0.4633,0.4485,0.4198,0.3612,0.0,0.0,0.0,0.0,0.0,0.0,0.0,0.0,0.0,0.0,0.0,0.0,0.0,0.0,0.0,0.0,0.0,0.0,0.0,0.0,0.0,0.0,0.0,0.0,0.0,0.0,0.0,0.0,0.0,0.0,1.0564,0.0,0.0,0.0,0.0,0.0,0.0,0.0,0.0,0.0,0.0,0.0,0.0,0.0,0.0,0.0,0.0,0.0,0.0,0.0,0.0,0.0,0.0,0.8404,0.8787,0.895,0.9035,0.9035,0.9027,0.8831,0.8497,0.7717,0.7017,0.6455,0.0,0.0,0.0,0.0,0.0,0.0,0.0,0.0,0.0,0.0,0.0,0.0,0.0,0.0,0.0,0.0,0.0,0.0,0.0,0.0,0.0,0.0,0.0,0.0,0.0,0.0,0.3513,0.3563,0.3737,0.0,0.0,0.0,0.0,0.0,0.0,0.0,0.0,0.0,0.0,0.7858,0.7949,0.783,0.7395,0.7044,0.6737,0.6133,0.5663,0.5505,0.5452,0.517,0.0,0.0,0.0,0.0,0.0,0.0,0.0,0.0,0.0,0.0,0.0,0.0,0.0,0.0,0.0,0.0,0.0,0.0,0.0,0.0,0.0,0.0,0.0,0.0,0.0,0.0,0.0,1.2672,1.2387,0.0,0.0,0.0,0.0,0.0,0.0,0.0,0.0,0.0,0.0,0.0,1.2432,1.2432,0.0,0.0,0.0,0.0,0.0,0.0,0.0,0.0,0.0,0.0,0.0,0.0,0.9629,0.986,1.019,1.0408,1.0408,1.0408,1.0218,0.978,0.9132,0.8255,0.7125,0.0,0.0,0.0,0.0,0.0,0.0,0.0,0.0,0.0,0.0,0.0,0.0,0.0,0.0,0.0,0.0,0.0,0.0,0.0,0.0,0.0,0.0,0.0,0.0,0.0,0.4488,0.0,0.0,0.0,0.0,0.0,0.0,0.0,0.0,0.0,0.0,0.0,0.7436,0.7487,0.7699,0.7894,0.7939,0.7896,0.7904,0.0,0.0,0.0,0.0,0.0,0.0,0.0,0.0,0.0,0.0,0.0,0.0,0.0,0.0,0.2308,0.1249,0.1035,0.0966,0.0966,0.0,0.0,0.0,0.0,0.0,0.0,0.0,0.0,0.0,0.0,0.0,0.0,0.0,0.0,1.4322,0.0,1.3989,0.0,0.0,0.0,0.0,0.0,0.0,0.0,0.0,1.419,1.4178,1.4092,1.4098,1.4043,0.0,1.3905,1.3391,0.0,0.0,0.0,0.0,0.0,0.0,0.0,0.0,1.0695,1.0966,1.1258,1.1405,1.1405,1.1405,1.1226,1.0817,1.0069,0.9065,0.784,0.7128,0.6385,0.0,0.0,0.0,0.0,0.0,0.0,0.0,0.0,0.0,0.0,0.0,0.0,0.0,0.0,0.0,0.0,0.0,0.0,0.0,0.0,0.0,0.0,0.0,0.561,0.0,0.0,0.0,0.0,0.0,0.0,0.0,0.0,0.0,0.7757,0.7813,0.7993,0.7993,0.8226,0.8465,0.852,0.0,0.0,0.0,0.0,0.0,0.0,0.0,0.7894,0.7186,0.6469,0.5788,0.5067,0.4614,0.4336,0.4367,0.0,0.0,0.2663,0.2362,0.2309,0.2309,0.2244,0.2147,0.2145,0.2188,0.2145,0.0,0.0,0.0,0.0,0.0,0.0,0.0,0.0,1.6384,1.6181,0.0,1.5611,0.0,0.0,0.0,0.0,0.0,0.0,0.0,0.0,1.6576,1.6589,1.6315,1.633,1.6154,1.5838,1.5798,1.5551,1.4957,1.3407,0.0,0.0,0.0,0.0,0.0,0.0,1.1588,1.2023,1.2057,1.2063,1.2069,1.2069,1.1923,1.1638,1.0562,0.9576,0.8692,0.8291,0.7738,0.7057,0.6744,0.0,0.0,0.0,0.0,0.0,0.0,0.0,0.0,0.0,0.0,0.0,0.0,0.0,0.0,0.0,0.0,0.0,0.0,0.0,0.0,0.6919,0.0,0.0,0.0,0.0,0.0,0.0,0.0,0.0,0.0,0.0,0.8894,0.898,0.9161,0.9165,0.0,0.0,0.0,0.0,0.9669,0.9682,0.9673,0.9539,0.923,0.9165,0.8858,0.7989,0.0,0.0,0.529,0.5114,0.5155,0.5156,0.523,0.4972,0.426,0.3969,0.382,0.3816,0.3706,0.366,0.3657,0.36,0.3604,2.0537,0.0,0.0,0.0,0.0,1.7781,1.783,1.7781,1.7774,1.7724,1.7624,1.7309,0.0,0.0,0.0,0.0,0.0,0.0,1.7058,1.7437,1.753,1.7523,1.743,1.7146,1.6949,1.6857,1.6629,1.6316,1.5976,1.5198,1.4184,1.2986,0.0,0.0,0.0,0.0,1.3016,1.314,1.338,1.3483,1.3483,1.3483,1.3126,1.233,1.1598,1.086,1.0184,0.9885,0.9633,0.939,0.9028,0.0,0.0,0.0,0.0,0.0,0.0,0.0,0.0,0.0,0.0,0.0,0.0,0.0,0.0,0.0,0.0,0.0,0.0,0.0,0.7575,0.7673,0.7608,0.0,0.0,0.0,0.0,0.0,0.0,0.0,0.0,0.0,1.1063,1.0736,1.0598,0.0,0.0,1.1013,1.112,1.1092,1.1144,1.1253,0.0,0.0,0.0,1.0601,1.023,0.9446,0.8557,0.7699,0.6983,0.6864,0.6879,0.6867,0.6879,0.6795,0.6535,0.556,0.4798,0.4695,0.4671,0.4607,0.4603,0.4603,0.4603,2.3083,2.1509,2.062,2.0155,2.0019,2.0012,2.0097,2.0155,2.0023,1.9969,1.9938,1.9409,1.9055,1.8706,1.8279,0.0,0.0,0.0,1.8806,1.8951,1.909,1.8964,1.8695,1.844,1.8264,1.8172,1.7796,1.7458,1.7172,1.6791,1.6103,1.5075,0.0,0.0,1.3947,1.4074,1.4219,1.4303,1.4518,1.4615,1.4622,1.4545,1.4106,1.3343,1.2857,1.2373,1.1805,1.162,1.1539,1.1438,1.1156,1.0909,0.0,0.0,0.0,0.0,0.0,0.0,0.0,0.0,0.0,0.0,0.0,0.7065,0.7069,0.0,0.0,0.0,0.8081,0.8457,0.8617,0.8805,0.0,0.0,0.0,0.0,0.0,0.0,0.0,1.1404,1.2272,1.2875,1.2979,1.2683,1.2293,1.186,1.1911,1.1978,1.2163,0.0,1.2368,1.242,1.2411,1.2232,1.1914,1.1718,1.1232,1.0222,0.9425,0.8702,0.8124,0.8009,0.8009,0.8013,0.8009,0.8013,0.8009,0.7151,0.6388,0.607,0.5893,0.5855,0.5852,0.5808,0.5852,2.5335,2.5219,2.3634,2.2832,2.2669,2.2677,2.2785,2.2939,2.2614,2.2411,2.2328,2.1612,2.1201,2.0872,2.034,0.0,2.0466,2.0746,2.0802,2.073,2.0932,2.0717,2.0088,2.0039,1.9886,1.9629,1.9209,1.8852,1.8537,1.8137,1.7788,1.7455,1.6099,1.5318,1.5197,1.5197,1.5305,1.5545,1.5553,1.5545,1.5482,1.5301,1.4969,1.4601,1.4337,1.4001,1.3643,1.3643,1.3561,1.3341,1.3302,1.3087,1.2582,0.0,0.0,0.0,0.0,0.0,0.0,0.0,0.0,0.0,0.0,0.0,0.0,0.0,0.0,0.0,0.9764,0.0,0.9867,1.0228,0.0,0.0,0.0,1.0444,1.0842,1.1636,1.2288,1.2747,0.0,0.0,1.4492,0.0,1.4085,1.2721,1.2687,1.2905,1.3172,1.3438,1.3549,1.3631,1.3607,1.3426,1.3063,1.2677,1.1959,1.0801,1.0077,0.9568,0.8959,0.8784,0.8771,0.8788,0.8767,0.8775,0.8771,0.8736,0.8504,0.7813,0.7358,0.7119,0.7068,0.7004,0.6943,2.7548,2.7519,2.7087,2.5835,2.4131,2.4122,2.3965,2.372,2.3633,2.3372,2.3016,2.2594,2.2263,2.1933,2.1805,2.1769,2.1819,2.1868,2.1865,2.1808,2.1504,2.1407,2.1408,2.1336,2.115,2.0885,2.065,2.0323,1.993,1.9586,1.9356,1.9256,1.8928,1.8082,1.6806,1.6774,1.6766,1.6854,1.6854,1.6718,1.6397,1.6015,1.589,1.6142,1.611,1.6147,1.6332,1.6339,1.63,1.6255,1.6078,1.5929,1.581,1.4934,0.0,0.0,0.0,0.0,0.0,0.0,0.0,0.0,0.0,1.0207,1.0212,0.0,1.0207,0.0,1.0684,1.098,1.0976,1.1245,0.0,0.0,1.1094,1.1255,1.1656,1.2213,1.2795,1.3369,1.413,1.4643,1.4937,1.5106,1.5049,1.4719,1.4528,1.454,1.4937,1.5489,1.5793,1.5749,1.572,1.5592,1.482,1.3836,1.2808,1.196,1.1483,1.0933,1.0265,1.0135,1.0135,1.0096,1.0139,1.0139,1.0086,1.0139,1.0062,0.98,0.8719,0.7666,0.7529,0.7268,0.6972,2.8408,2.8291,2.8461,2.7627,2.6262,2.6072,2.5838,2.5624,2.5261,2.4922,2.4681,2.4282,2.4015,2.3801,2.3791,2.3698,2.356,2.3522,2.3289,2.2927,2.2649,2.259,2.2754,2.2722,2.2761,2.2824,2.2595,2.2348,2.2082,2.1691,2.1486,2.1524,2.1486,2.0907,1.9697,1.8689,1.8118,1.8158,1.7904,1.7665,1.7447,1.7162,1.7058,1.7226,1.7158,1.7184,1.7335,1.7344,1.7344,1.7327,1.7209,1.7051,1.6834,1.6117,1.5231,0.0,0.0,0.0,0.0,0.0,0.0,0.0,0.0,0.0,0.0,0.0,1.1384,1.1513,1.2006,1.2326,1.2373,1.262,1.2725,1.2612,1.2599,1.2681,1.2927,1.3144,1.3524,1.4111,1.4746,1.5304,1.5643,1.6008,1.6247,1.6247,1.6109,1.6007,1.5971,1.6435,1.6811,1.6939,1.6722,1.6179,1.5175,1.4282,1.3462,1.2855,1.2407,1.1916,1.1244,1.0993,1.0957,1.0826,1.0826,1.0826,1.0831,1.0831,1.0826,1.0674,0.9824,0.8815,0.8193,0.7678,0.7191,2.8611,2.8344,2.8562,2.863,2.8499,2.7996,2.7708,2.7555,2.681,2.6397,2.6279,2.5849,2.5713,2.5654,2.5703,2.5506,2.5179,2.511,2.4687,2.3978,2.391,2.3919,2.3902,2.4096,2.4361,2.4678,2.4487,2.4307,2.4228,2.3849,2.3661,2.3661,2.3604,2.332,2.2797,2.0698,1.9615,1.9551,1.9006,1.8739,1.8739,1.8575,1.8339,1.8175,1.7953,1.7758,1.7653,1.7653,1.7644,1.7653,1.7653,1.7483,1.7134,1.6746,1.6011,0.0,1.4374,0.0,0.0,0.0,0.0,0.0,0.0,0.0,0.0,1.2452,1.2618,1.2916,1.3339,1.3662,1.3703,1.398,1.4142,1.4135,1.4135,1.4142,1.4142,1.4135,1.4302,1.4698,1.5337,1.5904,1.6369,1.6993,1.7389,1.7332,1.7415,1.7294,1.6935,1.7115,1.7392,1.7503,1.6971,1.6166,1.5061,1.4472,1.4177,1.3717,1.3391,1.2837,1.224,1.1966,1.172,1.1485,1.1462,1.141,1.1387,1.1399,1.1404,1.1422,1.0903,1.01,0.8986,0.8197,0.7546,2.8963,2.8305,2.8436,2.8777,2.9227,2.8493,2.7798,2.7192,2.6874,2.6379,2.5859,2.5723,2.5585,2.548,2.567,2.5618,2.5417,2.5243,2.5088,2.4904,2.4559,2.4427,2.4563,2.4878,2.4973,2.4808,2.5105,2.5038,2.4596,2.4527,2.448,2.4433,2.4037,2.3793,2.3619,0.0,0.0,0.0,2.0928,2.0679,2.0668,2.0066,1.9661,1.9532,1.9214,0.0,1.8929,1.8949,1.8912,1.8949,1.8949,0.0,0.0,0.0,0.0,0.0,0.0,0.0,0.0,0.0,0.0,0.0,1.4233,1.3921,1.3339,1.3273,1.3365,1.3674,1.378,1.3951,1.4209,1.4288,1.4363,1.4363,1.4363,1.4324,1.4363,1.4324,1.4554,1.5138,1.56,1.6097,1.6679,1.7394,1.7857,1.7939,1.8215,1.8519,1.8678,1.8581,1.8492,1.8152,1.7402,1.664,1.5825,1.5632,1.5478,1.5426,1.5211,1.4694,1.4105,1.3696,1.337,1.285,1.281,1.2751,1.2751,1.2803,1.2685,1.2797,1.2239,1.1295,0.9567,0.8689,0.8086,2.9714,0.0,2.9219,2.9505,0.0,2.9305,2.8742,2.8041,2.7196,2.6416,2.5684,2.5684,2.5633,2.5615,2.5756,2.5698,2.538,2.5349,2.5348,2.5368,2.5163,2.5204,2.5502,2.5775,2.5777,2.5557,2.5877,2.5873,2.5594,2.5581,2.5448,2.5146,2.4866,2.4478,2.3968,2.3135,2.2412,2.176,2.1508,2.1415,2.136,2.0854,2.0466,2.0136,0.0,0.0,0.0,0.0,0.0,0.0,0.0,0.0,0.0,0.0,0.0,1.7516,1.7035,1.6526,1.588,1.5719,1.5716,1.5773,1.5618,1.5148,1.4394,1.4449,1.4613,1.4701,1.4834,1.5003,1.5165,1.5188,1.5188,1.5188,1.5188,1.5188,1.5188,1.5188,1.5427,1.5934,1.6459,1.6997,1.7495,1.8355,1.8898,1.8935,1.9347,1.9603,1.9551,1.9223,1.8797,1.8173,1.7649,1.7003,1.6336,1.6139,1.6147,1.6111,1.5863,1.5429,1.4844,1.4441,1.4043,1.349,1.3269,1.3192,1.3071,1.2995,1.2874,1.2752,1.2411,1.1771,1.0532,0.9791,0.9112,3.0791,2.9718,3.0231,3.0339,3.0111,3.0231,2.9972,2.9257,0.0,0.0,0.0,2.5886,2.5896,2.5997,2.6017,2.5912,2.5641,2.578,2.5874,2.5965,2.5875,2.6047,2.6401,2.6453,2.6392,2.631,2.6422,2.6487,2.6487,2.6487,2.6197,2.5636,2.5498,2.4953,2.3953,2.3437,2.2781,2.2002,2.1896,2.1877,2.1834,2.1534,2.1167,2.0677,2.0291,1.9835,1.9396,1.9353,1.9353,1.9353,1.9353,1.9363,1.9353,1.9187,1.8977,1.8636,1.8512,1.8321,1.8007,1.775,1.7522,1.7276,1.6828,1.6263,1.5446,1.5616,1.571,1.571,1.5947,1.603,1.6038,1.6038,1.6038,1.603,1.6038,1.603,1.603,1.6038,1.62,1.6716,1.72,1.7752,1.8109,1.8971,1.9678,1.9774,1.999,2.0328,1.987,1.9276,1.8685,1.8122,1.7799,1.7346,1.6816,1.6665,1.6594,1.6657,1.636,1.5903,1.533,1.4867,1.441,1.3965,1.363,1.3397,1.3127,1.2905,1.2636,1.2378,1.2194,1.1966,1.1595,1.1062,1.034,3.1999,3.1141,3.0861,3.1077,3.1561,3.1264,3.0838,3.0135,2.8085,2.7098,2.6972,2.6582,2.652,2.6736,2.6704,2.6779,2.6969,2.7273,2.748,0.0,2.6997,2.6811,2.6792,2.6491,2.6298,2.6233,2.6433,2.6487,2.6487,2.6487,2.6197,2.5598,2.5146,2.4495,2.3713,2.3565,2.3467,2.3318,2.3035,2.2884,2.2884,2.2635,2.2211,2.169,2.1356,2.0933,2.0409,2.0409,2.0398,2.0398,2.0409,2.0398,2.0398,2.0333,2.0333,2.0257,2.0225,2.0225,2.016,1.9879,1.9332,1.8596,1.8066,1.7304,1.6271,1.6175,1.6202,1.6211,1.6281,1.6245,1.6254,1.628,1.6298,1.6307,1.6263,1.6245,1.6325,1.6325,1.6493,1.6882,1.7099,1.7441,1.783,1.8418,1.8922,1.911,1.9677,1.9907,1.9778,1.9127,1.8663,1.8472,1.8147,1.7924,1.7666,1.7759,1.7657,1.7759,1.7417,1.6959,1.6367,1.5948,1.5525,1.5065,1.4645,1.4214,1.3709,1.3324,1.2973,1.2526,1.2342,1.2261,1.2137,1.1957,1.1557,3.2697,3.1618,3.1634,3.1786,3.1949,3.1745,3.1448,3.0989,2.9455,2.8435,2.7955,2.775,2.7566,2.7375,2.7379,2.7476,2.7636,2.7857,2.7942,2.7942,2.7698,2.7433,2.7127,2.6952,2.6675,2.6386,2.6465,2.6487,2.6487,2.6487,2.6059,2.5172,2.4488,2.4098,2.3995,2.3985,2.3972,2.3985,2.3497,2.321,2.3108,2.2921,2.2604,2.218,2.1944,2.1608,2.1164,2.1144,2.1132,2.1132,2.1132,2.1132,2.1132,2.1132,2.1132,2.1132,2.1132,2.1132,2.1132,2.0613,1.9998,1.9386,1.8865,1.8395,1.7857,1.7457,1.7226,1.7226,1.7192,1.7226,1.7226,1.7226,1.7226,1.7235,1.7226,1.7226,1.7235,1.7226,1.7295,1.7495,1.7554,1.7691,1.7828,1.83,1.8703,1.9049,1.9685,2.0222,2.0434,1.9862,1.9172,1.865,1.833,1.8139,1.8042,1.8008,1.8008,1.8008,1.7794,1.7442,1.7001,1.6689,1.6306,1.5877,1.5498,1.5037,1.4466,1.4049,1.3586,1.3127,1.2863,1.2748,1.2487,1.2136,1.1676,3.3246,3.2192,3.2445,3.2435,3.2264,3.2264,3.2047,3.1671,3.0913,3.0028,2.9111,2.8739,2.8405,2.8159,2.8115,2.8194,2.8313,2.8462,2.8436,2.8298,2.816,2.7821,2.7293,2.7203,2.6901,2.6593,2.6589,2.6624,2.6645,2.6599,2.5932,2.4887,2.4176,2.4073,2.4481,2.4538,2.4538,2.4481,2.3998,2.3497,2.3108,2.2987,2.2805,2.2561,2.2451,2.2254,2.197,2.1928,2.1928,2.1939,2.1939,2.1939,2.1939,2.1928,2.1939,2.1928,2.1928,2.1896,2.1815,2.1155,2.0581,2.0193,1.9704,1.9452,1.9386,1.8931,1.8462,1.8313,1.8236,1.8236,1.8245,1.8236,1.8245,1.8245,1.8245,1.8236,1.8236,1.8245,1.8245,1.8245,1.8245,1.8245,1.8305,1.8532,1.8908,1.9503,2.016,2.0775,2.1106,2.0717,1.9966,1.9198,1.864,1.8313,1.8076,1.8008,1.8008,1.8008,1.7896,1.7681,1.7407,1.7245,1.7072,1.6724,1.642,1.6,1.5428,1.4966,1.4537,1.4042,1.3657,1.3179,1.2537,1.1908,1.1476,3.382,3.3633,3.3196,3.3002,3.2995,3.2982,3.2652,3.2159,3.2005,3.139,3.0269,2.9071,2.8733,2.8992,2.8811,2.89,2.9254,2.9513,2.9315,2.875,2.8335,2.7808,2.7278,2.6813,2.6606,2.6692,2.6871,2.7027,2.7144,2.6771,2.5998,2.5005,2.4739,2.4808,2.5091,2.5231,2.5231,2.5133,2.4808,2.4173,2.3155,2.3108,2.3078,2.3047,2.3017,2.2987,2.2944,2.2944,2.2975,2.2944,2.2944,2.2957,2.2957,2.2944,2.2944,2.2944,2.2944,2.2866,2.2574,2.2056,2.1596,2.1262,2.073,2.043,2.043,2.0376,1.9955,1.9287,1.9031,1.9008,1.9008,1.8998,1.9031,1.9031,1.9031,1.9008,1.8998,1.9008,1.9008,1.8975,1.9031,1.8998,1.9052,1.9114,1.9447,2.0249,2.0781,2.1284,2.1568,2.1363,2.0869,2.0226,1.9452,1.8674,1.8245,1.8008,1.8076,1.8042,1.8008,1.7906,1.7837,1.7837,1.7837,1.751,1.7417,1.6985,1.6471,1.6105,1.5597,1.4841,1.4225,1.3539,1.2514,1.1812,1.1458,3.3709,3.3395,3.3169,3.3124,3.3124,3.3124,3.2742,3.2202,3.1863,3.1298,3.0541,2.965,2.9383,2.9529,2.9438,2.9495,2.9663,2.974,2.9302,2.8473,2.821,2.7645,2.6864,2.6625,2.6624,2.6905,2.7229,2.738,2.7207,2.6685,2.6129,2.5686,2.5491,2.5591,2.596,2.6041,2.6014,2.596,2.5687,2.5175,2.4496,2.3943,2.3691,2.3691,2.3691,2.3691,2.3679,2.3679,2.3691,2.3691,2.3691,2.3679,2.3691,2.3691,2.3691,2.3691,2.3497,2.3271,2.2939,2.2469,2.2099,2.1894,2.1439,2.1164,2.1195,2.1195,2.0974,2.0623,2.0215,1.9987,1.9987,1.9998,1.9998,1.9987,1.9998,1.9998,1.9987,1.9987,1.9987,1.9987,1.9998,1.9987,2.0031,2.0161,2.0549,2.1187,2.1639,2.1982,2.2353,2.2242,2.1839,2.1345,2.0698,1.9868,1.8975,1.8539,1.8438,1.8313,1.8212,1.8144,1.8018,1.8008,1.8008,1.8008,1.7765,1.7334,1.6616,1.6326,1.5925,1.524,1.4272,1.336,1.2684,1.2014,1.155,3.3445,3.3149,3.3124,3.3124,3.3124,3.3124,3.2654,3.1976,3.1549,3.1022,3.0382,2.9967,2.9779,2.9779,2.9779,2.9779,2.9767,2.9628,2.9089,2.8233,2.8055,2.7546,2.679,2.676,2.6985,2.7364,2.7815,2.7852,2.7503,2.6832,2.6398,2.6231,2.6089,2.6242,2.6575,2.6669,2.6669,2.659,2.639,2.6068,2.5618,2.5035,2.4624,2.4481,2.4465,2.4465,2.4465,2.4452,2.4452,2.4465,2.4452,2.4452,2.4465,2.4452,2.4394,2.4308,2.3972,2.3662,2.3322,2.2866,2.2543,2.2451,2.2168,2.2002,2.2002,2.2002,2.2002,2.1959,2.1542,2.1227,2.0878,2.0878,2.0878,2.0878,2.0878,2.0878,2.0858,2.0878,2.0846,2.0878,2.0846,2.0878,2.091,2.1155,2.1526,2.192,2.2304,2.2665,2.2957,2.2878,2.2531,2.2118,2.1765,2.104,1.9813,1.932,1.9065,1.8774,1.8596,1.8337,1.8076,1.8008,1.8008,1.7998,1.7784,1.7509,1.7016,1.6618,1.6057,1.5253,1.4392,1.3592,1.3186,1.2484,1.2103,3.3093,3.3124,3.3124,3.3124,3.3124,3.3124,3.2441,3.1474,3.1439,3.0809,2.9942,2.9804,2.9779,2.9779,2.9779,2.9779,2.9704,2.9239,2.8749,2.8314,2.8007,2.7631,2.7294,2.7403,2.7743,2.8241,2.8597,2.8574,2.8153,2.747,2.6858,2.6369,2.6537,2.6747,2.6916,2.7074,2.7074,2.6901,2.6774,2.6563,2.631,2.6188,2.5892,2.5453,2.5342,2.5315,2.5342,2.5342,2.5342,2.5356,2.5315,2.5342,2.5342,2.5315,2.5189,2.4895,2.4496,2.4134,2.3783,2.3352,2.3065,2.3078,2.3035,2.3005,2.3005,2.2992,2.2975,2.3017,2.2884,2.2506,2.1772,2.1604,2.1585,2.1585,2.1608,2.162,2.1585,2.1675,2.1585,2.1585,2.1616,2.1616,2.1616,2.1913,2.2161,2.2408,2.2665,2.2939,2.3017,2.2987,2.2744,2.2512,2.2204,2.1788,2.0794,2.0215,1.9802,1.9441,1.9054,1.8674,1.8269,1.8008,1.8042,1.7944,1.7676,1.748,1.7301,1.6893,1.6227,1.5592,1.504,1.4369,1.3747,1.3297,1.2948,3.3124,3.3124,3.3124,3.3124,3.3124,3.3124,3.2428,3.1411,3.1386,3.0796,2.9905,2.9779,2.9779,2.9779,2.9779,2.9591,2.9201,2.8988,2.8583,2.8084,2.817,2.8121,2.7967,2.8306,2.8666,2.9079,2.9549,2.9532,2.9002,2.8024,2.7362,2.7196,2.7229,2.7306,2.7342,2.7408,2.7423,2.7357,2.7306,2.7229,2.7111,2.7152,2.7008,2.6811,2.6256,2.5987,2.5987,2.5973,2.5987,2.5973,2.5987,2.5987,2.5973,2.5973,2.5837,2.555,2.5133,2.4738,2.4436,2.4002,2.375,2.3738,2.3738,2.3738,2.3738,2.3738,2.3734,2.3599,2.3467,2.3168,2.2896,2.2628,2.2567,2.2604,2.2874,2.2892,2.2739,2.2862,2.3003,2.2665,2.2567,2.2567,2.2537,2.2684,2.2775,2.2848,2.2957,2.3017,2.3078,2.3047,2.2957,2.2909,2.2818,2.2653,2.2341,2.1302,2.0581,2.0128,1.9715,1.9287,1.8888,1.859,1.8546,1.8045,1.772,1.714,1.6892,1.6307,1.5787,1.5559,1.5046,1.4817,1.4297,1.3923,1.3743,3.3124,3.3124,3.3124,3.3124,3.3124,3.3124,3.2441,3.1436,3.1373,3.0783,2.993,2.9779,2.9779,2.9779,2.9779,2.9542,2.9113,2.8923,2.866,2.8425,2.8543,2.8637,2.878,2.9156,2.9532,2.983,3.0143,3.0058,2.9525,2.8483,2.7839,2.7615,2.7585,2.7585,2.7585,2.7585,2.7585,2.7585,2.7585,2.76,2.7585,2.7585,2.7585,2.7509,2.7008,2.6747,2.6707,2.6721,2.6707,2.6707,2.6707,2.6707,2.6707,2.6721,2.659,2.6312,2.5878,2.5481,2.5203,2.4766,2.4509,2.4523,2.4523,2.4509,2.4523,2.4509,2.4436,2.4247,2.3969,2.375,2.3514,2.3245,2.3095,2.3145,2.3459,2.3534,2.3183,2.3446,2.3428,2.3135,2.3035,2.3065,2.3095,2.3095,2.3078,2.3095,2.3095,2.3095,2.3095,2.3095,2.3095,2.3095,2.3078,2.3047,2.2854,2.2168,2.1502,2.106,2.0592,2.0096,1.9639,1.9302,1.8808,1.825,1.7577,1.6884,1.6275,1.5723,1.543,1.5303,1.5215,1.5037,1.4775,1.4656,1.4469,3.3124,3.3167,3.3124,3.3172,3.3122,3.3164,3.2475,3.1559,3.1417,3.088,3.0035,2.9856,2.9934,2.9856,2.9934,2.9771,2.9622,2.9207,2.9155,2.9462,2.9129,2.9204,2.9608,2.9962,3.0282,3.0554,3.0395,3.0086,2.9654,2.8891,2.8218,2.7735,2.7615,2.7585,2.7585,2.7585,2.7585,2.7585,2.7585,2.7585,2.7585,2.7585,2.7585,2.7585,2.7509,2.7484,2.7509,2.7509,2.7484,2.7509,2.7509,2.756,2.7484,2.7484,2.7448,2.7089,2.6709,2.6377,2.6068,2.5618,2.537,2.537,2.5398,2.5342,2.5342,2.537,2.5217,2.4909,2.4553,2.4205,2.3872,2.3484,2.3155,2.3108,2.3246,2.3271,2.3145,2.3108,2.3108,2.3095,2.3095,2.3095,2.3095,2.3095,2.3095,2.3095,2.3095,2.3095,2.3095,2.3095,2.3095,2.3095,2.3095,2.3095,2.3047,2.2927,2.2476,2.2044,2.1545,2.1103,2.0534,2.0093,1.9361,1.8712,1.7369,1.6638,1.6148,1.5663,1.5576,1.543,1.5362,1.5303,1.5157,1.504,1.5157,3.3598,3.3781,3.3937,3.3759,3.3382,3.3369,3.2712,3.1719,3.1667,3.1242,3.07,3.0609,3.0622,3.0609,3.0609,3.0781,3.105,3.0717,3.0292,2.9888,3.0205,3.0411,3.0476,3.0837,3.1117,3.1115,3.0695,3.0376,3.0043,2.9146,2.8472,2.8248,2.7824,2.76,2.7585,2.7585,2.7585,2.7585,2.7585,2.7585,2.7585,2.7585,2.7585,2.7585,2.7585,2.7585,2.7585,2.7585,2.7585,2.7585,2.7585,2.7585,2.7585,2.7585,2.7499,2.731,2.6982,2.6707,2.651,2.6229,2.6041,2.6014,2.6027,2.6,2.6014,2.6041,2.592,2.5619,2.5189,2.4794,2.4494,2.4073,2.3713,2.318,2.3446,2.3532,2.3201,2.3108,2.3095,2.3095,2.3095,2.3095,2.3095,2.3095,2.3095,2.3095,2.3095,2.3095,2.3095,2.3095,2.3095,2.3095,2.3095,2.3095,2.3078,2.3047,2.2823,2.2506,2.2211,2.1932,2.1389,2.0782,2.0025,1.8914,1.7556,1.6645,1.6129,1.5816,1.5768,1.5604,1.5488,1.5449,1.542,1.542,1.542,3.4246,3.4579,3.4924,3.4713,3.4206,3.418,3.3487,3.2488,3.2382,3.2099,3.1683,3.1589,3.1589,3.1589,3.1589,3.1882,3.2299,3.2361,3.1842,3.0974,3.1148,3.127,3.1073,3.1307,3.1496,3.1436,3.1062,3.0746,3.0477,2.9729,2.9071,2.8592,2.8158,2.7824,2.763,2.7665,2.7675,2.7725,2.7815,2.785,2.7875,2.785,2.78,2.7765,2.77,2.765,2.76,2.7585,2.7585,2.7585,2.7585,2.7585,2.7585,2.7585,2.7575,2.7448,2.7306,2.7097,2.7049,2.6904,2.68,2.68,2.68,2.6785,2.6829,2.6945,2.7031,2.675,2.6566,2.6287,2.6017,2.56,2.5106,2.4708,2.4223,2.3862,2.3368,2.3241,2.318,2.3138,2.3095,2.3095,2.3095,2.3095,2.3095,2.3095,2.3095,2.3095,2.3095,2.3095,2.3095,2.3095,2.3095,2.3095,2.3095,2.3095,2.3095,2.2914,2.2714,2.2519,2.2212,2.1612,2.0899,1.9442,1.8041,1.7377,1.6818,1.6324,1.6093,1.5874,1.5681,1.5478,1.542,1.542,1.542,3.502,3.5453,3.6027,3.5839,3.53,3.5259,3.4503,3.3496,3.3349,3.3068,3.2712,3.2621,3.2642,3.2642,3.2621,3.2847,3.3283,3.3662,3.333,3.2576,3.22,3.178,3.1367,3.1438,3.1496,3.1481,3.1451,3.1137,3.0702,3.0417,2.9909,2.8936,2.8652,2.8278,2.7865,2.7786,2.789,2.8039,2.8186,2.8308,2.8453,2.8332,2.8186,2.8039,2.7915,2.7765,2.7625,2.7585,2.7585,2.7585,2.7585,2.7585,2.7585,2.7585,2.7585,2.76,2.76,2.7534,2.756,2.7458,2.7458,2.7458,2.7458,2.763,2.7652,2.8018,2.824,2.8145,2.8171,2.8139,2.7811,2.7451,2.7161,2.7045,2.5515,2.4308,2.3794,2.3578,2.3348,2.3168,2.3095,2.3095,2.3095,2.3095,2.3095,2.3095,2.3095,2.3095,2.3095,2.3095,2.3095,2.3095,2.3095,2.3095,2.3095,2.3095,2.3095,2.3065,2.2957,2.2884,2.2688,2.2115,2.1547,2.0088,1.8908,1.8205,1.7537,1.7084,1.6591,1.6293,1.6017,1.5613,1.5468,1.5555,1.5507,3.5976,3.6517,3.7025,3.6609,3.5665,3.5594,3.4901,3.3783,3.3726,3.3704,3.3506,3.3492,3.3506,3.3492,3.3492,3.3693,3.4085,3.4341,3.394,3.3184,3.3089,3.2377,3.1632,3.1467,3.1496,3.1496,3.1496,3.1421,3.1197,3.0748,3.0328,2.9998,2.9071,2.8562,2.8334,2.8087,2.8103,2.8359,2.8614,2.8858,2.9074,2.8951,2.8693,2.8374,2.8195,2.7949,2.765,2.7585,2.7585,2.7585,2.7585,2.7585,2.7585,2.7585,2.7585,2.7585,2.7585,2.7585,2.7585,2.7585,2.7585,2.7585,2.7645,2.7824,2.8334,2.8487,2.8752,2.8904,2.8913,2.875,2.8539,2.8312,2.8125,2.7839,2.6614,2.5381,2.4817,2.4148,2.356,2.3198,2.3175,2.3206,2.3218,2.3168,2.3138,2.3138,2.3138,2.3108,2.3108,2.3095,2.3095,2.3095,2.3095,2.3095,2.3095,2.3095,2.3095,2.3095,2.3065,2.3035,2.2747,2.2307,2.1745,2.0889,2.0037,1.9272,1.8526,1.7879,1.7392,1.7066,1.6576,1.6292,1.599,1.5902,1.5768,3.7078,3.7606,3.815,3.7754,3.6902,3.6858,3.6128,3.5107,3.4932,3.4757,3.4563,3.4505,3.4505,3.4491,3.4505,3.462,3.4835,3.4953,3.4359,3.3344,3.2811,3.2183,3.1615,3.1496,3.1496,3.1496,3.1496,3.1496,3.1436,3.1077,3.0793,3.0417,2.9774,2.916,2.8588,2.8581,2.8529,2.8708,2.8974,2.9325,2.9683,2.9506,2.9212,2.8842,2.8614,2.8301,2.7999,2.794,2.784,2.7675,2.7585,2.7585,2.7585,2.7585,2.7585,2.7585,2.7585,2.7585,2.7585,2.7585,2.7585,2.766,2.7824,2.8188,2.8637,2.9026,2.9597,2.9769,2.99,2.995,2.988,2.9737,2.9666,2.9551,2.8455,2.7236,2.6151,2.5439,2.4805,2.4378,2.4055,2.3901,2.3858,2.3633,2.3416,2.3318,2.3288,2.3198,2.3138,2.3108,2.3095,2.3095,2.3095,2.3095,2.3095,2.3095,2.3095,2.3095,2.3095,2.3095,2.2935,2.2561,2.2243,2.1704,2.1039,2.039,1.9667,1.9055,1.8685,1.8266,1.7606,1.7063,1.675,1.6293,1.6142,3.8136,3.8627,3.9171,3.899,3.8267,3.8242,3.7302,3.6443,3.6138,3.5869,3.5481,3.5457,3.5326,3.5489,3.5294,3.5457,3.5457,3.5392,3.4573,3.3439,3.2378,3.1555,3.154,3.1496,3.1496,3.1496,3.1496,3.1496,3.1481,3.1451,3.1167,3.0746,3.0522,2.9894,2.918,2.9097,2.9126,2.9202,2.9428,2.9826,3.0172,3.0092,2.9772,2.9438,2.909,2.8826,2.8605,2.8501,2.8317,2.781,2.77,2.765,2.765,2.7625,2.7585,2.7585,2.7585,2.7585,2.7585,2.7585,2.7675,2.7824,2.8278,2.8727,2.9041,2.9789,3.0372,3.0569,3.1152,3.1214,3.1244,3.1348,3.1216,3.0981,3.0466,2.9334,2.794,2.7062,2.657,2.6127,2.5546,2.5304,2.4981,2.4573,2.4001,2.3734,2.3586,2.3348,2.3228,2.3108,2.3095,2.3095,2.3095,2.3095,2.3095,2.3095,2.3095,2.3095,2.3095,2.3095,2.3095,2.2872,2.2752,2.2351,2.1724,2.1367,2.1043,2.0511,1.997,1.937,1.8669,1.8115,1.76,1.697,1.6634,3.859,3.8995,3.9265,3.8721,3.7734,3.7599,3.6911,3.5789,3.5759,3.5729,3.5534,3.5489,3.5489,3.5489,3.5489,3.5489,3.5474,3.537,3.4771,3.344,3.2108,3.1555,3.1496,3.1496,3.1496,3.1496,3.1496,3.1496,3.1496,3.1481,3.1436,3.1241,3.0776,3.0372,3.0081,2.9652,2.9601,2.9965,3.0089,3.0371,3.0773,3.0712,3.041,3.0032,2.9556,2.9287,2.9219,2.9196,2.9058,2.8724,2.8284,2.8025,2.7806,2.7665,2.76,2.7615,2.763,2.763,2.7615,2.7705,2.7854,2.8353,2.8637,2.9026,3.0028,3.0298,3.0791,3.1122,3.1421,3.1496,3.1496,3.1496,3.1496,3.1422,3.1187,3.0719,2.9914,2.8622,2.7654,2.7189,2.6916,2.6658,2.6188,2.5801,2.5159,2.4392,2.3923,2.3586,2.3335,2.3155,2.3138,2.3138,2.3095,2.3095,2.3095,2.3095,2.3095,2.3095,2.3095,2.3095,2.3095,2.3095,2.2932,2.2744,2.2477,2.2164,2.1886,2.1391,2.0708,2.0203,1.9767,1.9289,1.8707,1.7924,1.7398,3.9046,3.9265,3.9352,3.8826,3.7958,3.7838,3.715,3.6133,3.5968,3.5789,3.5549,3.5489,3.5489,3.5489,3.5489,3.5489,3.531,3.4801,3.4203,3.3275,3.2153,3.1525,3.1496,3.1496,3.1496,3.1496,3.1496,3.1496,3.1496,3.1496,3.1496,3.1496,3.1207,3.099,3.0857,3.0575,3.0577,3.0587,3.0773,3.1,3.1122,3.1015,3.0773,3.041,2.9989,2.9772,2.975,2.9772,2.9639,2.9428,2.9187,2.8706,2.8044,2.7765,2.7625,2.7615,2.7959,2.8064,2.8109,2.8378,2.8738,2.9026,2.9295,2.9804,3.0447,3.0761,3.1092,3.1391,3.1496,3.1496,3.1496,3.1496,3.1496,3.1496,3.1438,3.1322,3.094,2.9988,2.9069,2.8658,2.8384,2.8102,2.7705,2.7166,2.6345,2.5558,2.4938,2.4517,2.3526,2.3348,2.321,2.318,2.3138,2.3095,2.3095,2.3095,2.3095,2.3095,2.3095,2.3095,2.3095,2.3095,2.3083,2.2907,2.2744,2.2794,2.2501,2.1947,2.1629,2.1399,2.1006,2.0515,2.0008,1.9359,1.8965,3.9328,3.926,3.926,3.8811,3.8167,3.8018,3.733,3.642,3.6327,3.5923,3.5579,3.5489,3.5489,3.5489,3.5489,3.5489,3.516,3.4218,3.3559,3.335,3.2108,3.1585,3.1496,3.1496,3.1496,3.1496,3.1496,3.1496,3.1496,3.1496,3.1496,3.1524,3.1712,3.1609,3.1457,3.1695,3.1777,3.1547,3.1473,3.1521,3.1381,3.121,3.0895,3.0675,3.0489,3.0363,3.0363,3.0359,3.0302,3.0147,3.0341,2.9824,2.8998,2.8228,2.7935,2.801,2.8539,2.8738,2.8816,2.916,2.952,2.9699,3.0133,3.0507,3.0761,3.1107,3.1361,3.1451,3.1496,3.1496,3.1496,3.1496,3.1496,3.1496,3.1496,3.1496,3.1409,3.1029,3.0512,3.0245,2.984,2.9537,2.9131,2.8598,2.7653,2.6757,2.6151,2.5402,2.4415,2.3697,2.3666,2.3324,2.3263,2.312,2.3095,2.3095,2.3095,2.3095,2.3095,2.3095,2.3095,2.3095,2.3095,2.3095,2.302,2.3032,2.299,2.2675,2.2463,2.2456,2.2093,2.1445,2.106,2.0782,2.037,3.908,3.8556,3.8556,3.7883,3.6911,3.6821,3.6432,3.5744,3.5714,3.5609,3.5519,3.5489,3.5489,3.5489,3.5489,3.5489,3.519,3.4173,3.3499,3.3275,3.2153,3.1511,3.1496,3.1496,3.1496,3.1496,3.1496,3.1496,3.1496,3.1496,3.1496,3.1568,3.1826,3.1942,3.2207,3.2405,3.2666,3.2646,3.2304,3.2064,3.1888,3.1543,3.1249,3.113,3.1137,3.1103,3.1043,3.1063,3.1221,3.1562,3.1374,3.1225,3.0903,3.0154,2.9635,2.9339,2.9345,2.9442,2.946,2.9564,2.9909,3.0223,3.0522,3.0836,3.1167,3.1406,3.1481,3.1496,3.1496,3.1496,3.1496,3.1496,3.1496,3.1496,3.1496,3.1496,3.1482,3.1351,3.1234,3.1043,3.0939,3.082,3.0264,2.9725,2.8973,2.8125,2.7434,2.6617,2.5631,2.4875,2.4442,2.3959,2.3396,2.3246,2.3095,2.3095,2.3095,2.3095,2.3095,2.3095,2.3095,2.3095,2.3095,2.3095,2.3095,2.3083,2.3083,2.3095,2.302,2.2794,2.2543,2.2264,2.1935,2.1555,2.1112,3.9005,3.8407,3.8377,3.7659,3.6626,3.6492,3.6118,3.5549,3.5489,3.5489,3.5489,3.5489,3.5489,3.5489,3.5489,3.5489,3.5145,3.4113,3.3559,3.3215,3.2183,3.1496,3.1496,3.1496,3.1496,3.1496,3.1496,3.1496,3.1496,3.1496,3.1496,3.1597,3.1896,3.2342,3.281,3.3163,3.3397,3.3565,3.3273,3.2757,3.2374,3.1904,3.1802,3.1816,3.207,3.2121,3.1802,3.1769,3.182,3.2005,3.2086,3.2319,3.2343,3.2028,3.1217,3.035,3.0081,3.0086,3.0163,3.0342,3.0791,3.0943,3.0987,3.1137,3.1391,3.1481,3.1496,3.1496,3.1496,3.1496,3.1496,3.1496,3.1496,3.1496,3.1496,3.1496,3.1496,3.1496,3.1496,3.1496,3.1319,3.1157,3.1126,3.0612,3.016,2.9493,2.8755,2.7881,2.6904,2.6243,2.5616,2.4693,2.4106,2.3652,2.3452,2.3294,2.3145,2.3108,2.3183,2.3183,2.3145,2.317,2.3133,2.3095,2.3095,2.3095,2.3095,2.3095,2.3095,2.3095,2.2882,2.2664,2.2568,2.2312,2.1864,3.8945,3.8182,3.8197,3.7449,3.6402,3.6297,3.5998,3.5564,3.5489,3.5489,3.5489,3.5489,3.5489,3.5489,3.5489,3.5474,3.5355,3.4113,3.3559,3.323,3.2153,3.1496,3.1496,3.1496,3.1496,3.1496,3.1496,3.1496,3.1496,3.1496,3.1496,3.164,3.1994,3.2532,3.3114,3.3719,3.4046,3.4299,3.4192,3.3676,3.281,3.253,3.253,3.2547,3.3102,3.3051,3.256,3.251,3.2624,3.2786,3.3019,3.3339,3.3682,3.3695,3.2806,3.1321,3.0901,3.0797,3.0879,3.1091,3.1316,3.1376,3.1466,3.1496,3.1496,3.1496,3.1496,3.1496,3.1496,3.1496,3.1496,3.1496,3.1496,3.1496,3.1496,3.1496,3.1496,3.1496,3.1496,3.1496,3.1496,3.1451,3.1317,3.1287,3.0774,3.0556,2.9857,2.9315,2.8386,2.7633,2.6856,2.5714,2.4922,2.4305,2.3909,2.3568,2.3356,2.312,2.3296,2.3409,2.3333,2.3258,2.3221,2.3195,2.3095,2.3095,2.3095,2.3095,2.3095,2.3095,2.3095,2.3015,2.2847,2.2835,2.2608,3.8676,3.7524,3.7539,3.6791,3.5729,3.5654,3.5594,3.5519,3.5489,3.5489,3.5489,3.5489,3.5489,3.5489,3.5489,3.5489,3.51,3.4203,3.3514,3.329,3.2153,3.1496,3.1496,3.1496,3.1496,3.1496,3.1496,3.1496,3.1496,3.1496,3.1496,3.1611,3.2107,3.2734,3.3443,3.4052,3.4761,3.5143,3.4766,3.4061,3.3423,3.3288,3.3288,3.3322,3.3457,3.347,3.3322,3.3305,3.347,3.3994,3.4158,3.4527,3.4914,3.4662,3.4202,3.3351,3.2571,3.1762,3.1603,3.1522,3.1496,3.1496,3.1496,3.1496,3.1496,3.1496,3.1496,3.1496,3.1496,3.1496,3.1496,3.1496,3.1496,3.1496,3.1496,3.1496,3.1496,3.1496,3.1496,3.1496,3.1496,3.1496,3.1451,3.1437,3.1393,3.1232,3.0954,3.0366,2.9718,2.8813,2.804,2.6856,2.5741,2.5105,2.4387,2.4045,2.3659,2.3286,2.3513,2.3701,2.347,2.3369,2.3371,2.3333,2.3208,2.3108,2.3095,2.3095,2.3095,2.3095,2.3095,2.3095,2.3083,2.3095,2.3095,3.8272,3.7404,3.7404,3.6671,3.5564,3.5489,3.5489,3.5489,3.5489,3.5489,3.5489,3.5489,3.5489,3.5489,3.5489,3.5489,3.5205,3.4113,3.3514,3.3215,3.2198,3.1511,3.1496,3.1496,3.1496,3.1496,3.1496,3.1496,3.1496,3.1496,3.1496,3.1582,3.212,3.2788,3.3582,3.4177,3.4866,3.516,3.4912,3.437,3.41,3.4032,3.4015,3.4049,3.4404,3.4353,3.4117,3.4032,3.415,3.4489,3.4489,3.4795,3.5165,3.5071,3.4658,3.4177,3.3335,3.2574,3.2064,3.1726,3.1553,3.1496,3.1496,3.1496,3.1496,3.1496,3.1496,3.1496,3.1496,3.1496,3.1496,3.1496,3.1496,3.1496,3.1496,3.1496,3.1496,3.1496,3.1496,3.1496,3.1496,3.1496,3.1496,3.1496,3.1467,3.1394,3.1233,3.0867,3.022,2.9473,2.8711,2.7961,2.6864,2.586,2.5097,2.4498,2.4042,2.3798,2.3997,2.403,2.3586,2.3455,2.3615,2.3459,2.3183,2.312,2.3108,2.3095,2.3095,2.3095,2.3095,2.3095,2.3095,2.3095,2.3095,3.7913,3.7195,3.718,3.6522,3.5519,3.5489,3.5489,3.5489,3.5489,3.5489,3.5489,3.5489,3.5489,3.5489,3.5474,3.5385,3.513,3.4023,3.3469,3.2886,3.2183,3.157,3.1496,3.1496,3.1496,3.1496,3.1496,3.1496,3.1496,3.1496,3.1496,3.1524,3.2092,3.2815,3.3547,3.4202,3.4859,3.5481,3.5115,3.4844,3.4776,3.4776,3.4776,3.4928,3.5177,3.5312,3.4878,3.4759,3.4793,3.481,3.4844,3.5121,3.543,3.5321,3.5071,3.465,3.4027,3.3413,3.2738,3.2163,3.1697,3.1568,3.1496,3.1496,3.1496,3.1496,3.1496,3.1496,3.1496,3.1496,3.1496,3.1496,3.1496,3.1496,3.1496,3.1496,3.1496,3.1496,3.1496,3.1496,3.1496,3.1496,3.1496,3.1496,3.1496,3.1482,3.138,3.1234,3.0734,3.0119,2.9706,2.9056,2.8115,2.707,2.6272,2.5494,2.484,2.4447,2.4692,2.4607,2.4349,2.4153,2.4217,2.3873,2.3358,2.3183,2.3195,2.3145,2.3095,2.3095,2.3095,2.3095,2.3095,2.3095,2.3095,3.7674,3.6537,3.6552,3.6163,3.5489,3.5489,3.5489,3.5489,3.5489,3.5489,3.5489,3.5489,3.5489,3.5474,3.537,3.5085,3.4593,3.3845,3.32,3.2527,3.1884,3.1555,3.1496,3.1496,3.1496,3.1496,3.1496,3.1496,3.1496,3.1496,3.1496,3.1582,3.2092,3.2826,3.3598,3.4325,3.4937,3.5487,3.5397,3.5397,3.5397,3.5414,3.543,3.5447,3.5549,3.5566,3.5498,3.5414,3.5363,3.538,3.5385,3.5402,3.5538,3.5526,3.5327,3.5048,3.4642,3.4061,3.3413,3.2563,3.1968,3.1769,3.1626,3.1496,3.1496,3.1496,3.1496,3.1496,3.1496,3.1496,3.1496,3.1496,3.1496,3.1496,3.1496,3.1496,3.1496,3.1496,3.1496,3.1496,3.1496,3.1496,3.1496,3.1496,3.1496,3.1511,3.1511,3.1351,3.138,3.0895,3.0719,3.0215,2.9333,2.8439,2.7659,2.6885,2.6122,2.5823,2.5911,2.5707,2.5397,2.5211,2.4808,2.4318,2.3785,2.3534,2.3271,2.3195,2.3145,2.3108,2.3095,2.3095,2.3095,2.3095,2.3095,3.6701,3.5893,3.5878,3.5744,3.5489,3.5489,3.5489,3.5489,3.5489,3.5489,3.5489,3.5489,3.5489,3.54,3.5011,3.4756,3.4369,3.332,3.2826,3.2363,3.1884,3.1555,3.1496,3.1496,3.1496,3.1496,3.1496,3.1496,3.1496,3.1496,3.1496,3.1682,3.2092,3.2841,3.3614,3.4553,3.5264,3.5464,3.5616,3.5616,3.5616,3.5616,3.5616,3.5616,3.5616,3.5616,3.5583,3.56,3.56,3.5616,3.5616,3.5616,3.5616,3.5616,3.5503,3.5291,3.4873,3.4407,3.3797,3.2904,3.2176,3.1683,3.1539,3.1511,3.1555,3.1525,3.1511,3.1496,3.1585,3.1675,3.154,3.1525,3.1496,3.1496,3.1525,3.1555,3.1555,3.1585,3.1615,3.1675,3.157,3.1496,3.1496,3.1496,3.1496,3.1496,3.1496,3.1496,3.1496,3.1467,3.1176,3.0777,2.9934,2.9305,2.8504,2.7917,2.7371,2.7238,2.7104,2.668,2.6254,2.5626,2.5197,2.4695,2.428,2.4017,2.3684,2.3333,2.317,2.3133,2.3108,2.3095,2.3095,2.3095,2.3095,3.6118,3.5519,3.5489,3.5489,3.5489,3.5489,3.5489,3.5489,3.5489,3.5489,3.5489,3.5489,3.5489,3.531,3.4816,3.4337,3.3918,3.3095,3.2512,3.2064,3.1735,3.1525,3.1496,3.1496,3.1496,3.1496,3.1496,3.1496,3.1496,3.1496,3.1496,3.1653,3.2104,3.2841,3.3726,3.4847,3.56,3.5616,3.5616,3.5616,3.5616,3.5616,3.5616,3.5616,3.5616,3.5616,3.5616,3.5616,3.5616,3.5616,3.5616,3.5616,3.5616,3.5594,3.5481,3.5228,3.4899,3.4448,3.3954,3.2966,3.2298,3.197,3.1585,3.1645,3.1735,3.1809,3.1944,3.2213,3.2168,3.2093,3.2049,3.2243,3.2288,3.2407,3.2019,3.1959,3.1809,3.178,3.1824,3.1869,3.1824,3.1929,3.2258,3.2288,3.1899,3.178,3.1496,3.1496,3.1496,3.1438,3.1292,3.0851,3.0238,2.9722,2.9225,2.8942,2.8655,2.8391,2.815,2.7521,2.7003,2.6321,2.569,2.5197,2.4808,2.4481,2.4243,2.4029,2.3572,2.3158,2.3133,2.3095,2.3095,2.3095,2.3095,3.6088,3.5519,3.5489,3.5489,3.5489,3.5489,3.5489,3.5489,3.5489,3.5489,3.5489,3.5489,3.5489,3.5325,3.4743,3.4144,3.3559,3.2811,3.2198,3.1824,3.1645,3.1525,3.1555,3.157,3.1496,3.1496,3.1496,3.1496,3.1496,3.1496,3.1496,3.1799,3.2351,3.3069,3.3716,3.4934,3.5577,3.5616,3.5616,3.5616,3.5616,3.5616,3.5616,3.5616,3.5616,3.5616,3.5616,3.5616,3.5616,3.5616,3.5616,3.5616,3.5616,3.5616,3.5503,3.5251,3.4883,3.4684,3.4627,3.3017,3.2408,3.2332,3.2019,3.2004,3.2318,3.2482,3.2647,3.2916,3.314,3.3245,3.335,3.3335,3.323,3.3066,3.2632,3.2318,3.2183,3.2019,3.2064,3.2108,3.2363,3.2677,3.311,3.323,3.2602,3.2138,3.1675,3.1511,3.154,3.1438,3.1351,3.1073,3.0554,3.0362,3.0038,3.0153,2.9986,2.9664,2.9132,2.8388,2.7699,2.7057,2.6386,2.5802,2.5499,2.5332,2.5044,2.4757,2.4167,2.3595,2.3183,2.3095,2.3095,2.3095,2.3095,3.5714,3.5504,3.5489,3.5489,3.5489,3.5489,3.5489,3.5489,3.5489,3.5489,3.5489,3.5489,3.5489,3.519,3.4397,3.3724,3.3365,3.2258,3.169,3.2093,3.172,3.1869,3.1884,3.1675,3.1511,3.1496,3.1496,3.1496,3.1496,3.1496,3.1496,3.1756,3.2974,3.3952,3.4406,3.5125,3.56,3.5616,3.5616,3.5616,3.5633,3.5633,3.5633,3.5633,3.5616,3.5616,3.5616,3.5616,3.5616,3.5616,3.5616,3.5616,3.5616,3.5633,3.5531,3.5302,3.498,3.5011,3.4754,3.3801,3.2959,3.2751,3.2706,3.2587,3.2617,3.2976,3.3245,3.3484,3.3679,3.3664,3.3469,3.3469,3.341,3.341,3.311,3.2826,3.2617,3.2392,3.2303,3.2348,3.2527,3.3006,3.3455,3.3844,3.3425,3.2991,3.2572,3.1884,3.172,3.1556,3.1424,3.1234,3.0911,3.0836,3.0777,3.0732,3.0598,3.024,2.9707,2.9059,2.8382,2.7762,2.7372,2.6881,2.6537,2.6239,2.5896,2.5479,2.4646,2.4054,2.369,2.3258,2.3095,2.3095,2.3095,3.5489,3.5489,3.5489,3.5489,3.5489,3.5489,3.5489,3.5489,3.5489,3.5489,3.5489,3.5489,3.5489,3.51,3.4203,3.3499,3.3335,3.2153,3.16,3.2079,3.175,3.175,3.1809,3.1765,3.154,3.1496,3.1496,3.1496,3.1496,3.1496,3.1761,3.2492,3.3736,3.4574,3.5166,3.5954,3.6512,3.658,3.6597,3.6417,3.6231,3.6028,3.591,3.5701,3.5616,3.5616,3.5616,3.5616,3.5616,3.5616,3.5616,3.5616,3.5633,3.5814,3.5738,3.5542,3.5396,3.5279,3.4758,3.4771,3.3966,3.3425,3.3484,3.3395,3.3245,3.3649,3.3993,3.4158,3.4113,3.4143,3.4143,3.4098,3.4083,3.4098,3.3829,3.3559,3.3095,3.2886,3.2856,3.2871,3.3185,3.3559,3.3918,3.4113,3.4233,3.3858,3.3469,3.2751,3.2019,3.1839,3.1601,3.1322,3.1219,3.1161,3.1117,3.1102,3.0984,3.0762,3.0222,2.9625,2.9188,2.8597,2.8274,2.8012,2.7752,2.7402,2.6798,2.6201,2.548,2.4817,2.4268,2.3785,2.3246,2.3145,2.3183,3.5489,3.5489,3.5489,3.5489,3.5489,3.5489,3.5489,3.5489,3.5489,3.5489,3.5489,3.5489,3.5489,3.5235,3.4098,3.3514,3.323,3.2093,3.178,3.163,3.1615,3.166,3.166,3.1585,3.1511,3.1496,3.1496,3.1496,3.1496,3.169,3.2207,3.3018,3.4036,3.504,3.6042,3.7036,3.7496,3.7472,3.7408,3.7178,3.6891,3.6677,3.6315,3.6011,3.5718,3.5633,3.5616,3.5616,3.5616,3.5616,3.5616,3.5633,3.5853,3.6366,3.6259,3.6148,3.5955,3.5421,3.503,3.517,3.5015,3.4369,3.3993,3.4068,3.4204,3.4369,3.4666,3.4966,3.504,3.5205,3.531,3.525,3.5205,3.5011,3.4741,3.4277,3.3709,3.3514,3.3529,3.3709,3.4128,3.4532,3.4891,3.5085,3.4786,3.4651,3.4218,3.3589,3.2886,3.2303,3.2019,3.1482,3.1409,3.1438,3.1438,3.1351,3.1234,3.1014,3.0628,3.0117,2.9718,2.9421,2.9107,2.8903,2.8939,2.8579,2.7795,2.7078,2.6382,2.5736,2.5186,2.4482,2.3984,2.3452,2.3346,3.5489,3.5489,3.5489,3.5489,3.5489,3.5489,3.5489,3.5489,3.5489,3.5489,3.5489,3.5489,3.54,3.537,3.4113,3.3604,3.2991,3.2348,3.2064,3.1869,3.166,3.1869,3.1869,3.172,3.157,3.1496,3.1496,3.1511,3.163,3.1854,3.2375,3.3115,3.4417,3.5537,3.6653,3.7892,3.7994,3.8042,3.8029,3.7889,3.7533,3.7202,3.6789,3.6485,3.5988,3.5887,3.5819,3.5785,3.5769,3.5718,3.565,3.5769,3.6508,3.6698,3.6669,3.6812,3.6473,3.5974,3.5657,3.5597,3.5501,3.5222,3.4921,3.4666,3.4741,3.4891,3.5235,3.54,3.5489,3.5489,3.5489,3.5489,3.5489,3.534,3.51,3.4771,3.4262,3.4143,3.4158,3.4337,3.4771,3.5026,3.5459,3.5444,3.5175,3.519,3.4921,3.4292,3.3649,3.3036,3.2243,3.169,3.1496,3.1496,3.1496,3.1438,3.1351,3.1234,3.0911,3.0628,3.0358,3.0085,2.9856,2.9763,2.9704,2.9268,2.8607,2.7972,2.7455,2.6798,2.6181,2.5429,2.4722,2.4279,2.3813,3.5489,3.5489,3.5489,3.5489,3.5489,3.5489,3.5489,3.5489,3.5489,3.5385,3.5115,3.507,3.4951,3.4517,3.3574,3.3051,3.2961,3.2064,3.1705,3.175,3.1705,3.1765,3.1795,3.1735,3.1555,3.1496,3.1496,3.1496,3.1675,3.2168,3.272,3.3455,3.4833,3.585,3.6914,3.7961,3.8484,3.8571,3.8588,3.8533,3.8227,3.7838,3.7625,3.7161,3.6637,3.6495,3.6428,3.6428,3.6485,3.6518,3.6495,3.6705,3.729,3.7398,3.7644,3.7736,3.7387,3.6798,3.6307,3.5992,3.5782,3.5587,3.5489,3.528,3.5175,3.525,3.5385,3.5489,3.5489,3.5489,3.5489,3.5489,3.5489,3.5474,3.5325,3.516,3.4966,3.4801,3.4846,3.4936,3.5145,3.5355,3.5489,3.5489,3.5489,3.5415,3.5235,3.4816,3.4143,3.3469,3.2512,3.169,3.1555,3.1496,3.1525,3.157,3.1482,3.1409,3.1278,3.1043,3.0896,3.0836,3.0658,3.0509,3.0418,2.9917,2.9407,2.9093,2.8629,2.7958,2.7522,2.7168,2.6414,2.5451,2.4939,3.5489,3.5489,3.5489,3.5489,3.5489,3.5489,3.5459,3.5429,3.5355,3.507,3.4623,3.4474,3.4113,3.3709,3.2991,3.2647,3.2452,3.1869,3.1525,3.1525,3.1555,3.16,3.16,3.1496,3.1496,3.1496,3.1496,3.1511,3.172,3.2302,3.3141,3.3819,3.4805,3.583,3.6944,3.7885,3.8477,3.8907,3.9311,3.9537,3.9182,3.892,3.8684,3.8091,3.7838,3.7746,3.778,3.7831,3.7898,3.7865,3.7814,3.7787,3.8087,3.8437,3.8718,3.8605,3.8228,3.7565,3.6904,3.6477,3.6022,3.5765,3.5522,3.5477,3.5432,3.54,3.5474,3.5489,3.5489,3.5489,3.5489,3.5489,3.5489,3.5489,3.5415,3.5265,3.5115,3.507,3.519,3.5265,3.531,3.5489,3.5489,3.5489,3.5489,3.5489,3.54,3.5115,3.4607,3.3888,3.3155,3.2108,3.2093,3.2064,3.1795,3.1809,3.163,3.1541,3.1482,3.1409,3.1234,3.1322,3.1467,3.119,3.0851,3.0658,3.0283,2.9903,2.9532,2.9122,2.8837,2.8965,2.8265,2.7077,2.6128,3.5489,3.5489,3.5489,3.5489,3.5489,3.5489,3.519,3.4773,3.4758,3.4592,3.4429,3.3963,3.3619,3.326,3.2706,3.2407,3.2273,3.1809,3.1555,3.1511,3.1496,3.1496,3.1496,3.1496,3.1496,3.1496,3.1496,3.154,3.1824,3.2587,3.3335,3.3726,3.4753,3.5901,3.6677,3.7576,3.8294,3.8898,3.9601,3.9952,3.9766,3.9242,3.8836,3.8565,3.8413,3.8125,3.8075,3.8007,3.7956,3.7882,3.7882,3.8176,3.8693,3.9253,3.9426,3.9252,3.8882,3.821,3.756,3.7011,3.6523,3.6022,3.575,3.5604,3.5554,3.5522,3.5489,3.5489,3.5489,3.5489,3.5489,3.5489,3.5489,3.5489,3.5489,3.5355,3.522,3.534,3.5489,3.5489,3.5489,3.5489,3.5489,3.5489,3.5489,3.5489,3.5489,3.528,3.4861,3.4339,3.4083,3.332,3.3095,3.2946,3.2497,3.2183,3.2079,3.1795,3.1661,3.1586,3.1511,3.1496,3.1496,3.1438,3.1263,3.1029,3.0822,3.0553,3.0206,2.9979,2.9872,2.9903,2.978,2.8873,2.7781,3.5489,3.5489,3.5489,3.5489,3.5444,3.519,3.4816,3.4459,3.3873,3.3604,3.3574,3.3215,3.2916,3.2691,3.2183,3.2079,3.2019,3.169,3.1525,3.1496,3.1496,3.1496,3.1496,3.1496,3.1496,3.1496,3.154,3.166,3.2019,3.2856,3.3574,3.4008,3.5045,3.5812,3.643,3.7207,3.7924,3.8579,3.9461,3.9884,4.0011,3.9656,3.9503,3.93,3.9123,3.8836,3.887,3.887,3.887,3.8886,3.8971,3.9073,3.9462,3.975,3.9825,3.9696,3.9355,3.8909,3.8266,3.7648,3.7087,3.6508,3.6038,3.5941,3.5522,3.5489,3.5489,3.5489,3.5489,3.5489,3.5489,3.5489,3.5489,3.5489,3.5489,3.5429,3.5385,3.5429,3.5489,3.5489,3.5489,3.5489,3.5489,3.5489,3.5489,3.5489,3.5489,3.5489,3.507,3.4818,3.4562,3.4337,3.4023,3.3604,3.311,3.2841,3.2691,3.2333,3.1929,3.1735,3.1645,3.1555,3.1496,3.1467,3.1438,3.1336,3.1131,3.0955,3.0955,3.0822,3.0762,3.0732,3.0583,3.0358,2.9421,3.5489,3.5489,3.5489,3.5489,3.54,3.4803,3.4459,3.4174,3.308,3.2497,3.2422,3.2392,3.1989,3.1675,3.1496,3.1496,3.1511,3.1525,3.1496,3.1496,3.1496,3.1496,3.1496,3.1496,3.1496,3.1585,3.1675,3.2004,3.2392,3.329,3.4038,3.4578,3.5106,3.5733,3.629,3.689,3.756,3.8238,3.8974,3.9582,3.9833,4.0011,4.0003,4.0062,4.0113,4.0113,4.0079,4.0062,4.0062,3.9994,3.9859,3.9876,3.991,4.002,4.0037,3.9918,3.9764,3.9365,3.893,3.8379,3.7648,3.7011,3.6554,3.6179,3.5829,3.5651,3.5651,3.5587,3.5587,3.5489,3.5489,3.5489,3.5489,3.5489,3.5489,3.5489,3.5489,3.5489,3.5489,3.5489,3.5489,3.5489,3.5489,3.5489,3.5489,3.5489,3.5489,3.5489,3.5429,3.5265,3.507,3.4876,3.4622,3.4173,3.3709,3.3529,3.338,3.2841,3.2407,3.2064,3.175,3.1585,3.1496,3.1496,3.1467,3.1438,3.1438,3.1322,3.138,3.138,3.1263,3.1131,3.1117,3.0911,3.0718,3.5489,3.5489,3.5489,3.5489,3.54,3.4788,3.4188,3.3604,3.2871,3.2213,3.1839,3.172,3.1585,3.1496,3.1496,3.1496,3.1496,3.1496,3.1496,3.1496,3.1496,3.1496,3.1496,3.1496,3.1496,3.169,3.1974,3.2363,3.2961,3.3799,3.4337,3.4623,3.5175,3.5653,3.6053,3.6631,3.7175,3.7879,3.8574,3.9242,3.9592,3.9816,4.0062,4.0113,4.0113,4.0113,4.0096,4.0096,4.0096,4.0096,4.0113,4.0113,4.0113,4.0113,4.0113,4.0087,3.9935,3.9713,3.9286,3.892,3.8222,3.7618,3.7191,3.6876,3.6507,3.6179,3.6116,3.5878,3.5829,3.5587,3.5537,3.5489,3.5489,3.5489,3.5489,3.5489,3.5489,3.5489,3.5489,3.5489,3.5489,3.5489,3.5489,3.5489,3.5489,3.5489,3.5489,3.5489,3.5489,3.5489,3.5489,3.531,3.51,3.4831,3.4459,3.4292,3.4068,3.3469,3.2916,3.2497,3.2079,3.16,3.1511,3.169,3.1585,3.1467,3.1496,3.1496,3.1467,3.1438,3.1467,3.1438,3.1453,3.138,3.1087]}]]